<?xml version="1.0" encoding="UTF-8" standalone="no" ?>
<gpx xmlns="http://www.topografix.com/GPX/1/1" creator="www.cicloide.com" version="1.1" xmlns:xsi="http://www.w3.org/2001/XMLSchema-instance" xsi:schemaLocation="http://www.topografix.com/GPX/1/1 http://www.topografix.com/GPX/1/1/gpx.xsd">
  <trk>
    <name>www.cicloide.com 16386</name>
    <desc>www.cicloide.com 16386</desc>
    <trkseg>
      <trkpt lat="39.585071364" lon="-0.517264344">
        <ele>129.92</ele>
        <time>2013-12-15T07:50:59Z</time>
      </trkpt>
      <trkpt lat="39.585060803" lon="-0.517266104">
        <ele>129.92</ele>
        <time>2013-12-15T07:51:07Z</time>
      </trkpt>
      <trkpt lat="39.585060552" lon="-0.517265601">
        <ele>129.92</ele>
        <time>2013-12-15T07:51:08Z</time>
      </trkpt>
      <trkpt lat="39.585055942" lon="-0.517267110">
        <ele>129.92</ele>
        <time>2013-12-15T07:51:14Z</time>
      </trkpt>
      <trkpt lat="39.585049152" lon="-0.517263673">
        <ele>129.92</ele>
        <time>2013-12-15T07:51:18Z</time>
      </trkpt>
      <trkpt lat="39.585046303" lon="-0.517263673">
        <ele>129.92</ele>
        <time>2013-12-15T07:51:31Z</time>
      </trkpt>
      <trkpt lat="39.585048063" lon="-0.517254453">
        <ele>129.92</ele>
        <time>2013-12-15T07:51:50Z</time>
      </trkpt>
      <trkpt lat="39.585081590" lon="-0.517146913">
        <ele>129.92</ele>
        <time>2013-12-15T07:51:55Z</time>
      </trkpt>
      <trkpt lat="39.585121991" lon="-0.516879195">
        <ele>131.36</ele>
        <time>2013-12-15T07:52:02Z</time>
      </trkpt>
      <trkpt lat="39.585182592" lon="-0.516505195">
        <ele>131.36</ele>
        <time>2013-12-15T07:52:10Z</time>
      </trkpt>
      <trkpt lat="39.585268088" lon="-0.516124154">
        <ele>131.36</ele>
        <time>2013-12-15T07:52:18Z</time>
      </trkpt>
      <trkpt lat="39.585442599" lon="-0.515626352">
        <ele>130.88</ele>
        <time>2013-12-15T07:52:28Z</time>
      </trkpt>
      <trkpt lat="39.585539494" lon="-0.515104160">
        <ele>130.88</ele>
        <time>2013-12-15T07:52:37Z</time>
      </trkpt>
      <trkpt lat="39.585603196" lon="-0.514557743">
        <ele>130.40</ele>
        <time>2013-12-15T07:52:46Z</time>
      </trkpt>
      <trkpt lat="39.585515857" lon="-0.513999928">
        <ele>129.92</ele>
        <time>2013-12-15T07:52:55Z</time>
      </trkpt>
      <trkpt lat="39.585397923" lon="-0.513480250">
        <ele>129.92</ele>
        <time>2013-12-15T07:53:04Z</time>
      </trkpt>
      <trkpt lat="39.585340088" lon="-0.513200630">
        <ele>129.92</ele>
        <time>2013-12-15T07:53:09Z</time>
      </trkpt>
      <trkpt lat="39.585208828" lon="-0.512643903">
        <ele>131.36</ele>
        <time>2013-12-15T07:53:20Z</time>
      </trkpt>
      <trkpt lat="39.585075974" lon="-0.512062283">
        <ele>132.32</ele>
        <time>2013-12-15T07:53:32Z</time>
      </trkpt>
      <trkpt lat="39.584955275" lon="-0.511593400">
        <ele>132.80</ele>
        <time>2013-12-15T07:53:42Z</time>
      </trkpt>
      <trkpt lat="39.584808173" lon="-0.511395754">
        <ele>133.28</ele>
        <time>2013-12-15T07:53:48Z</time>
      </trkpt>
      <trkpt lat="39.584713709" lon="-0.511252508">
        <ele>133.76</ele>
        <time>2013-12-15T07:53:53Z</time>
      </trkpt>
      <trkpt lat="39.584738687" lon="-0.511149326">
        <ele>134.72</ele>
        <time>2013-12-15T07:53:57Z</time>
      </trkpt>
      <trkpt lat="39.584987126" lon="-0.510930140">
        <ele>135.20</ele>
        <time>2013-12-15T07:54:07Z</time>
      </trkpt>
      <trkpt lat="39.585146969" lon="-0.510693099">
        <ele>136.16</ele>
        <time>2013-12-15T07:54:15Z</time>
      </trkpt>
      <trkpt lat="39.585356768" lon="-0.510303089">
        <ele>136.64</ele>
        <time>2013-12-15T07:54:26Z</time>
      </trkpt>
      <trkpt lat="39.585566148" lon="-0.509988097">
        <ele>137.61</ele>
        <time>2013-12-15T07:54:36Z</time>
      </trkpt>
      <trkpt lat="39.585830262" lon="-0.509716021">
        <ele>137.61</ele>
        <time>2013-12-15T07:54:46Z</time>
      </trkpt>
      <trkpt lat="39.585951380" lon="-0.509479651">
        <ele>137.61</ele>
        <time>2013-12-15T07:54:53Z</time>
      </trkpt>
      <trkpt lat="39.585859012" lon="-0.509254178">
        <ele>138.57</ele>
        <time>2013-12-15T07:54:59Z</time>
      </trkpt>
      <trkpt lat="39.585841913" lon="-0.509219561">
        <ele>138.57</ele>
        <time>2013-12-15T07:55:00Z</time>
      </trkpt>
      <trkpt lat="39.585658601" lon="-0.508780768">
        <ele>140.01</ele>
        <time>2013-12-15T07:55:12Z</time>
      </trkpt>
      <trkpt lat="39.585586600" lon="-0.508599970">
        <ele>141.45</ele>
        <time>2013-12-15T07:55:17Z</time>
      </trkpt>
      <trkpt lat="39.585627504" lon="-0.508404253">
        <ele>141.93</ele>
        <time>2013-12-15T07:55:23Z</time>
      </trkpt>
      <trkpt lat="39.585716520" lon="-0.508162603">
        <ele>142.41</ele>
        <time>2013-12-15T07:55:30Z</time>
      </trkpt>
      <trkpt lat="39.585713167" lon="-0.507857334">
        <ele>144.34</ele>
        <time>2013-12-15T07:55:38Z</time>
      </trkpt>
      <trkpt lat="39.585702941" lon="-0.507669412">
        <ele>145.78</ele>
        <time>2013-12-15T07:55:45Z</time>
      </trkpt>
      <trkpt lat="39.585754573" lon="-0.507429102">
        <ele>146.74</ele>
        <time>2013-12-15T07:55:53Z</time>
      </trkpt>
      <trkpt lat="39.585848618" lon="-0.507079829">
        <ele>148.18</ele>
        <time>2013-12-15T07:56:04Z</time>
      </trkpt>
      <trkpt lat="39.585917098" lon="-0.506803812">
        <ele>149.14</ele>
        <time>2013-12-15T07:56:13Z</time>
      </trkpt>
      <trkpt lat="39.585969066" lon="-0.506499046">
        <ele>150.58</ele>
        <time>2013-12-15T07:56:23Z</time>
      </trkpt>
      <trkpt lat="39.586006366" lon="-0.506227221">
        <ele>152.51</ele>
        <time>2013-12-15T07:56:32Z</time>
      </trkpt>
      <trkpt lat="39.586030673" lon="-0.506010382">
        <ele>153.47</ele>
        <time>2013-12-15T07:56:39Z</time>
      </trkpt>
      <trkpt lat="39.586038804" lon="-0.505595310">
        <ele>154.43</ele>
        <time>2013-12-15T07:56:51Z</time>
      </trkpt>
      <trkpt lat="39.586035786" lon="-0.505132629">
        <ele>155.39</ele>
        <time>2013-12-15T07:57:02Z</time>
      </trkpt>
      <trkpt lat="39.586104099" lon="-0.504809255">
        <ele>155.39</ele>
        <time>2013-12-15T07:57:10Z</time>
      </trkpt>
      <trkpt lat="39.586230498" lon="-0.504340036">
        <ele>154.91</ele>
        <time>2013-12-15T07:57:20Z</time>
      </trkpt>
      <trkpt lat="39.586242819" lon="-0.503919851">
        <ele>154.43</ele>
        <time>2013-12-15T07:57:28Z</time>
      </trkpt>
      <trkpt lat="39.586148607" lon="-0.503367316">
        <ele>153.95</ele>
        <time>2013-12-15T07:57:38Z</time>
      </trkpt>
      <trkpt lat="39.586089347" lon="-0.502691232">
        <ele>154.91</ele>
        <time>2013-12-15T07:57:50Z</time>
      </trkpt>
      <trkpt lat="39.586054059" lon="-0.502113886">
        <ele>155.87</ele>
        <time>2013-12-15T07:58:01Z</time>
      </trkpt>
      <trkpt lat="39.586023884" lon="-0.501540396">
        <ele>157.31</ele>
        <time>2013-12-15T07:58:13Z</time>
      </trkpt>
      <trkpt lat="39.586007455" lon="-0.501139406">
        <ele>159.24</ele>
        <time>2013-12-15T07:58:23Z</time>
      </trkpt>
      <trkpt lat="39.586069230" lon="-0.500714025">
        <ele>160.68</ele>
        <time>2013-12-15T07:58:34Z</time>
      </trkpt>
      <trkpt lat="39.586114660" lon="-0.500298366">
        <ele>164.04</ele>
        <time>2013-12-15T07:58:46Z</time>
      </trkpt>
      <trkpt lat="39.586174591" lon="-0.499969209">
        <ele>165.00</ele>
        <time>2013-12-15T07:58:55Z</time>
      </trkpt>
      <trkpt lat="39.586226810" lon="-0.499678021">
        <ele>165.96</ele>
        <time>2013-12-15T07:59:03Z</time>
      </trkpt>
      <trkpt lat="39.586268300" lon="-0.499339812">
        <ele>165.48</ele>
        <time>2013-12-15T07:59:11Z</time>
      </trkpt>
      <trkpt lat="39.586286237" lon="-0.499232356">
        <ele>165.48</ele>
        <time>2013-12-15T07:59:13Z</time>
      </trkpt>
      <trkpt lat="39.586408194" lon="-0.498931026">
        <ele>163.56</ele>
        <time>2013-12-15T07:59:19Z</time>
      </trkpt>
      <trkpt lat="39.586548759" lon="-0.498590721">
        <ele>161.16</ele>
        <time>2013-12-15T07:59:25Z</time>
      </trkpt>
      <trkpt lat="39.586496204" lon="-0.498325434">
        <ele>159.24</ele>
        <time>2013-12-15T07:59:28Z</time>
      </trkpt>
      <trkpt lat="39.586387575" lon="-0.497903991">
        <ele>157.31</ele>
        <time>2013-12-15T07:59:32Z</time>
      </trkpt>
      <trkpt lat="39.586372068" lon="-0.497542312">
        <ele>155.87</ele>
        <time>2013-12-15T07:59:35Z</time>
      </trkpt>
      <trkpt lat="39.586466113" lon="-0.496658022">
        <ele>152.03</ele>
        <time>2013-12-15T07:59:42Z</time>
      </trkpt>
      <trkpt lat="39.586752271" lon="-0.496097608">
        <ele>149.62</ele>
        <time>2013-12-15T07:59:47Z</time>
      </trkpt>
      <trkpt lat="39.586962909" lon="-0.495809857">
        <ele>148.66</ele>
        <time>2013-12-15T07:59:50Z</time>
      </trkpt>
      <trkpt lat="39.587072795" lon="-0.495386487">
        <ele>148.18</ele>
        <time>2013-12-15T07:59:54Z</time>
      </trkpt>
      <trkpt lat="39.587041531" lon="-0.494955741">
        <ele>147.22</ele>
        <time>2013-12-15T07:59:58Z</time>
      </trkpt>
      <trkpt lat="39.586926699" lon="-0.494386693">
        <ele>144.34</ele>
        <time>2013-12-15T08:00:03Z</time>
      </trkpt>
      <trkpt lat="39.586934410" lon="-0.493907249">
        <ele>142.89</ele>
        <time>2013-12-15T08:00:07Z</time>
      </trkpt>
      <trkpt lat="39.586973051" lon="-0.493668448">
        <ele>141.45</ele>
        <time>2013-12-15T08:00:09Z</time>
      </trkpt>
      <trkpt lat="39.586983528" lon="-0.493152877">
        <ele>139.53</ele>
        <time>2013-12-15T08:00:13Z</time>
      </trkpt>
      <trkpt lat="39.586823517" lon="-0.492280154">
        <ele>137.61</ele>
        <time>2013-12-15T08:00:20Z</time>
      </trkpt>
      <trkpt lat="39.586785212" lon="-0.491568865">
        <ele>136.16</ele>
        <time>2013-12-15T08:00:26Z</time>
      </trkpt>
      <trkpt lat="39.586901804" lon="-0.491141891">
        <ele>135.20</ele>
        <time>2013-12-15T08:00:30Z</time>
      </trkpt>
      <trkpt lat="39.586958047" lon="-0.491045332">
        <ele>134.72</ele>
        <time>2013-12-15T08:00:31Z</time>
      </trkpt>
      <trkpt lat="39.587134654" lon="-0.490765963">
        <ele>133.28</ele>
        <time>2013-12-15T08:00:34Z</time>
      </trkpt>
      <trkpt lat="39.587256107" lon="-0.490329852">
        <ele>132.32</ele>
        <time>2013-12-15T08:00:38Z</time>
      </trkpt>
      <trkpt lat="39.587389212" lon="-0.489551760">
        <ele>129.92</ele>
        <time>2013-12-15T08:00:45Z</time>
      </trkpt>
      <trkpt lat="39.587420225" lon="-0.489447657">
        <ele>129.43</ele>
        <time>2013-12-15T08:00:46Z</time>
      </trkpt>
      <trkpt lat="39.587763632" lon="-0.488217780">
        <ele>127.03</ele>
        <time>2013-12-15T08:00:58Z</time>
      </trkpt>
      <trkpt lat="39.588099662" lon="-0.487263333">
        <ele>124.15</ele>
        <time>2013-12-15T08:01:08Z</time>
      </trkpt>
      <trkpt lat="39.588136040" lon="-0.487169204">
        <ele>124.15</ele>
        <time>2013-12-15T08:01:09Z</time>
      </trkpt>
      <trkpt lat="39.588420521" lon="-0.486352472">
        <ele>122.71</ele>
        <time>2013-12-15T08:01:18Z</time>
      </trkpt>
      <trkpt lat="39.588444242" lon="-0.486274017">
        <ele>122.71</ele>
        <time>2013-12-15T08:01:19Z</time>
      </trkpt>
      <trkpt lat="39.588679103" lon="-0.486119622">
        <ele>121.74</ele>
        <time>2013-12-15T08:01:23Z</time>
      </trkpt>
      <trkpt lat="39.588747835" lon="-0.486099925">
        <ele>121.74</ele>
        <time>2013-12-15T08:01:24Z</time>
      </trkpt>
      <trkpt lat="39.589084620" lon="-0.485809240">
        <ele>120.78</ele>
        <time>2013-12-15T08:01:30Z</time>
      </trkpt>
      <trkpt lat="39.589152681" lon="-0.485659707">
        <ele>120.30</ele>
        <time>2013-12-15T08:01:32Z</time>
      </trkpt>
      <trkpt lat="39.589195931" lon="-0.485498775">
        <ele>119.34</ele>
        <time>2013-12-15T08:01:34Z</time>
      </trkpt>
      <trkpt lat="39.589266507" lon="-0.485092169">
        <ele>119.34</ele>
        <time>2013-12-15T08:01:39Z</time>
      </trkpt>
      <trkpt lat="39.589458536" lon="-0.484704757">
        <ele>118.86</ele>
        <time>2013-12-15T08:01:45Z</time>
      </trkpt>
      <trkpt lat="39.589503631" lon="-0.484656226">
        <ele>119.34</ele>
        <time>2013-12-15T08:01:46Z</time>
      </trkpt>
      <trkpt lat="39.589650398" lon="-0.484514236">
        <ele>118.38</ele>
        <time>2013-12-15T08:01:49Z</time>
      </trkpt>
      <trkpt lat="39.589908058" lon="-0.484137638">
        <ele>117.90</ele>
        <time>2013-12-15T08:01:55Z</time>
      </trkpt>
      <trkpt lat="39.589980394" lon="-0.483752321">
        <ele>116.94</ele>
        <time>2013-12-15T08:02:00Z</time>
      </trkpt>
      <trkpt lat="39.589964133" lon="-0.483580576">
        <ele>116.46</ele>
        <time>2013-12-15T08:02:02Z</time>
      </trkpt>
      <trkpt lat="39.590060022" lon="-0.483280839">
        <ele>116.94</ele>
        <time>2013-12-15T08:02:06Z</time>
      </trkpt>
      <trkpt lat="39.590317346" lon="-0.483003901">
        <ele>115.50</ele>
        <time>2013-12-15T08:02:11Z</time>
      </trkpt>
      <trkpt lat="39.590634182" lon="-0.482836263">
        <ele>115.01</ele>
        <time>2013-12-15T08:02:16Z</time>
      </trkpt>
      <trkpt lat="39.590765778" lon="-0.482817655">
        <ele>115.01</ele>
        <time>2013-12-15T08:02:18Z</time>
      </trkpt>
      <trkpt lat="39.590914054" lon="-0.482650772">
        <ele>114.05</ele>
        <time>2013-12-15T08:02:22Z</time>
      </trkpt>
      <trkpt lat="39.590911623" lon="-0.482579693">
        <ele>114.05</ele>
        <time>2013-12-15T08:02:23Z</time>
      </trkpt>
      <trkpt lat="39.590837695" lon="-0.481597334">
        <ele>112.61</ele>
        <time>2013-12-15T08:02:36Z</time>
      </trkpt>
      <trkpt lat="39.590763263" lon="-0.480645234">
        <ele>112.13</ele>
        <time>2013-12-15T08:02:49Z</time>
      </trkpt>
      <trkpt lat="39.590647677" lon="-0.480164867">
        <ele>112.13</ele>
        <time>2013-12-15T08:02:56Z</time>
      </trkpt>
      <trkpt lat="39.590660920" lon="-0.479807965">
        <ele>112.13</ele>
        <time>2013-12-15T08:03:01Z</time>
      </trkpt>
      <trkpt lat="39.590874743" lon="-0.479223914">
        <ele>111.17</ele>
        <time>2013-12-15T08:03:10Z</time>
      </trkpt>
      <trkpt lat="39.591174647" lon="-0.478637936">
        <ele>111.17</ele>
        <time>2013-12-15T08:03:20Z</time>
      </trkpt>
      <trkpt lat="39.591356954" lon="-0.478044581">
        <ele>110.69</ele>
        <time>2013-12-15T08:03:29Z</time>
      </trkpt>
      <trkpt lat="39.591522077" lon="-0.477392552">
        <ele>110.21</ele>
        <time>2013-12-15T08:03:39Z</time>
      </trkpt>
      <trkpt lat="39.591578236" lon="-0.476823673">
        <ele>109.73</ele>
        <time>2013-12-15T08:03:47Z</time>
      </trkpt>
      <trkpt lat="39.591579158" lon="-0.476748571">
        <ele>109.73</ele>
        <time>2013-12-15T08:03:48Z</time>
      </trkpt>
      <trkpt lat="39.591717208" lon="-0.476449840">
        <ele>108.77</ele>
        <time>2013-12-15T08:03:53Z</time>
      </trkpt>
      <trkpt lat="39.591815025" lon="-0.476384461">
        <ele>108.77</ele>
        <time>2013-12-15T08:03:55Z</time>
      </trkpt>
      <trkpt lat="39.592318526" lon="-0.476134596">
        <ele>108.29</ele>
        <time>2013-12-15T08:04:05Z</time>
      </trkpt>
      <trkpt lat="39.592559002" lon="-0.476020770">
        <ele>108.29</ele>
        <time>2013-12-15T08:04:10Z</time>
      </trkpt>
      <trkpt lat="39.593010787" lon="-0.475684237">
        <ele>107.32</ele>
        <time>2013-12-15T08:04:20Z</time>
      </trkpt>
      <trkpt lat="39.593500542" lon="-0.475297580">
        <ele>106.84</ele>
        <time>2013-12-15T08:04:31Z</time>
      </trkpt>
      <trkpt lat="39.593696762" lon="-0.475035980">
        <ele>105.88</ele>
        <time>2013-12-15T08:04:36Z</time>
      </trkpt>
      <trkpt lat="39.593860460" lon="-0.474488977">
        <ele>105.40</ele>
        <time>2013-12-15T08:04:44Z</time>
      </trkpt>
      <trkpt lat="39.593961462" lon="-0.473792776">
        <ele>105.40</ele>
        <time>2013-12-15T08:04:54Z</time>
      </trkpt>
      <trkpt lat="39.594041845" lon="-0.472985515">
        <ele>104.44</ele>
        <time>2013-12-15T08:05:05Z</time>
      </trkpt>
      <trkpt lat="39.594130106" lon="-0.472116647">
        <ele>103.00</ele>
        <time>2013-12-15T08:05:17Z</time>
      </trkpt>
      <trkpt lat="39.594186181" lon="-0.471672742">
        <ele>102.04</ele>
        <time>2013-12-15T08:05:23Z</time>
      </trkpt>
      <trkpt lat="39.594194815" lon="-0.471597807">
        <ele>102.52</ele>
        <time>2013-12-15T08:05:24Z</time>
      </trkpt>
      <trkpt lat="39.594161790" lon="-0.471289353">
        <ele>103.48</ele>
        <time>2013-12-15T08:05:29Z</time>
      </trkpt>
      <trkpt lat="39.594060872" lon="-0.470965980">
        <ele>102.52</ele>
        <time>2013-12-15T08:05:34Z</time>
      </trkpt>
      <trkpt lat="39.593857275" lon="-0.470344294">
        <ele>101.56</ele>
        <time>2013-12-15T08:05:43Z</time>
      </trkpt>
      <trkpt lat="39.593633479" lon="-0.469659995">
        <ele>101.08</ele>
        <time>2013-12-15T08:05:53Z</time>
      </trkpt>
      <trkpt lat="39.593466427" lon="-0.468991874">
        <ele>100.60</ele>
        <time>2013-12-15T08:06:03Z</time>
      </trkpt>
      <trkpt lat="39.593304070" lon="-0.468241274">
        <ele>99.15</ele>
        <time>2013-12-15T08:06:14Z</time>
      </trkpt>
      <trkpt lat="39.593195021" lon="-0.467511881">
        <ele>98.67</ele>
        <time>2013-12-15T08:06:25Z</time>
      </trkpt>
      <trkpt lat="39.593123356" lon="-0.466992287">
        <ele>98.19</ele>
        <time>2013-12-15T08:06:33Z</time>
      </trkpt>
      <trkpt lat="39.593183286" lon="-0.466793133">
        <ele>98.19</ele>
        <time>2013-12-15T08:06:37Z</time>
      </trkpt>
      <trkpt lat="39.593300465" lon="-0.466878377">
        <ele>98.19</ele>
        <time>2013-12-15T08:06:40Z</time>
      </trkpt>
      <trkpt lat="39.593328210" lon="-0.466924477">
        <ele>98.19</ele>
        <time>2013-12-15T08:06:41Z</time>
      </trkpt>
      <trkpt lat="39.593410688" lon="-0.467054481">
        <ele>98.19</ele>
        <time>2013-12-15T08:06:44Z</time>
      </trkpt>
      <trkpt lat="39.593571872" lon="-0.467079040">
        <ele>98.67</ele>
        <time>2013-12-15T08:06:49Z</time>
      </trkpt>
      <trkpt lat="39.593767757" lon="-0.466965968">
        <ele>99.15</ele>
        <time>2013-12-15T08:06:57Z</time>
      </trkpt>
      <trkpt lat="39.593786867" lon="-0.466923974">
        <ele>99.63</ele>
        <time>2013-12-15T08:06:59Z</time>
      </trkpt>
      <trkpt lat="39.593819808" lon="-0.466864463">
        <ele>98.67</ele>
        <time>2013-12-15T08:16:24Z</time>
      </trkpt>
      <trkpt lat="39.593815617" lon="-0.466864547">
        <ele>98.67</ele>
        <time>2013-12-15T08:16:41Z</time>
      </trkpt>
      <trkpt lat="39.593805894" lon="-0.466864295">
        <ele>99.15</ele>
        <time>2013-12-15T08:16:55Z</time>
      </trkpt>
      <trkpt lat="39.593803715" lon="-0.466861026">
        <ele>99.15</ele>
        <time>2013-12-15T08:17:23Z</time>
      </trkpt>
      <trkpt lat="39.593803799" lon="-0.466853650">
        <ele>98.67</ele>
        <time>2013-12-15T08:17:36Z</time>
      </trkpt>
      <trkpt lat="39.593803296" lon="-0.466857087">
        <ele>96.75</ele>
        <time>2013-12-15T08:21:59Z</time>
      </trkpt>
      <trkpt lat="39.593901867" lon="-0.466796234">
        <ele>97.23</ele>
        <time>2013-12-15T08:22:06Z</time>
      </trkpt>
      <trkpt lat="39.594050981" lon="-0.466665560">
        <ele>97.71</ele>
        <time>2013-12-15T08:22:14Z</time>
      </trkpt>
      <trkpt lat="39.594314424" lon="-0.466571348">
        <ele>97.71</ele>
        <time>2013-12-15T08:22:23Z</time>
      </trkpt>
      <trkpt lat="39.594643079" lon="-0.466535222">
        <ele>98.19</ele>
        <time>2013-12-15T08:22:32Z</time>
      </trkpt>
      <trkpt lat="39.594866373" lon="-0.466619460">
        <ele>98.19</ele>
        <time>2013-12-15T08:22:38Z</time>
      </trkpt>
      <trkpt lat="39.594987407" lon="-0.466635386">
        <ele>98.19</ele>
        <time>2013-12-15T08:22:41Z</time>
      </trkpt>
      <trkpt lat="39.595312541" lon="-0.466810232">
        <ele>99.63</ele>
        <time>2013-12-15T08:22:50Z</time>
      </trkpt>
      <trkpt lat="39.595551090" lon="-0.466910983">
        <ele>100.11</ele>
        <time>2013-12-15T08:22:57Z</time>
      </trkpt>
      <trkpt lat="39.595743874" lon="-0.466748876">
        <ele>99.63</ele>
        <time>2013-12-15T08:23:02Z</time>
      </trkpt>
      <trkpt lat="39.595950320" lon="-0.466636140">
        <ele>99.15</ele>
        <time>2013-12-15T08:23:07Z</time>
      </trkpt>
      <trkpt lat="39.596179817" lon="-0.466575203">
        <ele>99.63</ele>
        <time>2013-12-15T08:23:12Z</time>
      </trkpt>
      <trkpt lat="39.596633948" lon="-0.466241520">
        <ele>100.11</ele>
        <time>2013-12-15T08:23:23Z</time>
      </trkpt>
      <trkpt lat="39.597108616" lon="-0.465809014">
        <ele>100.11</ele>
        <time>2013-12-15T08:23:35Z</time>
      </trkpt>
      <trkpt lat="39.597475408" lon="-0.465416322">
        <ele>100.11</ele>
        <time>2013-12-15T08:23:45Z</time>
      </trkpt>
      <trkpt lat="39.597834656" lon="-0.465120440">
        <ele>98.67</ele>
        <time>2013-12-15T08:23:53Z</time>
      </trkpt>
      <trkpt lat="39.598331619" lon="-0.464799413">
        <ele>97.71</ele>
        <time>2013-12-15T08:24:03Z</time>
      </trkpt>
      <trkpt lat="39.598429352" lon="-0.464752894">
        <ele>97.71</ele>
        <time>2013-12-15T08:24:05Z</time>
      </trkpt>
      <trkpt lat="39.598689610" lon="-0.464755325">
        <ele>97.71</ele>
        <time>2013-12-15T08:24:10Z</time>
      </trkpt>
      <trkpt lat="39.598869151" lon="-0.464823218">
        <ele>96.75</ele>
        <time>2013-12-15T08:24:14Z</time>
      </trkpt>
      <trkpt lat="39.598931931" lon="-0.464726826">
        <ele>96.27</ele>
        <time>2013-12-15T08:24:18Z</time>
      </trkpt>
      <trkpt lat="39.598950874" lon="-0.464617861">
        <ele>95.31</ele>
        <time>2013-12-15T08:24:22Z</time>
      </trkpt>
      <trkpt lat="39.598976271" lon="-0.464618448">
        <ele>95.31</ele>
        <time>2013-12-15T08:24:23Z</time>
      </trkpt>
      <trkpt lat="39.599047098" lon="-0.464616520">
        <ele>94.35</ele>
        <time>2013-12-15T08:24:25Z</time>
      </trkpt>
      <trkpt lat="39.599258741" lon="-0.464637894">
        <ele>92.90</ele>
        <time>2013-12-15T08:24:30Z</time>
      </trkpt>
      <trkpt lat="39.599341806" lon="-0.464648372">
        <ele>93.39</ele>
        <time>2013-12-15T08:24:32Z</time>
      </trkpt>
      <trkpt lat="39.599644644" lon="-0.464662872">
        <ele>94.83</ele>
        <time>2013-12-15T08:24:39Z</time>
      </trkpt>
      <trkpt lat="39.599811193" lon="-0.464690449">
        <ele>95.79</ele>
        <time>2013-12-15T08:24:44Z</time>
      </trkpt>
      <trkpt lat="39.599833069" lon="-0.464735124">
        <ele>95.31</ele>
        <time>2013-12-15T08:24:45Z</time>
      </trkpt>
      <trkpt lat="39.599869363" lon="-0.464837467">
        <ele>96.27</ele>
        <time>2013-12-15T08:24:47Z</time>
      </trkpt>
      <trkpt lat="39.599970868" lon="-0.465093032">
        <ele>95.79</ele>
        <time>2013-12-15T08:24:52Z</time>
      </trkpt>
      <trkpt lat="39.600233641" lon="-0.465541715">
        <ele>97.23</ele>
        <time>2013-12-15T08:25:02Z</time>
      </trkpt>
      <trkpt lat="39.600371020" lon="-0.465669874">
        <ele>97.71</ele>
        <time>2013-12-15T08:25:06Z</time>
      </trkpt>
      <trkpt lat="39.600685006" lon="-0.466033313">
        <ele>98.19</ele>
        <time>2013-12-15T08:25:16Z</time>
      </trkpt>
      <trkpt lat="39.600823307" lon="-0.466166167">
        <ele>99.15</ele>
        <time>2013-12-15T08:25:20Z</time>
      </trkpt>
      <trkpt lat="39.601076525" lon="-0.466486523">
        <ele>99.15</ele>
        <time>2013-12-15T08:25:28Z</time>
      </trkpt>
      <trkpt lat="39.601104856" lon="-0.466533042">
        <ele>99.15</ele>
        <time>2013-12-15T08:25:29Z</time>
      </trkpt>
      <trkpt lat="39.601171492" lon="-0.466616862">
        <ele>99.15</ele>
        <time>2013-12-15T08:25:31Z</time>
      </trkpt>
      <trkpt lat="39.601332340" lon="-0.466730939">
        <ele>99.15</ele>
        <time>2013-12-15T08:25:35Z</time>
      </trkpt>
      <trkpt lat="39.601511126" lon="-0.466717863">
        <ele>99.63</ele>
        <time>2013-12-15T08:25:39Z</time>
      </trkpt>
      <trkpt lat="39.601940783" lon="-0.466443943">
        <ele>100.11</ele>
        <time>2013-12-15T08:25:50Z</time>
      </trkpt>
      <trkpt lat="39.602377145" lon="-0.466156611">
        <ele>100.11</ele>
        <time>2013-12-15T08:26:01Z</time>
      </trkpt>
      <trkpt lat="39.602527767" lon="-0.466055861">
        <ele>101.08</ele>
        <time>2013-12-15T08:26:05Z</time>
      </trkpt>
      <trkpt lat="39.602868827" lon="-0.465791831">
        <ele>102.04</ele>
        <time>2013-12-15T08:26:15Z</time>
      </trkpt>
      <trkpt lat="39.603032190" lon="-0.465642046">
        <ele>102.52</ele>
        <time>2013-12-15T08:26:20Z</time>
      </trkpt>
      <trkpt lat="39.603267889" lon="-0.465258155">
        <ele>102.04</ele>
        <time>2013-12-15T08:26:29Z</time>
      </trkpt>
      <trkpt lat="39.603426978" lon="-0.464988593">
        <ele>103.00</ele>
        <time>2013-12-15T08:26:35Z</time>
      </trkpt>
      <trkpt lat="39.603567794" lon="-0.464856159">
        <ele>103.00</ele>
        <time>2013-12-15T08:26:39Z</time>
      </trkpt>
      <trkpt lat="39.604016477" lon="-0.464678295">
        <ele>104.44</ele>
        <time>2013-12-15T08:26:50Z</time>
      </trkpt>
      <trkpt lat="39.604504639" lon="-0.464514093">
        <ele>105.40</ele>
        <time>2013-12-15T08:27:02Z</time>
      </trkpt>
      <trkpt lat="39.604852488" lon="-0.464395825">
        <ele>106.36</ele>
        <time>2013-12-15T08:27:11Z</time>
      </trkpt>
      <trkpt lat="39.605225483" lon="-0.464175548">
        <ele>107.81</ele>
        <time>2013-12-15T08:27:22Z</time>
      </trkpt>
      <trkpt lat="39.605530584" lon="-0.464081252">
        <ele>107.81</ele>
        <time>2013-12-15T08:27:30Z</time>
      </trkpt>
      <trkpt lat="39.605583474" lon="-0.463945298">
        <ele>107.81</ele>
        <time>2013-12-15T08:27:33Z</time>
      </trkpt>
      <trkpt lat="39.605741138" lon="-0.463716639">
        <ele>107.81</ele>
        <time>2013-12-15T08:27:39Z</time>
      </trkpt>
      <trkpt lat="39.605824035" lon="-0.463703144">
        <ele>107.81</ele>
        <time>2013-12-15T08:27:41Z</time>
      </trkpt>
      <trkpt lat="39.605908608" lon="-0.463702893">
        <ele>107.32</ele>
        <time>2013-12-15T08:27:43Z</time>
      </trkpt>
      <trkpt lat="39.606294259" lon="-0.463571716">
        <ele>107.81</ele>
        <time>2013-12-15T08:27:52Z</time>
      </trkpt>
      <trkpt lat="39.606377492" lon="-0.463531567">
        <ele>107.81</ele>
        <time>2013-12-15T08:27:54Z</time>
      </trkpt>
      <trkpt lat="39.606713019" lon="-0.463269213">
        <ele>107.32</ele>
        <time>2013-12-15T08:28:03Z</time>
      </trkpt>
      <trkpt lat="39.607088445" lon="-0.462970734">
        <ele>109.25</ele>
        <time>2013-12-15T08:28:13Z</time>
      </trkpt>
      <trkpt lat="39.607129768" lon="-0.462950617">
        <ele>108.29</ele>
        <time>2013-12-15T08:28:14Z</time>
      </trkpt>
      <trkpt lat="39.607629078" lon="-0.462815668">
        <ele>109.73</ele>
        <time>2013-12-15T08:28:26Z</time>
      </trkpt>
      <trkpt lat="39.607667550" lon="-0.462794127">
        <ele>108.77</ele>
        <time>2013-12-15T08:28:27Z</time>
      </trkpt>
      <trkpt lat="39.607810294" lon="-0.462831175">
        <ele>109.73</ele>
        <time>2013-12-15T08:28:31Z</time>
      </trkpt>
      <trkpt lat="39.608033169" lon="-0.463035777">
        <ele>110.21</ele>
        <time>2013-12-15T08:28:38Z</time>
      </trkpt>
      <trkpt lat="39.608320585" lon="-0.463197464">
        <ele>109.73</ele>
        <time>2013-12-15T08:28:46Z</time>
      </trkpt>
      <trkpt lat="39.608469615" lon="-0.463287821">
        <ele>110.69</ele>
        <time>2013-12-15T08:28:50Z</time>
      </trkpt>
      <trkpt lat="39.608624764" lon="-0.463361079">
        <ele>111.17</ele>
        <time>2013-12-15T08:28:54Z</time>
      </trkpt>
      <trkpt lat="39.608832216" lon="-0.463450765">
        <ele>111.17</ele>
        <time>2013-12-15T08:28:59Z</time>
      </trkpt>
      <trkpt lat="39.609351223" lon="-0.463606669">
        <ele>111.17</ele>
        <time>2013-12-15T08:29:11Z</time>
      </trkpt>
      <trkpt lat="39.609740227" lon="-0.463708173">
        <ele>110.69</ele>
        <time>2013-12-15T08:29:20Z</time>
      </trkpt>
      <trkpt lat="39.609893281" lon="-0.463873800">
        <ele>111.65</ele>
        <time>2013-12-15T08:29:25Z</time>
      </trkpt>
      <trkpt lat="39.609968886" lon="-0.463901879">
        <ele>111.17</ele>
        <time>2013-12-15T08:29:27Z</time>
      </trkpt>
      <trkpt lat="39.610314304" lon="-0.464020483">
        <ele>111.17</ele>
        <time>2013-12-15T08:29:36Z</time>
      </trkpt>
      <trkpt lat="39.610296953" lon="-0.464270683">
        <ele>111.17</ele>
        <time>2013-12-15T08:29:42Z</time>
      </trkpt>
      <trkpt lat="39.610135853" lon="-0.464494647">
        <ele>111.65</ele>
        <time>2013-12-15T08:29:48Z</time>
      </trkpt>
      <trkpt lat="39.610003419" lon="-0.464673433">
        <ele>111.65</ele>
        <time>2013-12-15T08:29:53Z</time>
      </trkpt>
      <trkpt lat="39.610106181" lon="-0.464822296">
        <ele>112.13</ele>
        <time>2013-12-15T08:29:58Z</time>
      </trkpt>
      <trkpt lat="39.610437518" lon="-0.465119770">
        <ele>112.13</ele>
        <time>2013-12-15T08:30:08Z</time>
      </trkpt>
      <trkpt lat="39.610564085" lon="-0.465237116">
        <ele>112.61</ele>
        <time>2013-12-15T08:30:12Z</time>
      </trkpt>
      <trkpt lat="39.610703560" lon="-0.465146760">
        <ele>113.09</ele>
        <time>2013-12-15T08:30:17Z</time>
      </trkpt>
      <trkpt lat="39.611046882" lon="-0.464681396">
        <ele>113.09</ele>
        <time>2013-12-15T08:30:29Z</time>
      </trkpt>
      <trkpt lat="39.611181915" lon="-0.464332122">
        <ele>113.09</ele>
        <time>2013-12-15T08:30:36Z</time>
      </trkpt>
      <trkpt lat="39.611350391" lon="-0.464199437">
        <ele>113.57</ele>
        <time>2013-12-15T08:30:41Z</time>
      </trkpt>
      <trkpt lat="39.611630095" lon="-0.464018891">
        <ele>114.05</ele>
        <time>2013-12-15T08:30:49Z</time>
      </trkpt>
      <trkpt lat="39.611937376" lon="-0.463894838">
        <ele>115.01</ele>
        <time>2013-12-15T08:30:57Z</time>
      </trkpt>
      <trkpt lat="39.612228479" lon="-0.463844379">
        <ele>115.50</ele>
        <time>2013-12-15T08:31:04Z</time>
      </trkpt>
      <trkpt lat="39.612529138" lon="-0.463692080">
        <ele>116.46</ele>
        <time>2013-12-15T08:31:12Z</time>
      </trkpt>
      <trkpt lat="39.612756539" lon="-0.463725189">
        <ele>116.46</ele>
        <time>2013-12-15T08:31:18Z</time>
      </trkpt>
      <trkpt lat="39.613108244" lon="-0.464003216">
        <ele>116.46</ele>
        <time>2013-12-15T08:31:28Z</time>
      </trkpt>
      <trkpt lat="39.613429774" lon="-0.464259870">
        <ele>116.94</ele>
        <time>2013-12-15T08:31:37Z</time>
      </trkpt>
      <trkpt lat="39.613758512" lon="-0.464355256">
        <ele>117.90</ele>
        <time>2013-12-15T08:31:45Z</time>
      </trkpt>
      <trkpt lat="39.614108289" lon="-0.464462293">
        <ele>117.90</ele>
        <time>2013-12-15T08:31:54Z</time>
      </trkpt>
      <trkpt lat="39.614349268" lon="-0.464532953">
        <ele>118.38</ele>
        <time>2013-12-15T08:32:01Z</time>
      </trkpt>
      <trkpt lat="39.614595864" lon="-0.464597326">
        <ele>118.38</ele>
        <time>2013-12-15T08:32:09Z</time>
      </trkpt>
      <trkpt lat="39.614693094" lon="-0.464611659">
        <ele>118.38</ele>
        <time>2013-12-15T08:32:15Z</time>
      </trkpt>
      <trkpt lat="39.614721760" lon="-0.464627249">
        <ele>117.90</ele>
        <time>2013-12-15T08:32:23Z</time>
      </trkpt>
      <trkpt lat="39.614754533" lon="-0.464631440">
        <ele>118.38</ele>
        <time>2013-12-15T08:32:30Z</time>
      </trkpt>
      <trkpt lat="39.614760904" lon="-0.464630770">
        <ele>117.90</ele>
        <time>2013-12-15T08:32:37Z</time>
      </trkpt>
      <trkpt lat="39.614755958" lon="-0.464652646">
        <ele>118.38</ele>
        <time>2013-12-15T08:32:44Z</time>
      </trkpt>
      <trkpt lat="39.614777751" lon="-0.464656753">
        <ele>119.82</ele>
        <time>2013-12-15T08:32:54Z</time>
      </trkpt>
      <trkpt lat="39.614797616" lon="-0.464672763">
        <ele>118.86</ele>
        <time>2013-12-15T08:32:59Z</time>
      </trkpt>
      <trkpt lat="39.614831060" lon="-0.464705117">
        <ele>118.38</ele>
        <time>2013-12-15T08:33:04Z</time>
      </trkpt>
      <trkpt lat="39.614988053" lon="-0.464757420">
        <ele>118.86</ele>
        <time>2013-12-15T08:33:10Z</time>
      </trkpt>
      <trkpt lat="39.615204306" lon="-0.464783069">
        <ele>118.38</ele>
        <time>2013-12-15T08:33:17Z</time>
      </trkpt>
      <trkpt lat="39.615351325" lon="-0.464794049">
        <ele>119.82</ele>
        <time>2013-12-15T08:33:22Z</time>
      </trkpt>
      <trkpt lat="39.615411423" lon="-0.464807795">
        <ele>119.82</ele>
        <time>2013-12-15T08:33:24Z</time>
      </trkpt>
      <trkpt lat="39.615459703" lon="-0.465020947">
        <ele>119.82</ele>
        <time>2013-12-15T08:33:30Z</time>
      </trkpt>
      <trkpt lat="39.615439754" lon="-0.465286737">
        <ele>119.34</ele>
        <time>2013-12-15T08:33:38Z</time>
      </trkpt>
      <trkpt lat="39.615426846" lon="-0.465353206">
        <ele>119.82</ele>
        <time>2013-12-15T08:33:43Z</time>
      </trkpt>
      <trkpt lat="39.615439670" lon="-0.465414561">
        <ele>119.82</ele>
        <time>2013-12-15T08:33:47Z</time>
      </trkpt>
      <trkpt lat="39.615480406" lon="-0.465460578">
        <ele>120.30</ele>
        <time>2013-12-15T08:33:55Z</time>
      </trkpt>
      <trkpt lat="39.615525668" lon="-0.465498967">
        <ele>119.82</ele>
        <time>2013-12-15T08:34:00Z</time>
      </trkpt>
      <trkpt lat="39.615522902" lon="-0.465488238">
        <ele>119.82</ele>
        <time>2013-12-15T08:34:10Z</time>
      </trkpt>
      <trkpt lat="39.615532709" lon="-0.465490585">
        <ele>119.82</ele>
        <time>2013-12-15T08:34:23Z</time>
      </trkpt>
      <trkpt lat="39.615534050" lon="-0.465490585">
        <ele>120.30</ele>
        <time>2013-12-15T08:34:33Z</time>
      </trkpt>
      <trkpt lat="39.615549305" lon="-0.465448759">
        <ele>120.30</ele>
        <time>2013-12-15T08:34:36Z</time>
      </trkpt>
      <trkpt lat="39.615682075" lon="-0.465416322">
        <ele>120.30</ele>
        <time>2013-12-15T08:34:42Z</time>
      </trkpt>
      <trkpt lat="39.615960270" lon="-0.465360247">
        <ele>121.26</ele>
        <time>2013-12-15T08:34:50Z</time>
      </trkpt>
      <trkpt lat="39.616328822" lon="-0.465200823">
        <ele>121.26</ele>
        <time>2013-12-15T08:35:00Z</time>
      </trkpt>
      <trkpt lat="39.616588829" lon="-0.465052212">
        <ele>122.22</ele>
        <time>2013-12-15T08:35:07Z</time>
      </trkpt>
      <trkpt lat="39.617038602" lon="-0.464899242">
        <ele>122.71</ele>
        <time>2013-12-15T08:35:18Z</time>
      </trkpt>
      <trkpt lat="39.617339093" lon="-0.464791032">
        <ele>123.67</ele>
        <time>2013-12-15T08:35:26Z</time>
      </trkpt>
      <trkpt lat="39.617700102" lon="-0.464636134">
        <ele>124.15</ele>
        <time>2013-12-15T08:35:36Z</time>
      </trkpt>
      <trkpt lat="39.617997492" lon="-0.464481320">
        <ele>124.63</ele>
        <time>2013-12-15T08:35:45Z</time>
      </trkpt>
      <trkpt lat="39.618409295" lon="-0.464207903">
        <ele>126.07</ele>
        <time>2013-12-15T08:35:57Z</time>
      </trkpt>
      <trkpt lat="39.618622698" lon="-0.463970611">
        <ele>126.55</ele>
        <time>2013-12-15T08:36:04Z</time>
      </trkpt>
      <trkpt lat="39.618704841" lon="-0.463707503">
        <ele>127.03</ele>
        <time>2013-12-15T08:36:10Z</time>
      </trkpt>
      <trkpt lat="39.618714396" lon="-0.463610692">
        <ele>127.03</ele>
        <time>2013-12-15T08:36:12Z</time>
      </trkpt>
      <trkpt lat="39.618818164" lon="-0.463489993">
        <ele>127.03</ele>
        <time>2013-12-15T08:36:16Z</time>
      </trkpt>
      <trkpt lat="39.619180178" lon="-0.463396031">
        <ele>127.51</ele>
        <time>2013-12-15T08:36:25Z</time>
      </trkpt>
      <trkpt lat="39.619558705" lon="-0.463180952">
        <ele>128.47</ele>
        <time>2013-12-15T08:36:35Z</time>
      </trkpt>
      <trkpt lat="39.619872272" lon="-0.462976769">
        <ele>128.95</ele>
        <time>2013-12-15T08:36:44Z</time>
      </trkpt>
      <trkpt lat="39.620168572" lon="-0.462813238">
        <ele>128.95</ele>
        <time>2013-12-15T08:36:52Z</time>
      </trkpt>
      <trkpt lat="39.620329840" lon="-0.462759761">
        <ele>129.43</ele>
        <time>2013-12-15T08:36:56Z</time>
      </trkpt>
      <trkpt lat="39.620760754" lon="-0.462513166">
        <ele>130.40</ele>
        <time>2013-12-15T08:37:07Z</time>
      </trkpt>
      <trkpt lat="39.621136431" lon="-0.462375619">
        <ele>130.40</ele>
        <time>2013-12-15T08:37:16Z</time>
      </trkpt>
      <trkpt lat="39.621545048" lon="-0.462303450">
        <ele>130.88</ele>
        <time>2013-12-15T08:37:26Z</time>
      </trkpt>
      <trkpt lat="39.622055674" lon="-0.462215105">
        <ele>132.32</ele>
        <time>2013-12-15T08:37:39Z</time>
      </trkpt>
      <trkpt lat="39.622327080" lon="-0.462060375">
        <ele>133.28</ele>
        <time>2013-12-15T08:37:47Z</time>
      </trkpt>
      <trkpt lat="39.622655902" lon="-0.461861389">
        <ele>133.28</ele>
        <time>2013-12-15T08:37:56Z</time>
      </trkpt>
      <trkpt lat="39.623018503" lon="-0.461653266">
        <ele>133.76</ele>
        <time>2013-12-15T08:38:06Z</time>
      </trkpt>
      <trkpt lat="39.623343302" lon="-0.461540194">
        <ele>134.24</ele>
        <time>2013-12-15T08:38:14Z</time>
      </trkpt>
      <trkpt lat="39.623747310" lon="-0.461446736">
        <ele>134.72</ele>
        <time>2013-12-15T08:38:24Z</time>
      </trkpt>
      <trkpt lat="39.624282075" lon="-0.461252276">
        <ele>135.68</ele>
        <time>2013-12-15T08:38:38Z</time>
      </trkpt>
      <trkpt lat="39.624742158" lon="-0.461092433">
        <ele>135.68</ele>
        <time>2013-12-15T08:38:50Z</time>
      </trkpt>
      <trkpt lat="39.625212299" lon="-0.461023869">
        <ele>137.13</ele>
        <time>2013-12-15T08:39:01Z</time>
      </trkpt>
      <trkpt lat="39.625644889" lon="-0.461006938">
        <ele>136.64</ele>
        <time>2013-12-15T08:39:11Z</time>
      </trkpt>
      <trkpt lat="39.626078317" lon="-0.460974500">
        <ele>137.13</ele>
        <time>2013-12-15T08:39:21Z</time>
      </trkpt>
      <trkpt lat="39.626355590" lon="-0.460792277">
        <ele>138.09</ele>
        <time>2013-12-15T08:39:28Z</time>
      </trkpt>
      <trkpt lat="39.626755491" lon="-0.460611228">
        <ele>139.05</ele>
        <time>2013-12-15T08:39:38Z</time>
      </trkpt>
      <trkpt lat="39.626869569" lon="-0.460559931">
        <ele>139.05</ele>
        <time>2013-12-15T08:39:41Z</time>
      </trkpt>
      <trkpt lat="39.627081547" lon="-0.460581472">
        <ele>139.53</ele>
        <time>2013-12-15T08:39:46Z</time>
      </trkpt>
      <trkpt lat="39.627645314" lon="-0.460929740">
        <ele>139.53</ele>
        <time>2013-12-15T08:40:00Z</time>
      </trkpt>
      <trkpt lat="39.628072288" lon="-0.461128894">
        <ele>139.53</ele>
        <time>2013-12-15T08:40:10Z</time>
      </trkpt>
      <trkpt lat="39.628468249" lon="-0.461061085">
        <ele>140.01</ele>
        <time>2013-12-15T08:40:19Z</time>
      </trkpt>
      <trkpt lat="39.628947275" lon="-0.461062845">
        <ele>140.49</ele>
        <time>2013-12-15T08:40:30Z</time>
      </trkpt>
      <trkpt lat="39.629357485" lon="-0.461160745">
        <ele>138.57</ele>
        <time>2013-12-15T08:40:38Z</time>
      </trkpt>
      <trkpt lat="39.629975231" lon="-0.461363839">
        <ele>136.64</ele>
        <time>2013-12-15T08:40:47Z</time>
      </trkpt>
      <trkpt lat="39.630445708" lon="-0.461623846">
        <ele>134.24</ele>
        <time>2013-12-15T08:40:53Z</time>
      </trkpt>
      <trkpt lat="39.630911071" lon="-0.461959708">
        <ele>133.76</ele>
        <time>2013-12-15T08:41:00Z</time>
      </trkpt>
      <trkpt lat="39.631198235" lon="-0.462188199">
        <ele>133.76</ele>
        <time>2013-12-15T08:41:06Z</time>
      </trkpt>
      <trkpt lat="39.631500905" lon="-0.462411409">
        <ele>134.72</ele>
        <time>2013-12-15T08:41:14Z</time>
      </trkpt>
      <trkpt lat="39.631827800" lon="-0.462658508">
        <ele>134.72</ele>
        <time>2013-12-15T08:41:23Z</time>
      </trkpt>
      <trkpt lat="39.632115215" lon="-0.462897141">
        <ele>135.68</ele>
        <time>2013-12-15T08:41:30Z</time>
      </trkpt>
      <trkpt lat="39.632368684" lon="-0.462947600">
        <ele>135.20</ele>
        <time>2013-12-15T08:41:35Z</time>
      </trkpt>
      <trkpt lat="39.632808398" lon="-0.462881634">
        <ele>137.13</ele>
        <time>2013-12-15T08:41:45Z</time>
      </trkpt>
      <trkpt lat="39.633164043" lon="-0.462781051">
        <ele>139.05</ele>
        <time>2013-12-15T08:41:55Z</time>
      </trkpt>
      <trkpt lat="39.633444166" lon="-0.462714667">
        <ele>141.93</ele>
        <time>2013-12-15T08:42:04Z</time>
      </trkpt>
      <trkpt lat="39.633473586" lon="-0.462709134">
        <ele>141.45</ele>
        <time>2013-12-15T08:42:05Z</time>
      </trkpt>
      <trkpt lat="39.633673914" lon="-0.462673679">
        <ele>143.37</ele>
        <time>2013-12-15T08:42:12Z</time>
      </trkpt>
      <trkpt lat="39.633849515" lon="-0.462637721">
        <ele>144.82</ele>
        <time>2013-12-15T08:42:18Z</time>
      </trkpt>
      <trkpt lat="39.634059230" lon="-0.462597404">
        <ele>146.74</ele>
        <time>2013-12-15T08:42:25Z</time>
      </trkpt>
      <trkpt lat="39.634268777" lon="-0.462504532">
        <ele>148.66</ele>
        <time>2013-12-15T08:42:33Z</time>
      </trkpt>
      <trkpt lat="39.634517385" lon="-0.462374613">
        <ele>150.10</ele>
        <time>2013-12-15T08:42:43Z</time>
      </trkpt>
      <trkpt lat="39.634810248" lon="-0.462249639">
        <ele>151.06</ele>
        <time>2013-12-15T08:42:53Z</time>
      </trkpt>
      <trkpt lat="39.635024155" lon="-0.462182751">
        <ele>150.58</ele>
        <time>2013-12-15T08:43:00Z</time>
      </trkpt>
      <trkpt lat="39.635317270" lon="-0.462133298">
        <ele>151.06</ele>
        <time>2013-12-15T08:43:09Z</time>
      </trkpt>
      <trkpt lat="39.635546682" lon="-0.462131705">
        <ele>152.51</ele>
        <time>2013-12-15T08:43:16Z</time>
      </trkpt>
      <trkpt lat="39.635877516" lon="-0.462153750">
        <ele>152.51</ele>
        <time>2013-12-15T08:43:25Z</time>
      </trkpt>
      <trkpt lat="39.636031156" lon="-0.462063393">
        <ele>152.03</ele>
        <time>2013-12-15T08:43:30Z</time>
      </trkpt>
      <trkpt lat="39.636238692" lon="-0.461927773">
        <ele>152.51</ele>
        <time>2013-12-15T08:43:37Z</time>
      </trkpt>
      <trkpt lat="39.636330223" lon="-0.461777402">
        <ele>153.47</ele>
        <time>2013-12-15T08:43:42Z</time>
      </trkpt>
      <trkpt lat="39.636534490" lon="-0.461592330">
        <ele>153.95</ele>
        <time>2013-12-15T08:43:50Z</time>
      </trkpt>
      <trkpt lat="39.636836322" lon="-0.461277086">
        <ele>154.91</ele>
        <time>2013-12-15T08:44:01Z</time>
      </trkpt>
      <trkpt lat="39.637116278" lon="-0.460981959">
        <ele>155.87</ele>
        <time>2013-12-15T08:44:11Z</time>
      </trkpt>
      <trkpt lat="39.637361113" lon="-0.460750787">
        <ele>155.87</ele>
        <time>2013-12-15T08:44:19Z</time>
      </trkpt>
      <trkpt lat="39.637700915" lon="-0.460411403">
        <ele>156.83</ele>
        <time>2013-12-15T08:44:30Z</time>
      </trkpt>
      <trkpt lat="39.637959916" lon="-0.460145948">
        <ele>157.31</ele>
        <time>2013-12-15T08:44:39Z</time>
      </trkpt>
      <trkpt lat="39.638187569" lon="-0.459928690">
        <ele>159.72</ele>
        <time>2013-12-15T08:44:48Z</time>
      </trkpt>
      <trkpt lat="39.638292845" lon="-0.459916871">
        <ele>161.64</ele>
        <time>2013-12-15T08:44:53Z</time>
      </trkpt>
      <trkpt lat="39.638508093" lon="-0.459918967">
        <ele>161.64</ele>
        <time>2013-12-15T08:45:00Z</time>
      </trkpt>
      <trkpt lat="39.638668438" lon="-0.459729452">
        <ele>164.04</ele>
        <time>2013-12-15T08:45:08Z</time>
      </trkpt>
      <trkpt lat="39.638764495" lon="-0.459510349">
        <ele>165.48</ele>
        <time>2013-12-15T08:45:15Z</time>
      </trkpt>
      <trkpt lat="39.638832221" lon="-0.459238607">
        <ele>167.89</ele>
        <time>2013-12-15T08:45:24Z</time>
      </trkpt>
      <trkpt lat="39.638881423" lon="-0.458909450">
        <ele>169.81</ele>
        <time>2013-12-15T08:45:34Z</time>
      </trkpt>
      <trkpt lat="39.638989046" lon="-0.458751619">
        <ele>170.77</ele>
        <time>2013-12-15T08:45:41Z</time>
      </trkpt>
      <trkpt lat="39.639137238" lon="-0.458694706">
        <ele>172.21</ele>
        <time>2013-12-15T08:45:47Z</time>
      </trkpt>
      <trkpt lat="39.639240419" lon="-0.458578533">
        <ele>173.66</ele>
        <time>2013-12-15T08:45:53Z</time>
      </trkpt>
      <trkpt lat="39.639396993" lon="-0.458454732">
        <ele>174.14</ele>
        <time>2013-12-15T08:46:01Z</time>
      </trkpt>
      <trkpt lat="39.639588352" lon="-0.458340067">
        <ele>175.10</ele>
        <time>2013-12-15T08:46:09Z</time>
      </trkpt>
      <trkpt lat="39.639876271" lon="-0.458249375">
        <ele>176.06</ele>
        <time>2013-12-15T08:46:19Z</time>
      </trkpt>
      <trkpt lat="39.640185731" lon="-0.458268151">
        <ele>178.46</ele>
        <time>2013-12-15T08:46:30Z</time>
      </trkpt>
      <trkpt lat="39.640395110" lon="-0.458094478">
        <ele>177.50</ele>
        <time>2013-12-15T08:46:38Z</time>
      </trkpt>
      <trkpt lat="39.640527880" lon="-0.457927594">
        <ele>177.98</ele>
        <time>2013-12-15T08:46:45Z</time>
      </trkpt>
      <trkpt lat="39.640725777" lon="-0.457692649">
        <ele>177.50</ele>
        <time>2013-12-15T08:46:54Z</time>
      </trkpt>
      <trkpt lat="39.640877070" lon="-0.457520150">
        <ele>177.50</ele>
        <time>2013-12-15T08:47:01Z</time>
      </trkpt>
      <trkpt lat="39.641094161" lon="-0.457258718">
        <ele>178.46</ele>
        <time>2013-12-15T08:47:10Z</time>
      </trkpt>
      <trkpt lat="39.641325334" lon="-0.457044141">
        <ele>179.90</ele>
        <time>2013-12-15T08:47:20Z</time>
      </trkpt>
      <trkpt lat="39.641568577" lon="-0.456855381">
        <ele>179.42</ele>
        <time>2013-12-15T08:47:29Z</time>
      </trkpt>
      <trkpt lat="39.641878707" lon="-0.456641726">
        <ele>178.94</ele>
        <time>2013-12-15T08:47:38Z</time>
      </trkpt>
      <trkpt lat="39.642114993" lon="-0.456438381">
        <ele>177.50</ele>
        <time>2013-12-15T08:52:14Z</time>
      </trkpt>
      <trkpt lat="39.642409869" lon="-0.456129173">
        <ele>177.98</ele>
        <time>2013-12-15T08:52:23Z</time>
      </trkpt>
      <trkpt lat="39.642668953" lon="-0.455851229">
        <ele>177.50</ele>
        <time>2013-12-15T08:52:31Z</time>
      </trkpt>
      <trkpt lat="39.642816307" lon="-0.455703121">
        <ele>178.46</ele>
        <time>2013-12-15T08:52:36Z</time>
      </trkpt>
      <trkpt lat="39.642939521" lon="-0.455814265">
        <ele>177.98</ele>
        <time>2013-12-15T08:52:41Z</time>
      </trkpt>
      <trkpt lat="39.642958129" lon="-0.455859443">
        <ele>178.46</ele>
        <time>2013-12-15T08:52:42Z</time>
      </trkpt>
      <trkpt lat="39.643226685" lon="-0.456301002">
        <ele>180.87</ele>
        <time>2013-12-15T08:52:53Z</time>
      </trkpt>
      <trkpt lat="39.643252753" lon="-0.456330255">
        <ele>180.38</ele>
        <time>2013-12-15T08:52:54Z</time>
      </trkpt>
      <trkpt lat="39.643518291" lon="-0.456571402">
        <ele>182.79</ele>
        <time>2013-12-15T08:53:04Z</time>
      </trkpt>
      <trkpt lat="39.643851221" lon="-0.456728227">
        <ele>182.79</ele>
        <time>2013-12-15T08:53:13Z</time>
      </trkpt>
      <trkpt lat="39.644163614" lon="-0.456889160">
        <ele>183.75</ele>
        <time>2013-12-15T08:53:22Z</time>
      </trkpt>
      <trkpt lat="39.644448934" lon="-0.457033496">
        <ele>186.15</ele>
        <time>2013-12-15T08:53:31Z</time>
      </trkpt>
      <trkpt lat="39.644739619" lon="-0.457179174">
        <ele>188.08</ele>
        <time>2013-12-15T08:53:40Z</time>
      </trkpt>
      <trkpt lat="39.645013874" lon="-0.457421578">
        <ele>190.00</ele>
        <time>2013-12-15T08:53:50Z</time>
      </trkpt>
      <trkpt lat="39.645217136" lon="-0.457618218">
        <ele>191.44</ele>
        <time>2013-12-15T08:53:59Z</time>
      </trkpt>
      <trkpt lat="39.645367004" lon="-0.457730535">
        <ele>191.92</ele>
        <time>2013-12-15T08:54:08Z</time>
      </trkpt>
      <trkpt lat="39.645524835" lon="-0.457748808">
        <ele>193.36</ele>
        <time>2013-12-15T08:54:17Z</time>
      </trkpt>
      <trkpt lat="39.645728935" lon="-0.457687033">
        <ele>192.40</ele>
        <time>2013-12-15T08:54:24Z</time>
      </trkpt>
      <trkpt lat="39.645847036" lon="-0.457569771">
        <ele>192.40</ele>
        <time>2013-12-15T08:54:28Z</time>
      </trkpt>
      <trkpt lat="39.646054236" lon="-0.457308087">
        <ele>191.92</ele>
        <time>2013-12-15T08:54:36Z</time>
      </trkpt>
      <trkpt lat="39.646346932" lon="-0.456993012">
        <ele>192.40</ele>
        <time>2013-12-15T08:54:46Z</time>
      </trkpt>
      <trkpt lat="39.646659158" lon="-0.456753876">
        <ele>192.88</ele>
        <time>2013-12-15T08:54:55Z</time>
      </trkpt>
      <trkpt lat="39.646963505" lon="-0.456428742">
        <ele>193.84</ele>
        <time>2013-12-15T08:55:05Z</time>
      </trkpt>
      <trkpt lat="39.647200629" lon="-0.456112158">
        <ele>193.84</ele>
        <time>2013-12-15T08:55:14Z</time>
      </trkpt>
      <trkpt lat="39.647396849" lon="-0.456182482">
        <ele>195.77</ele>
        <time>2013-12-15T08:55:20Z</time>
      </trkpt>
      <trkpt lat="39.647752075" lon="-0.456438130">
        <ele>196.73</ele>
        <time>2013-12-15T08:55:31Z</time>
      </trkpt>
      <trkpt lat="39.647996910" lon="-0.456495294">
        <ele>197.21</ele>
        <time>2013-12-15T08:55:38Z</time>
      </trkpt>
      <trkpt lat="39.648217941" lon="-0.456403177">
        <ele>199.13</ele>
        <time>2013-12-15T08:55:45Z</time>
      </trkpt>
      <trkpt lat="39.648483396" lon="-0.456108386">
        <ele>200.09</ele>
        <time>2013-12-15T08:55:55Z</time>
      </trkpt>
      <trkpt lat="39.648808111" lon="-0.455898419">
        <ele>201.05</ele>
        <time>2013-12-15T08:56:05Z</time>
      </trkpt>
      <trkpt lat="39.649129137" lon="-0.455780737">
        <ele>202.49</ele>
        <time>2013-12-15T08:56:14Z</time>
      </trkpt>
      <trkpt lat="39.649466677" lon="-0.455766069">
        <ele>202.98</ele>
        <time>2013-12-15T08:56:23Z</time>
      </trkpt>
      <trkpt lat="39.649829110" lon="-0.455927588">
        <ele>202.98</ele>
        <time>2013-12-15T08:56:32Z</time>
      </trkpt>
      <trkpt lat="39.650204871" lon="-0.456137387">
        <ele>203.94</ele>
        <time>2013-12-15T08:56:42Z</time>
      </trkpt>
      <trkpt lat="39.650468230" lon="-0.456213495">
        <ele>205.38</ele>
        <time>2013-12-15T08:56:50Z</time>
      </trkpt>
      <trkpt lat="39.650816834" lon="-0.456359005">
        <ele>205.38</ele>
        <time>2013-12-15T08:57:00Z</time>
      </trkpt>
      <trkpt lat="39.651169879" lon="-0.456515159">
        <ele>205.86</ele>
        <time>2013-12-15T08:57:10Z</time>
      </trkpt>
      <trkpt lat="39.651648654" lon="-0.456711045">
        <ele>206.82</ele>
        <time>2013-12-15T08:57:23Z</time>
      </trkpt>
      <trkpt lat="39.652035730" lon="-0.456901900">
        <ele>207.78</ele>
        <time>2013-12-15T08:57:34Z</time>
      </trkpt>
      <trkpt lat="39.652234213" lon="-0.456981445">
        <ele>208.74</ele>
        <time>2013-12-15T08:57:40Z</time>
      </trkpt>
      <trkpt lat="39.652524646" lon="-0.457096612">
        <ele>209.22</ele>
        <time>2013-12-15T08:57:49Z</time>
      </trkpt>
      <trkpt lat="39.652926391" lon="-0.457272716">
        <ele>209.22</ele>
        <time>2013-12-15T08:57:59Z</time>
      </trkpt>
      <trkpt lat="39.653230486" lon="-0.457385201">
        <ele>208.74</ele>
        <time>2013-12-15T08:58:06Z</time>
      </trkpt>
      <trkpt lat="39.653368704" lon="-0.457402635">
        <ele>208.74</ele>
        <time>2013-12-15T08:58:09Z</time>
      </trkpt>
      <trkpt lat="39.653636590" lon="-0.457512103">
        <ele>208.26</ele>
        <time>2013-12-15T08:58:15Z</time>
      </trkpt>
      <trkpt lat="39.653763408" lon="-0.457636239">
        <ele>209.70</ele>
        <time>2013-12-15T08:58:19Z</time>
      </trkpt>
      <trkpt lat="39.653901374" lon="-0.457807146">
        <ele>212.11</ele>
        <time>2013-12-15T08:58:25Z</time>
      </trkpt>
      <trkpt lat="39.654065575" lon="-0.457956847">
        <ele>214.03</ele>
        <time>2013-12-15T08:58:32Z</time>
      </trkpt>
      <trkpt lat="39.654285517" lon="-0.458109649">
        <ele>214.51</ele>
        <time>2013-12-15T08:58:40Z</time>
      </trkpt>
      <trkpt lat="39.654441336" lon="-0.458377115">
        <ele>214.51</ele>
        <time>2013-12-15T08:58:47Z</time>
      </trkpt>
      <trkpt lat="39.654484000" lon="-0.458711470">
        <ele>214.51</ele>
        <time>2013-12-15T08:58:54Z</time>
      </trkpt>
      <trkpt lat="39.654560862" lon="-0.458957311">
        <ele>214.51</ele>
        <time>2013-12-15T08:59:00Z</time>
      </trkpt>
      <trkpt lat="39.654655242" lon="-0.459169876">
        <ele>215.47</ele>
        <time>2013-12-15T08:59:06Z</time>
      </trkpt>
      <trkpt lat="39.654749203" lon="-0.459327204">
        <ele>214.03</ele>
        <time>2013-12-15T08:59:10Z</time>
      </trkpt>
      <trkpt lat="39.654942155" lon="-0.459428541">
        <ele>213.55</ele>
        <time>2013-12-15T08:59:15Z</time>
      </trkpt>
      <trkpt lat="39.655173915" lon="-0.459511606">
        <ele>212.59</ele>
        <time>2013-12-15T08:59:21Z</time>
      </trkpt>
      <trkpt lat="39.655410033" lon="-0.459696846">
        <ele>212.59</ele>
        <time>2013-12-15T08:59:27Z</time>
      </trkpt>
      <trkpt lat="39.655621005" lon="-0.459982082">
        <ele>213.07</ele>
        <time>2013-12-15T08:59:36Z</time>
      </trkpt>
      <trkpt lat="39.655633243" lon="-0.460003037">
        <ele>213.55</ele>
        <time>2013-12-15T08:59:37Z</time>
      </trkpt>
      <trkpt lat="39.655754613" lon="-0.460051820">
        <ele>215.47</ele>
        <time>2013-12-15T08:59:43Z</time>
      </trkpt>
      <trkpt lat="39.655973883" lon="-0.460063387">
        <ele>217.40</ele>
        <time>2013-12-15T08:59:50Z</time>
      </trkpt>
      <trkpt lat="39.656148981" lon="-0.460035978">
        <ele>217.88</ele>
        <time>2013-12-15T08:59:56Z</time>
      </trkpt>
      <trkpt lat="39.656365318" lon="-0.460001780">
        <ele>219.32</ele>
        <time>2013-12-15T09:00:03Z</time>
      </trkpt>
      <trkpt lat="39.656584254" lon="-0.459957439">
        <ele>221.24</ele>
        <time>2013-12-15T09:00:11Z</time>
      </trkpt>
      <trkpt lat="39.656737223" lon="-0.459997505">
        <ele>221.24</ele>
        <time>2013-12-15T09:00:18Z</time>
      </trkpt>
      <trkpt lat="39.656824982" lon="-0.460115857">
        <ele>222.68</ele>
        <time>2013-12-15T09:00:24Z</time>
      </trkpt>
      <trkpt lat="39.656949956" lon="-0.460275281">
        <ele>224.12</ele>
        <time>2013-12-15T09:00:33Z</time>
      </trkpt>
      <trkpt lat="39.657083815" lon="-0.460328842">
        <ele>226.05</ele>
        <time>2013-12-15T09:00:41Z</time>
      </trkpt>
      <trkpt lat="39.657203425" lon="-0.460394388">
        <ele>227.97</ele>
        <time>2013-12-15T09:00:49Z</time>
      </trkpt>
      <trkpt lat="39.657236449" lon="-0.460406458">
        <ele>228.45</ele>
        <time>2013-12-15T09:00:51Z</time>
      </trkpt>
      <trkpt lat="39.657342061" lon="-0.460461192">
        <ele>229.89</ele>
        <time>2013-12-15T09:00:58Z</time>
      </trkpt>
      <trkpt lat="39.657361675" lon="-0.460471669">
        <ele>229.89</ele>
        <time>2013-12-15T09:00:59Z</time>
      </trkpt>
      <trkpt lat="39.657378774" lon="-0.460479800">
        <ele>229.89</ele>
        <time>2013-12-15T09:01:00Z</time>
      </trkpt>
      <trkpt lat="39.657529565" lon="-0.460523050">
        <ele>231.81</ele>
        <time>2013-12-15T09:01:09Z</time>
      </trkpt>
      <trkpt lat="39.657676499" lon="-0.460498407">
        <ele>231.81</ele>
        <time>2013-12-15T09:01:17Z</time>
      </trkpt>
      <trkpt lat="39.657813376" lon="-0.460483823">
        <ele>233.26</ele>
        <time>2013-12-15T09:01:24Z</time>
      </trkpt>
      <trkpt lat="39.657972883" lon="-0.460444763">
        <ele>234.22</ele>
        <time>2013-12-15T09:01:32Z</time>
      </trkpt>
      <trkpt lat="39.658157201" lon="-0.460358094">
        <ele>235.66</ele>
        <time>2013-12-15T09:01:41Z</time>
      </trkpt>
      <trkpt lat="39.658384016" lon="-0.460329009">
        <ele>235.18</ele>
        <time>2013-12-15T09:01:50Z</time>
      </trkpt>
      <trkpt lat="39.658656511" lon="-0.460302439">
        <ele>236.62</ele>
        <time>2013-12-15T09:02:00Z</time>
      </trkpt>
      <trkpt lat="39.658862287" lon="-0.460269749">
        <ele>237.10</ele>
        <time>2013-12-15T09:02:08Z</time>
      </trkpt>
      <trkpt lat="39.659090778" lon="-0.460213926">
        <ele>237.10</ele>
        <time>2013-12-15T09:02:17Z</time>
      </trkpt>
      <trkpt lat="39.659278030" lon="-0.460146451">
        <ele>237.58</ele>
        <time>2013-12-15T09:02:25Z</time>
      </trkpt>
      <trkpt lat="39.659420857" lon="-0.460153995">
        <ele>238.54</ele>
        <time>2013-12-15T09:02:31Z</time>
      </trkpt>
      <trkpt lat="39.659572318" lon="-0.460268157">
        <ele>239.02</ele>
        <time>2013-12-15T09:02:39Z</time>
      </trkpt>
      <trkpt lat="39.659643900" lon="-0.460477872">
        <ele>239.99</ele>
        <time>2013-12-15T09:02:46Z</time>
      </trkpt>
      <trkpt lat="39.659693353" lon="-0.460750954">
        <ele>239.99</ele>
        <time>2013-12-15T09:02:54Z</time>
      </trkpt>
      <trkpt lat="39.659716235" lon="-0.460980618">
        <ele>239.51</ele>
        <time>2013-12-15T09:02:59Z</time>
      </trkpt>
      <trkpt lat="39.659733586" lon="-0.461104671">
        <ele>238.06</ele>
        <time>2013-12-15T09:03:01Z</time>
      </trkpt>
      <trkpt lat="39.659872558" lon="-0.461354954">
        <ele>237.58</ele>
        <time>2013-12-15T09:03:06Z</time>
      </trkpt>
      <trkpt lat="39.659906169" lon="-0.461365851">
        <ele>238.06</ele>
        <time>2013-12-15T09:03:07Z</time>
      </trkpt>
      <trkpt lat="39.660134995" lon="-0.461431313">
        <ele>239.51</ele>
        <time>2013-12-15T09:03:15Z</time>
      </trkpt>
      <trkpt lat="39.660434481" lon="-0.461508762">
        <ele>241.91</ele>
        <time>2013-12-15T09:03:26Z</time>
      </trkpt>
      <trkpt lat="39.660670515" lon="-0.461496525">
        <ele>243.35</ele>
        <time>2013-12-15T09:03:35Z</time>
      </trkpt>
      <trkpt lat="39.660819545" lon="-0.461454950">
        <ele>244.31</ele>
        <time>2013-12-15T09:03:42Z</time>
      </trkpt>
      <trkpt lat="39.660825580" lon="-0.461464338">
        <ele>243.35</ele>
        <time>2013-12-15T09:03:55Z</time>
      </trkpt>
      <trkpt lat="39.660844440" lon="-0.461448748">
        <ele>243.83</ele>
        <time>2013-12-15T09:04:07Z</time>
      </trkpt>
      <trkpt lat="39.660997493" lon="-0.461338526">
        <ele>244.31</ele>
        <time>2013-12-15T09:04:14Z</time>
      </trkpt>
      <trkpt lat="39.661163623" lon="-0.461193938">
        <ele>245.75</ele>
        <time>2013-12-15T09:04:21Z</time>
      </trkpt>
      <trkpt lat="39.661240568" lon="-0.461095786">
        <ele>246.23</ele>
        <time>2013-12-15T09:04:27Z</time>
      </trkpt>
      <trkpt lat="39.661240149" lon="-0.461095786">
        <ele>245.27</ele>
        <time>2013-12-15T09:04:37Z</time>
      </trkpt>
      <trkpt lat="39.661238976" lon="-0.461082878">
        <ele>245.27</ele>
        <time>2013-12-15T09:05:39Z</time>
      </trkpt>
      <trkpt lat="39.661230929" lon="-0.461094193">
        <ele>244.79</ele>
        <time>2013-12-15T09:06:55Z</time>
      </trkpt>
      <trkpt lat="39.661233611" lon="-0.461094948">
        <ele>244.79</ele>
        <time>2013-12-15T09:07:12Z</time>
      </trkpt>
      <trkpt lat="39.661246268" lon="-0.461090337">
        <ele>245.27</ele>
        <time>2013-12-15T09:07:33Z</time>
      </trkpt>
      <trkpt lat="39.661240149" lon="-0.461082039">
        <ele>244.79</ele>
        <time>2013-12-15T09:07:57Z</time>
      </trkpt>
      <trkpt lat="39.661235288" lon="-0.461085057">
        <ele>244.79</ele>
        <time>2013-12-15T09:11:16Z</time>
      </trkpt>
      <trkpt lat="39.661242161" lon="-0.461084135">
        <ele>244.31</ele>
        <time>2013-12-15T09:11:48Z</time>
      </trkpt>
      <trkpt lat="39.661244173" lon="-0.461079022">
        <ele>245.27</ele>
        <time>2013-12-15T09:12:04Z</time>
      </trkpt>
      <trkpt lat="39.661357077" lon="-0.461004088">
        <ele>244.79</ele>
        <time>2013-12-15T09:12:12Z</time>
      </trkpt>
      <trkpt lat="39.661555644" lon="-0.460967794">
        <ele>245.75</ele>
        <time>2013-12-15T09:12:20Z</time>
      </trkpt>
      <trkpt lat="39.661747841" lon="-0.460917670">
        <ele>246.72</ele>
        <time>2013-12-15T09:12:27Z</time>
      </trkpt>
      <trkpt lat="39.661913468" lon="-0.460899984">
        <ele>246.72</ele>
        <time>2013-12-15T09:12:33Z</time>
      </trkpt>
      <trkpt lat="39.662119495" lon="-0.460904762">
        <ele>248.16</ele>
        <time>2013-12-15T09:12:40Z</time>
      </trkpt>
      <trkpt lat="39.662309680" lon="-0.460784817">
        <ele>250.56</ele>
        <time>2013-12-15T09:12:48Z</time>
      </trkpt>
      <trkpt lat="39.662457202" lon="-0.460645761">
        <ele>251.04</ele>
        <time>2013-12-15T09:12:55Z</time>
      </trkpt>
      <trkpt lat="39.662616542" lon="-0.460567223">
        <ele>253.44</ele>
        <time>2013-12-15T09:13:03Z</time>
      </trkpt>
      <trkpt lat="39.662815025" lon="-0.460483991">
        <ele>254.41</ele>
        <time>2013-12-15T09:13:14Z</time>
      </trkpt>
      <trkpt lat="39.662978556" lon="-0.460450379">
        <ele>256.33</ele>
        <time>2013-12-15T09:13:22Z</time>
      </trkpt>
      <trkpt lat="39.663146278" lon="-0.460381815">
        <ele>256.33</ele>
        <time>2013-12-15T09:13:30Z</time>
      </trkpt>
      <trkpt lat="39.663327830" lon="-0.460264804">
        <ele>255.85</ele>
        <time>2013-12-15T09:13:38Z</time>
      </trkpt>
      <trkpt lat="39.663488343" lon="-0.460110744">
        <ele>255.85</ele>
        <time>2013-12-15T09:13:44Z</time>
      </trkpt>
      <trkpt lat="39.663525224" lon="-0.460092807">
        <ele>255.37</ele>
        <time>2013-12-15T09:13:45Z</time>
      </trkpt>
      <trkpt lat="39.663692778" lon="-0.460093562">
        <ele>254.41</ele>
        <time>2013-12-15T09:13:49Z</time>
      </trkpt>
      <trkpt lat="39.663983881" lon="-0.460151900">
        <ele>254.89</ele>
        <time>2013-12-15T09:13:57Z</time>
      </trkpt>
      <trkpt lat="39.664123440" lon="-0.460109822">
        <ele>254.41</ele>
        <time>2013-12-15T09:14:01Z</time>
      </trkpt>
      <trkpt lat="39.664395852" lon="-0.460122563">
        <ele>253.44</ele>
        <time>2013-12-15T09:14:08Z</time>
      </trkpt>
      <trkpt lat="39.664683435" lon="-0.460286178">
        <ele>253.44</ele>
        <time>2013-12-15T09:14:16Z</time>
      </trkpt>
      <trkpt lat="39.664720483" lon="-0.460317610">
        <ele>253.44</ele>
        <time>2013-12-15T09:14:17Z</time>
      </trkpt>
      <trkpt lat="39.664897509" lon="-0.460452810">
        <ele>251.52</ele>
        <time>2013-12-15T09:14:21Z</time>
      </trkpt>
      <trkpt lat="39.664980238" lon="-0.460521542">
        <ele>252.48</ele>
        <time>2013-12-15T09:14:23Z</time>
      </trkpt>
      <trkpt lat="39.665050311" lon="-0.460600080">
        <ele>251.52</ele>
        <time>2013-12-15T09:14:25Z</time>
      </trkpt>
      <trkpt lat="39.665118540" lon="-0.460793702">
        <ele>252.00</ele>
        <time>2013-12-15T09:14:29Z</time>
      </trkpt>
      <trkpt lat="39.665210070" lon="-0.461092433">
        <ele>252.00</ele>
        <time>2013-12-15T09:14:36Z</time>
      </trkpt>
      <trkpt lat="39.665422635" lon="-0.461230064">
        <ele>252.00</ele>
        <time>2013-12-15T09:14:42Z</time>
      </trkpt>
      <trkpt lat="39.665703010" lon="-0.461335508">
        <ele>251.04</ele>
        <time>2013-12-15T09:14:49Z</time>
      </trkpt>
      <trkpt lat="39.665753050" lon="-0.461350679">
        <ele>251.04</ele>
        <time>2013-12-15T09:14:50Z</time>
      </trkpt>
      <trkpt lat="39.665981289" lon="-0.461474396">
        <ele>250.56</ele>
        <time>2013-12-15T09:14:55Z</time>
      </trkpt>
      <trkpt lat="39.666111711" lon="-0.461628204">
        <ele>251.52</ele>
        <time>2013-12-15T09:14:59Z</time>
      </trkpt>
      <trkpt lat="39.666245738" lon="-0.461834818">
        <ele>250.56</ele>
        <time>2013-12-15T09:15:04Z</time>
      </trkpt>
      <trkpt lat="39.666372808" lon="-0.461975802">
        <ele>251.52</ele>
        <time>2013-12-15T09:15:08Z</time>
      </trkpt>
      <trkpt lat="39.666627366" lon="-0.462261122">
        <ele>252.96</ele>
        <time>2013-12-15T09:15:17Z</time>
      </trkpt>
      <trkpt lat="39.666811097" lon="-0.462309904">
        <ele>254.41</ele>
        <time>2013-12-15T09:15:23Z</time>
      </trkpt>
      <trkpt lat="39.666884020" lon="-0.462352820">
        <ele>254.41</ele>
        <time>2013-12-15T09:15:25Z</time>
      </trkpt>
      <trkpt lat="39.667057358" lon="-0.462592710">
        <ele>255.37</ele>
        <time>2013-12-15T09:15:31Z</time>
      </trkpt>
      <trkpt lat="39.667245783" lon="-0.462688347">
        <ele>256.33</ele>
        <time>2013-12-15T09:15:37Z</time>
      </trkpt>
      <trkpt lat="39.667507298" lon="-0.462728078">
        <ele>256.33</ele>
        <time>2013-12-15T09:15:44Z</time>
      </trkpt>
      <trkpt lat="39.667752469" lon="-0.462807454">
        <ele>257.77</ele>
        <time>2013-12-15T09:15:51Z</time>
      </trkpt>
      <trkpt lat="39.667903092" lon="-0.463006524">
        <ele>258.73</ele>
        <time>2013-12-15T09:15:57Z</time>
      </trkpt>
      <trkpt lat="39.668032257" lon="-0.463271979">
        <ele>259.21</ele>
        <time>2013-12-15T09:16:04Z</time>
      </trkpt>
      <trkpt lat="39.668187490" lon="-0.463391589">
        <ele>260.65</ele>
        <time>2013-12-15T09:16:11Z</time>
      </trkpt>
      <trkpt lat="39.668329731" lon="-0.463473732">
        <ele>261.62</ele>
        <time>2013-12-15T09:16:18Z</time>
      </trkpt>
      <trkpt lat="39.668560065" lon="-0.463600466">
        <ele>264.02</ele>
        <time>2013-12-15T09:16:27Z</time>
      </trkpt>
      <trkpt lat="39.668737175" lon="-0.463712364">
        <ele>264.02</ele>
        <time>2013-12-15T09:16:34Z</time>
      </trkpt>
      <trkpt lat="39.668917386" lon="-0.463889558">
        <ele>264.50</ele>
        <time>2013-12-15T09:16:42Z</time>
      </trkpt>
      <trkpt lat="39.669132717" lon="-0.464037498">
        <ele>264.98</ele>
        <time>2013-12-15T09:16:50Z</time>
      </trkpt>
      <trkpt lat="39.669296667" lon="-0.464074714">
        <ele>264.98</ele>
        <time>2013-12-15T09:16:56Z</time>
      </trkpt>
      <trkpt lat="39.669516524" lon="-0.464003803">
        <ele>265.94</ele>
        <time>2013-12-15T09:17:04Z</time>
      </trkpt>
      <trkpt lat="39.669682235" lon="-0.463911854">
        <ele>267.38</ele>
        <time>2013-12-15T09:17:11Z</time>
      </trkpt>
      <trkpt lat="39.669826319" lon="-0.463902801">
        <ele>268.35</ele>
        <time>2013-12-15T09:17:18Z</time>
      </trkpt>
      <trkpt lat="39.669965459" lon="-0.463927193">
        <ele>270.27</ele>
        <time>2013-12-15T09:17:25Z</time>
      </trkpt>
      <trkpt lat="39.670143994" lon="-0.464030039">
        <ele>270.75</ele>
        <time>2013-12-15T09:17:33Z</time>
      </trkpt>
      <trkpt lat="39.670345159" lon="-0.464153001">
        <ele>272.19</ele>
        <time>2013-12-15T09:17:43Z</time>
      </trkpt>
      <trkpt lat="39.670521850" lon="-0.464277221">
        <ele>273.63</ele>
        <time>2013-12-15T09:17:52Z</time>
      </trkpt>
      <trkpt lat="39.670711365" lon="-0.464389622">
        <ele>274.11</ele>
        <time>2013-12-15T09:18:00Z</time>
      </trkpt>
      <trkpt lat="39.670911944" lon="-0.464483248">
        <ele>276.52</ele>
        <time>2013-12-15T09:18:09Z</time>
      </trkpt>
      <trkpt lat="39.671080001" lon="-0.464540999">
        <ele>277.00</ele>
        <time>2013-12-15T09:18:17Z</time>
      </trkpt>
      <trkpt lat="39.671296505" lon="-0.464587016">
        <ele>276.52</ele>
        <time>2013-12-15T09:18:27Z</time>
      </trkpt>
      <trkpt lat="39.671433382" lon="-0.464628506">
        <ele>277.96</ele>
        <time>2013-12-15T09:18:34Z</time>
      </trkpt>
      <trkpt lat="39.671647456" lon="-0.464742500">
        <ele>278.44</ele>
        <time>2013-12-15T09:18:43Z</time>
      </trkpt>
      <trkpt lat="39.671859182" lon="-0.464775357">
        <ele>279.88</ele>
        <time>2013-12-15T09:18:52Z</time>
      </trkpt>
      <trkpt lat="39.671974853" lon="-0.464917431">
        <ele>280.84</ele>
        <time>2013-12-15T09:18:59Z</time>
      </trkpt>
      <trkpt lat="39.672114160" lon="-0.465120524">
        <ele>281.32</ele>
        <time>2013-12-15T09:19:07Z</time>
      </trkpt>
      <trkpt lat="39.672289593" lon="-0.465302076">
        <ele>281.80</ele>
        <time>2013-12-15T09:19:16Z</time>
      </trkpt>
      <trkpt lat="39.672420602" lon="-0.465453118">
        <ele>282.77</ele>
        <time>2013-12-15T09:19:23Z</time>
      </trkpt>
      <trkpt lat="39.672569130" lon="-0.465682447">
        <ele>283.25</ele>
        <time>2013-12-15T09:19:32Z</time>
      </trkpt>
      <trkpt lat="39.672605256" lon="-0.465912698">
        <ele>284.69</ele>
        <time>2013-12-15T09:19:39Z</time>
      </trkpt>
      <trkpt lat="39.672598550" lon="-0.466148565">
        <ele>285.65</ele>
        <time>2013-12-15T09:19:47Z</time>
      </trkpt>
      <trkpt lat="39.672506433" lon="-0.466287788">
        <ele>287.09</ele>
        <time>2013-12-15T09:19:53Z</time>
      </trkpt>
      <trkpt lat="39.672442731" lon="-0.466389544">
        <ele>287.09</ele>
        <time>2013-12-15T09:19:58Z</time>
      </trkpt>
      <trkpt lat="39.672493022" lon="-0.466561206">
        <ele>289.01</ele>
        <time>2013-12-15T09:20:05Z</time>
      </trkpt>
      <trkpt lat="39.672627216" lon="-0.466800258">
        <ele>289.97</ele>
        <time>2013-12-15T09:20:14Z</time>
      </trkpt>
      <trkpt lat="39.672782365" lon="-0.466979211">
        <ele>289.49</ele>
        <time>2013-12-15T09:20:22Z</time>
      </trkpt>
      <trkpt lat="39.672902394" lon="-0.467034029">
        <ele>289.49</ele>
        <time>2013-12-15T09:20:27Z</time>
      </trkpt>
      <trkpt lat="39.673106242" lon="-0.467015924">
        <ele>289.49</ele>
        <time>2013-12-15T09:20:35Z</time>
      </trkpt>
      <trkpt lat="39.673387874" lon="-0.467104604">
        <ele>289.49</ele>
        <time>2013-12-15T09:20:44Z</time>
      </trkpt>
      <trkpt lat="39.673581496" lon="-0.467183059">
        <ele>288.53</ele>
        <time>2013-12-15T09:20:49Z</time>
      </trkpt>
      <trkpt lat="39.673946360" lon="-0.467447005">
        <ele>287.09</ele>
        <time>2013-12-15T09:20:59Z</time>
      </trkpt>
      <trkpt lat="39.674219778" lon="-0.467635849">
        <ele>286.61</ele>
        <time>2013-12-15T09:21:08Z</time>
      </trkpt>
      <trkpt lat="39.674472744" lon="-0.467741126">
        <ele>287.57</ele>
        <time>2013-12-15T09:21:16Z</time>
      </trkpt>
      <trkpt lat="39.674674915" lon="-0.467812708">
        <ele>288.05</ele>
        <time>2013-12-15T09:21:23Z</time>
      </trkpt>
      <trkpt lat="39.674911872" lon="-0.467849420">
        <ele>289.01</ele>
        <time>2013-12-15T09:21:31Z</time>
      </trkpt>
      <trkpt lat="39.675008180" lon="-0.467743138">
        <ele>289.01</ele>
        <time>2013-12-15T09:21:36Z</time>
      </trkpt>
      <trkpt lat="39.675113708" lon="-0.467528226">
        <ele>289.49</ele>
        <time>2013-12-15T09:21:43Z</time>
      </trkpt>
      <trkpt lat="39.675272126" lon="-0.467244834">
        <ele>288.53</ele>
        <time>2013-12-15T09:21:51Z</time>
      </trkpt>
      <trkpt lat="39.675370697" lon="-0.467085242">
        <ele>288.53</ele>
        <time>2013-12-15T09:21:57Z</time>
      </trkpt>
      <trkpt lat="39.675488546" lon="-0.466889525">
        <ele>286.61</ele>
        <time>2013-12-15T09:22:03Z</time>
      </trkpt>
      <trkpt lat="39.675596924" lon="-0.466735130">
        <ele>285.65</ele>
        <time>2013-12-15T09:22:08Z</time>
      </trkpt>
      <trkpt lat="39.675622825" lon="-0.466548046">
        <ele>286.61</ele>
        <time>2013-12-15T09:22:13Z</time>
      </trkpt>
      <trkpt lat="39.675626932" lon="-0.466371104">
        <ele>288.05</ele>
        <time>2013-12-15T09:22:19Z</time>
      </trkpt>
      <trkpt lat="39.675618801" lon="-0.466141859">
        <ele>289.97</ele>
        <time>2013-12-15T09:22:27Z</time>
      </trkpt>
      <trkpt lat="39.675626513" lon="-0.465955781">
        <ele>292.38</ele>
        <time>2013-12-15T09:22:34Z</time>
      </trkpt>
      <trkpt lat="39.675629865" lon="-0.465747993">
        <ele>293.82</ele>
        <time>2013-12-15T09:22:41Z</time>
      </trkpt>
      <trkpt lat="39.675645120" lon="-0.465476336">
        <ele>296.22</ele>
        <time>2013-12-15T09:22:51Z</time>
      </trkpt>
      <trkpt lat="39.675686192" lon="-0.465183472">
        <ele>298.63</ele>
        <time>2013-12-15T09:23:01Z</time>
      </trkpt>
      <trkpt lat="39.675779231" lon="-0.464980882">
        <ele>298.63</ele>
        <time>2013-12-15T09:23:08Z</time>
      </trkpt>
      <trkpt lat="39.675968913" lon="-0.464859596">
        <ele>298.15</ele>
        <time>2013-12-15T09:23:15Z</time>
      </trkpt>
      <trkpt lat="39.676314415" lon="-0.464742417">
        <ele>298.63</ele>
        <time>2013-12-15T09:23:27Z</time>
      </trkpt>
      <trkpt lat="39.676494626" lon="-0.464689527">
        <ele>300.07</ele>
        <time>2013-12-15T09:23:34Z</time>
      </trkpt>
      <trkpt lat="39.676656313" lon="-0.464630015">
        <ele>301.03</ele>
        <time>2013-12-15T09:23:41Z</time>
      </trkpt>
      <trkpt lat="39.676899388" lon="-0.464546196">
        <ele>301.03</ele>
        <time>2013-12-15T09:23:50Z</time>
      </trkpt>
      <trkpt lat="39.677132824" lon="-0.464482578">
        <ele>301.03</ele>
        <time>2013-12-15T09:23:59Z</time>
      </trkpt>
      <trkpt lat="39.677272048" lon="-0.464305300">
        <ele>300.07</ele>
        <time>2013-12-15T09:24:05Z</time>
      </trkpt>
      <trkpt lat="39.677321920" lon="-0.464081001">
        <ele>300.55</ele>
        <time>2013-12-15T09:24:11Z</time>
      </trkpt>
      <trkpt lat="39.677296355" lon="-0.463881847">
        <ele>301.99</ele>
        <time>2013-12-15T09:24:18Z</time>
      </trkpt>
      <trkpt lat="39.677364165" lon="-0.463680765">
        <ele>302.47</ele>
        <time>2013-12-15T09:24:25Z</time>
      </trkpt>
      <trkpt lat="39.677534485" lon="-0.463443808">
        <ele>301.51</ele>
        <time>2013-12-15T09:24:32Z</time>
      </trkpt>
      <trkpt lat="39.677696424" lon="-0.463137450">
        <ele>301.99</ele>
        <time>2013-12-15T09:24:40Z</time>
      </trkpt>
      <trkpt lat="39.677792061" lon="-0.462984983">
        <ele>303.43</ele>
        <time>2013-12-15T09:24:46Z</time>
      </trkpt>
      <trkpt lat="39.677811004" lon="-0.462968554">
        <ele>303.43</ele>
        <time>2013-12-15T09:24:47Z</time>
      </trkpt>
      <trkpt lat="39.677957436" lon="-0.462860428">
        <ele>303.91</ele>
        <time>2013-12-15T09:24:54Z</time>
      </trkpt>
      <trkpt lat="39.678180981" lon="-0.462660100">
        <ele>304.39</ele>
        <time>2013-12-15T09:25:03Z</time>
      </trkpt>
      <trkpt lat="39.678337723" lon="-0.462413253">
        <ele>304.88</ele>
        <time>2013-12-15T09:25:11Z</time>
      </trkpt>
      <trkpt lat="39.678444173" lon="-0.462164143">
        <ele>304.88</ele>
        <time>2013-12-15T09:25:18Z</time>
      </trkpt>
      <trkpt lat="39.678567052" lon="-0.461880332">
        <ele>305.36</ele>
        <time>2013-12-15T09:25:27Z</time>
      </trkpt>
      <trkpt lat="39.678618349" lon="-0.461531729">
        <ele>307.76</ele>
        <time>2013-12-15T09:25:38Z</time>
      </trkpt>
      <trkpt lat="39.678596137" lon="-0.461299969">
        <ele>309.68</ele>
        <time>2013-12-15T09:25:46Z</time>
      </trkpt>
      <trkpt lat="39.678661851" lon="-0.461154208">
        <ele>312.09</ele>
        <time>2013-12-15T09:25:53Z</time>
      </trkpt>
      <trkpt lat="39.678667719" lon="-0.461128308">
        <ele>311.60</ele>
        <time>2013-12-15T09:25:54Z</time>
      </trkpt>
      <trkpt lat="39.678722955" lon="-0.460928399">
        <ele>312.57</ele>
        <time>2013-12-15T09:26:02Z</time>
      </trkpt>
      <trkpt lat="39.678740054" lon="-0.460857991">
        <ele>313.53</ele>
        <time>2013-12-15T09:26:05Z</time>
      </trkpt>
      <trkpt lat="39.678793615" lon="-0.460689012">
        <ele>314.01</ele>
        <time>2013-12-15T09:26:12Z</time>
      </trkpt>
      <trkpt lat="39.678866286" lon="-0.460468233">
        <ele>314.49</ele>
        <time>2013-12-15T09:26:20Z</time>
      </trkpt>
      <trkpt lat="39.678918924" lon="-0.460286848">
        <ele>316.41</ele>
        <time>2013-12-15T09:26:27Z</time>
      </trkpt>
      <trkpt lat="39.679009281" lon="-0.460113008">
        <ele>317.37</ele>
        <time>2013-12-15T09:26:35Z</time>
      </trkpt>
      <trkpt lat="39.679094693" lon="-0.459948136">
        <ele>319.30</ele>
        <time>2013-12-15T09:26:43Z</time>
      </trkpt>
      <trkpt lat="39.679208016" lon="-0.459879488">
        <ele>321.22</ele>
        <time>2013-12-15T09:26:50Z</time>
      </trkpt>
      <trkpt lat="39.679333493" lon="-0.459738839">
        <ele>322.66</ele>
        <time>2013-12-15T09:26:57Z</time>
      </trkpt>
      <trkpt lat="39.679402309" lon="-0.459520239">
        <ele>324.10</ele>
        <time>2013-12-15T09:27:05Z</time>
      </trkpt>
      <trkpt lat="39.679403733" lon="-0.459328964">
        <ele>325.06</ele>
        <time>2013-12-15T09:27:13Z</time>
      </trkpt>
      <trkpt lat="39.679423934" lon="-0.459216563">
        <ele>326.02</ele>
        <time>2013-12-15T09:27:18Z</time>
      </trkpt>
      <trkpt lat="39.679423515" lon="-0.459185718">
        <ele>326.50</ele>
        <time>2013-12-15T09:27:20Z</time>
      </trkpt>
      <trkpt lat="39.679471375" lon="-0.459087901">
        <ele>327.47</ele>
        <time>2013-12-15T09:27:26Z</time>
      </trkpt>
      <trkpt lat="39.679500209" lon="-0.459021181">
        <ele>328.43</ele>
        <time>2013-12-15T09:27:29Z</time>
      </trkpt>
      <trkpt lat="39.679517224" lon="-0.458824541">
        <ele>329.87</ele>
        <time>2013-12-15T09:27:36Z</time>
      </trkpt>
      <trkpt lat="39.679510854" lon="-0.458584484">
        <ele>329.87</ele>
        <time>2013-12-15T09:27:45Z</time>
      </trkpt>
      <trkpt lat="39.679543041" lon="-0.458394298">
        <ele>330.35</ele>
        <time>2013-12-15T09:27:53Z</time>
      </trkpt>
      <trkpt lat="39.679610012" lon="-0.458223643">
        <ele>330.83</ele>
        <time>2013-12-15T09:28:01Z</time>
      </trkpt>
      <trkpt lat="39.679640522" lon="-0.458021387">
        <ele>332.27</ele>
        <time>2013-12-15T09:28:09Z</time>
      </trkpt>
      <trkpt lat="39.679640941" lon="-0.457872441">
        <ele>332.27</ele>
        <time>2013-12-15T09:28:15Z</time>
      </trkpt>
      <trkpt lat="39.679730292" lon="-0.457685441">
        <ele>333.71</ele>
        <time>2013-12-15T09:28:24Z</time>
      </trkpt>
      <trkpt lat="39.679832971" lon="-0.457559964">
        <ele>333.71</ele>
        <time>2013-12-15T09:28:30Z</time>
      </trkpt>
      <trkpt lat="39.679930955" lon="-0.457446221">
        <ele>335.16</ele>
        <time>2013-12-15T09:28:37Z</time>
      </trkpt>
      <trkpt lat="39.680024832" lon="-0.457286546">
        <ele>336.60</ele>
        <time>2013-12-15T09:28:45Z</time>
      </trkpt>
      <trkpt lat="39.680062383" lon="-0.457247319">
        <ele>336.60</ele>
        <time>2013-12-15T09:28:47Z</time>
      </trkpt>
      <trkpt lat="39.680219963" lon="-0.457307920">
        <ele>336.12</ele>
        <time>2013-12-15T09:28:53Z</time>
      </trkpt>
      <trkpt lat="39.680283330" lon="-0.457291743">
        <ele>335.64</ele>
        <time>2013-12-15T09:28:57Z</time>
      </trkpt>
      <trkpt lat="39.680384248" lon="-0.457156962">
        <ele>337.08</ele>
        <time>2013-12-15T09:29:04Z</time>
      </trkpt>
      <trkpt lat="39.680506205" lon="-0.457039448">
        <ele>337.08</ele>
        <time>2013-12-15T09:29:11Z</time>
      </trkpt>
      <trkpt lat="39.680609386" lon="-0.456891088">
        <ele>338.52</ele>
        <time>2013-12-15T09:29:19Z</time>
      </trkpt>
      <trkpt lat="39.680712987" lon="-0.456730155">
        <ele>340.44</ele>
        <time>2013-12-15T09:29:27Z</time>
      </trkpt>
      <trkpt lat="39.680830585" lon="-0.456614485">
        <ele>341.41</ele>
        <time>2013-12-15T09:29:34Z</time>
      </trkpt>
      <trkpt lat="39.680844331" lon="-0.456598643">
        <ele>342.37</ele>
        <time>2013-12-15T09:29:35Z</time>
      </trkpt>
      <trkpt lat="39.680873835" lon="-0.456436034">
        <ele>343.81</ele>
        <time>2013-12-15T09:29:43Z</time>
      </trkpt>
      <trkpt lat="39.680879787" lon="-0.456359256">
        <ele>357.75</ele>
        <time>2013-12-15T09:40:43Z</time>
      </trkpt>
      <trkpt lat="39.680880457" lon="-0.456333272">
        <ele>358.23</ele>
        <time>2013-12-15T09:40:45Z</time>
      </trkpt>
      <trkpt lat="39.680877440" lon="-0.456195055">
        <ele>359.67</ele>
        <time>2013-12-15T09:40:53Z</time>
      </trkpt>
      <trkpt lat="39.680869812" lon="-0.456110984">
        <ele>360.15</ele>
        <time>2013-12-15T09:40:57Z</time>
      </trkpt>
      <trkpt lat="39.680871321" lon="-0.456072092">
        <ele>361.11</ele>
        <time>2013-12-15T09:40:59Z</time>
      </trkpt>
      <trkpt lat="39.680876015" lon="-0.455985172">
        <ele>361.59</ele>
        <time>2013-12-15T09:41:03Z</time>
      </trkpt>
      <trkpt lat="39.680849360" lon="-0.455862544">
        <ele>362.55</ele>
        <time>2013-12-15T09:41:09Z</time>
      </trkpt>
      <trkpt lat="39.680770403" lon="-0.455693146">
        <ele>363.52</ele>
        <time>2013-12-15T09:41:18Z</time>
      </trkpt>
      <trkpt lat="39.680745928" lon="-0.455615278">
        <ele>363.04</ele>
        <time>2013-12-15T09:41:25Z</time>
      </trkpt>
      <trkpt lat="39.680736205" lon="-0.455589630">
        <ele>363.52</ele>
        <time>2013-12-15T09:41:27Z</time>
      </trkpt>
      <trkpt lat="39.680663450" lon="-0.455465829">
        <ele>364.48</ele>
        <time>2013-12-15T09:41:36Z</time>
      </trkpt>
      <trkpt lat="39.680605112" lon="-0.455384022">
        <ele>365.92</ele>
        <time>2013-12-15T09:41:42Z</time>
      </trkpt>
      <trkpt lat="39.680588013" lon="-0.455340017">
        <ele>366.88</ele>
        <time>2013-12-15T09:41:44Z</time>
      </trkpt>
      <trkpt lat="39.680580804" lon="-0.455290899">
        <ele>366.88</ele>
        <time>2013-12-15T09:41:46Z</time>
      </trkpt>
      <trkpt lat="39.680688679" lon="-0.455139438">
        <ele>369.28</ele>
        <time>2013-12-15T09:41:53Z</time>
      </trkpt>
      <trkpt lat="39.680702928" lon="-0.455088560">
        <ele>370.24</ele>
        <time>2013-12-15T09:41:55Z</time>
      </trkpt>
      <trkpt lat="39.680647776" lon="-0.454881694">
        <ele>371.21</ele>
        <time>2013-12-15T09:42:03Z</time>
      </trkpt>
      <trkpt lat="39.680523388" lon="-0.454691676">
        <ele>373.13</ele>
        <time>2013-12-15T09:42:11Z</time>
      </trkpt>
      <trkpt lat="39.680513162" lon="-0.454664351">
        <ele>373.61</ele>
        <time>2013-12-15T09:42:12Z</time>
      </trkpt>
      <trkpt lat="39.680591114" lon="-0.454479614">
        <ele>374.57</ele>
        <time>2013-12-15T09:42:20Z</time>
      </trkpt>
      <trkpt lat="39.680609135" lon="-0.454461426">
        <ele>375.05</ele>
        <time>2013-12-15T09:42:21Z</time>
      </trkpt>
      <trkpt lat="39.680771073" lon="-0.454339553">
        <ele>376.01</ele>
        <time>2013-12-15T09:42:30Z</time>
      </trkpt>
      <trkpt lat="39.680826310" lon="-0.454323627">
        <ele>376.49</ele>
        <time>2013-12-15T09:43:03Z</time>
      </trkpt>
      <trkpt lat="39.680855144" lon="-0.454340642">
        <ele>376.49</ele>
        <time>2013-12-15T09:43:06Z</time>
      </trkpt>
      <trkpt lat="39.680948518" lon="-0.454452457">
        <ele>374.57</ele>
        <time>2013-12-15T09:43:11Z</time>
      </trkpt>
      <trkpt lat="39.681051448" lon="-0.454460755">
        <ele>373.13</ele>
        <time>2013-12-15T09:43:14Z</time>
      </trkpt>
      <trkpt lat="39.681228558" lon="-0.454304852">
        <ele>371.21</ele>
        <time>2013-12-15T09:43:18Z</time>
      </trkpt>
      <trkpt lat="39.681476746" lon="-0.454180464">
        <ele>370.24</ele>
        <time>2013-12-15T09:43:23Z</time>
      </trkpt>
      <trkpt lat="39.681636170" lon="-0.454196641">
        <ele>370.73</ele>
        <time>2013-12-15T09:43:26Z</time>
      </trkpt>
      <trkpt lat="39.681828786" lon="-0.454272246">
        <ele>372.65</ele>
        <time>2013-12-15T09:43:33Z</time>
      </trkpt>
      <trkpt lat="39.681974128" lon="-0.454316000">
        <ele>373.13</ele>
        <time>2013-12-15T09:43:40Z</time>
      </trkpt>
      <trkpt lat="39.682153920" lon="-0.454369225">
        <ele>376.01</ele>
        <time>2013-12-15T09:43:49Z</time>
      </trkpt>
      <trkpt lat="39.682263052" lon="-0.454391018">
        <ele>376.97</ele>
        <time>2013-12-15T09:43:54Z</time>
      </trkpt>
      <trkpt lat="39.682386937" lon="-0.454278616">
        <ele>378.90</ele>
        <time>2013-12-15T09:44:01Z</time>
      </trkpt>
      <trkpt lat="39.682390038" lon="-0.454228073">
        <ele>379.86</ele>
        <time>2013-12-15T09:44:04Z</time>
      </trkpt>
      <trkpt lat="39.682338322" lon="-0.454072254">
        <ele>381.30</ele>
        <time>2013-12-15T09:44:13Z</time>
      </trkpt>
      <trkpt lat="39.682321809" lon="-0.453927331">
        <ele>383.22</ele>
        <time>2013-12-15T09:44:21Z</time>
      </trkpt>
      <trkpt lat="39.682325749" lon="-0.453778468">
        <ele>385.63</ele>
        <time>2013-12-15T09:44:29Z</time>
      </trkpt>
      <trkpt lat="39.682389451" lon="-0.453701857">
        <ele>387.55</ele>
        <time>2013-12-15T09:44:35Z</time>
      </trkpt>
      <trkpt lat="39.682530686" lon="-0.453635808">
        <ele>386.59</ele>
        <time>2013-12-15T09:44:42Z</time>
      </trkpt>
      <trkpt lat="39.682677705" lon="-0.453505805">
        <ele>386.11</ele>
        <time>2013-12-15T09:44:48Z</time>
      </trkpt>
      <trkpt lat="39.682749538" lon="-0.453446629">
        <ele>385.15</ele>
        <time>2013-12-15T09:44:50Z</time>
      </trkpt>
      <trkpt lat="39.682833105" lon="-0.453341771">
        <ele>385.63</ele>
        <time>2013-12-15T09:44:53Z</time>
      </trkpt>
      <trkpt lat="39.683028739" lon="-0.453165080">
        <ele>385.63</ele>
        <time>2013-12-15T09:45:00Z</time>
      </trkpt>
      <trkpt lat="39.683197299" lon="-0.453012027">
        <ele>387.55</ele>
        <time>2013-12-15T09:45:08Z</time>
      </trkpt>
      <trkpt lat="39.683348425" lon="-0.452887472">
        <ele>389.95</ele>
        <time>2013-12-15T09:45:16Z</time>
      </trkpt>
      <trkpt lat="39.683456803" lon="-0.452752188">
        <ele>392.84</ele>
        <time>2013-12-15T09:45:24Z</time>
      </trkpt>
      <trkpt lat="39.683617400" lon="-0.452698879">
        <ele>393.80</ele>
        <time>2013-12-15T09:45:33Z</time>
      </trkpt>
      <trkpt lat="39.683636511" lon="-0.452695275">
        <ele>392.84</ele>
        <time>2013-12-15T09:45:34Z</time>
      </trkpt>
      <trkpt lat="39.683803646" lon="-0.452573150">
        <ele>396.68</ele>
        <time>2013-12-15T09:45:45Z</time>
      </trkpt>
      <trkpt lat="39.683929039" lon="-0.452482961">
        <ele>397.64</ele>
        <time>2013-12-15T09:45:54Z</time>
      </trkpt>
      <trkpt lat="39.684071783" lon="-0.452371817">
        <ele>399.08</ele>
        <time>2013-12-15T09:46:04Z</time>
      </trkpt>
      <trkpt lat="39.684206480" lon="-0.452294033">
        <ele>400.53</ele>
        <time>2013-12-15T09:46:12Z</time>
      </trkpt>
      <trkpt lat="39.684358360" lon="-0.452152463">
        <ele>401.01</ele>
        <time>2013-12-15T09:46:22Z</time>
      </trkpt>
      <trkpt lat="39.684483754" lon="-0.452060513">
        <ele>401.97</ele>
        <time>2013-12-15T09:46:30Z</time>
      </trkpt>
      <trkpt lat="39.684643848" lon="-0.452044001">
        <ele>402.45</ele>
        <time>2013-12-15T09:46:38Z</time>
      </trkpt>
      <trkpt lat="39.684722470" lon="-0.452024639">
        <ele>404.37</ele>
        <time>2013-12-15T09:46:43Z</time>
      </trkpt>
      <trkpt lat="39.684722302" lon="-0.451912908">
        <ele>405.81</ele>
        <time>2013-12-15T09:46:51Z</time>
      </trkpt>
      <trkpt lat="39.684569752" lon="-0.451907460">
        <ele>405.81</ele>
        <time>2013-12-15T09:46:59Z</time>
      </trkpt>
      <trkpt lat="39.684530273" lon="-0.451901508">
        <ele>406.29</ele>
        <time>2013-12-15T09:47:01Z</time>
      </trkpt>
      <trkpt lat="39.684384177" lon="-0.451913076">
        <ele>407.74</ele>
        <time>2013-12-15T09:47:09Z</time>
      </trkpt>
      <trkpt lat="39.684237912" lon="-0.451967139">
        <ele>408.70</ele>
        <time>2013-12-15T09:47:17Z</time>
      </trkpt>
      <trkpt lat="39.684097599" lon="-0.451992285">
        <ele>410.14</ele>
        <time>2013-12-15T09:47:25Z</time>
      </trkpt>
      <trkpt lat="39.683967596" lon="-0.452024220">
        <ele>410.62</ele>
        <time>2013-12-15T09:47:34Z</time>
      </trkpt>
      <trkpt lat="39.683856703" lon="-0.452042324">
        <ele>411.58</ele>
        <time>2013-12-15T09:47:42Z</time>
      </trkpt>
      <trkpt lat="39.683747906" lon="-0.452053975">
        <ele>413.02</ele>
        <time>2013-12-15T09:47:49Z</time>
      </trkpt>
      <trkpt lat="39.683604576" lon="-0.452064034">
        <ele>414.95</ele>
        <time>2013-12-15T09:47:57Z</time>
      </trkpt>
      <trkpt lat="39.683455797" lon="-0.452049114">
        <ele>416.39</ele>
        <time>2013-12-15T09:48:06Z</time>
      </trkpt>
      <trkpt lat="39.683307018" lon="-0.452033775">
        <ele>415.91</ele>
        <time>2013-12-15T09:48:14Z</time>
      </trkpt>
      <trkpt lat="39.683123706" lon="-0.451968228">
        <ele>416.87</ele>
        <time>2013-12-15T09:48:23Z</time>
      </trkpt>
      <trkpt lat="39.682979370" lon="-0.451934366">
        <ele>417.83</ele>
        <time>2013-12-15T09:48:30Z</time>
      </trkpt>
      <trkpt lat="39.682825981" lon="-0.451928666">
        <ele>418.31</ele>
        <time>2013-12-15T09:48:37Z</time>
      </trkpt>
      <trkpt lat="39.682657756" lon="-0.451931600">
        <ele>419.27</ele>
        <time>2013-12-15T09:48:45Z</time>
      </trkpt>
      <trkpt lat="39.682506965" lon="-0.451945346">
        <ele>419.27</ele>
        <time>2013-12-15T09:48:52Z</time>
      </trkpt>
      <trkpt lat="39.682303788" lon="-0.451991865">
        <ele>421.68</ele>
        <time>2013-12-15T09:49:01Z</time>
      </trkpt>
      <trkpt lat="39.682136904" lon="-0.452031679">
        <ele>423.60</ele>
        <time>2013-12-15T09:49:09Z</time>
      </trkpt>
      <trkpt lat="39.682033304" lon="-0.452064956">
        <ele>425.52</ele>
        <time>2013-12-15T09:51:31Z</time>
      </trkpt>
      <trkpt lat="39.682176467" lon="-0.451961774">
        <ele>426.48</ele>
        <time>2013-12-15T09:51:39Z</time>
      </trkpt>
      <trkpt lat="39.682337400" lon="-0.451842500">
        <ele>427.92</ele>
        <time>2013-12-15T09:51:46Z</time>
      </trkpt>
      <trkpt lat="39.682632862" lon="-0.451689614">
        <ele>430.81</ele>
        <time>2013-12-15T09:51:56Z</time>
      </trkpt>
      <trkpt lat="39.682828495" lon="-0.451613339">
        <ele>433.69</ele>
        <time>2013-12-15T09:52:03Z</time>
      </trkpt>
      <trkpt lat="39.682856658" lon="-0.451602694">
        <ele>433.69</ele>
        <time>2013-12-15T09:52:04Z</time>
      </trkpt>
      <trkpt lat="39.683105936" lon="-0.451562544">
        <ele>436.58</ele>
        <time>2013-12-15T09:52:12Z</time>
      </trkpt>
      <trkpt lat="39.683314227" lon="-0.451544356">
        <ele>439.94</ele>
        <time>2013-12-15T09:52:19Z</time>
      </trkpt>
      <trkpt lat="39.683473734" lon="-0.451483671">
        <ele>441.38</ele>
        <time>2013-12-15T09:52:24Z</time>
      </trkpt>
      <trkpt lat="39.683539448" lon="-0.451453077">
        <ele>442.34</ele>
        <time>2013-12-15T09:52:26Z</time>
      </trkpt>
      <trkpt lat="39.683762239" lon="-0.451300442">
        <ele>445.23</ele>
        <time>2013-12-15T09:52:34Z</time>
      </trkpt>
      <trkpt lat="39.683921328" lon="-0.451139929">
        <ele>448.11</ele>
        <time>2013-12-15T09:52:42Z</time>
      </trkpt>
      <trkpt lat="39.684039848" lon="-0.450965250">
        <ele>449.55</ele>
        <time>2013-12-15T09:52:50Z</time>
      </trkpt>
      <trkpt lat="39.684080752" lon="-0.450712787">
        <ele>452.44</ele>
        <time>2013-12-15T09:52:58Z</time>
      </trkpt>
      <trkpt lat="39.684057282" lon="-0.450397125">
        <ele>454.84</ele>
        <time>2013-12-15T09:53:07Z</time>
      </trkpt>
      <trkpt lat="39.684083601" lon="-0.450129323">
        <ele>455.80</ele>
        <time>2013-12-15T09:53:15Z</time>
      </trkpt>
      <trkpt lat="39.684213353" lon="-0.449927151">
        <ele>457.24</ele>
        <time>2013-12-15T09:53:23Z</time>
      </trkpt>
      <trkpt lat="39.684385182" lon="-0.449806284">
        <ele>458.69</ele>
        <time>2013-12-15T09:53:31Z</time>
      </trkpt>
      <trkpt lat="39.684596909" lon="-0.449633198">
        <ele>461.09</ele>
        <time>2013-12-15T09:53:41Z</time>
      </trkpt>
      <trkpt lat="39.684691373" lon="-0.449456172">
        <ele>462.05</ele>
        <time>2013-12-15T09:53:48Z</time>
      </trkpt>
      <trkpt lat="39.684795057" lon="-0.449179988">
        <ele>464.45</ele>
        <time>2013-12-15T09:53:58Z</time>
      </trkpt>
      <trkpt lat="39.684848282" lon="-0.448948480">
        <ele>466.38</ele>
        <time>2013-12-15T09:54:06Z</time>
      </trkpt>
      <trkpt lat="39.684946099" lon="-0.448772376">
        <ele>467.82</ele>
        <time>2013-12-15T09:54:14Z</time>
      </trkpt>
      <trkpt lat="39.685106110" lon="-0.448670872">
        <ele>470.22</ele>
        <time>2013-12-15T09:54:22Z</time>
      </trkpt>
      <trkpt lat="39.685277939" lon="-0.448630219">
        <ele>470.22</ele>
        <time>2013-12-15T09:54:30Z</time>
      </trkpt>
      <trkpt lat="39.685496539" lon="-0.448594010">
        <ele>471.66</ele>
        <time>2013-12-15T09:54:39Z</time>
      </trkpt>
      <trkpt lat="39.685732992" lon="-0.448672464">
        <ele>473.11</ele>
        <time>2013-12-15T09:54:48Z</time>
      </trkpt>
      <trkpt lat="39.685990904" lon="-0.448786709">
        <ele>475.99</ele>
        <time>2013-12-15T09:54:57Z</time>
      </trkpt>
      <trkpt lat="39.686226100" lon="-0.448891148">
        <ele>476.47</ele>
        <time>2013-12-15T09:55:05Z</time>
      </trkpt>
      <trkpt lat="39.686519802" lon="-0.449012518">
        <ele>479.35</ele>
        <time>2013-12-15T09:55:15Z</time>
      </trkpt>
      <trkpt lat="39.686712082" lon="-0.449113939">
        <ele>479.35</ele>
        <time>2013-12-15T09:55:22Z</time>
      </trkpt>
      <trkpt lat="39.686870081" lon="-0.449278643">
        <ele>481.28</ele>
        <time>2013-12-15T09:55:30Z</time>
      </trkpt>
      <trkpt lat="39.686985835" lon="-0.449439576">
        <ele>482.72</ele>
        <time>2013-12-15T09:55:37Z</time>
      </trkpt>
      <trkpt lat="39.687140901" lon="-0.449618110">
        <ele>486.08</ele>
        <time>2013-12-15T09:55:46Z</time>
      </trkpt>
      <trkpt lat="39.687277274" lon="-0.449748114">
        <ele>488.49</ele>
        <time>2013-12-15T09:55:55Z</time>
      </trkpt>
      <trkpt lat="39.687485062" lon="-0.449895719">
        <ele>490.41</ele>
        <time>2013-12-15T09:56:06Z</time>
      </trkpt>
      <trkpt lat="39.687652616" lon="-0.449986663">
        <ele>490.41</ele>
        <time>2013-12-15T10:01:14Z</time>
      </trkpt>
      <trkpt lat="39.687654460" lon="-0.449986495">
        <ele>490.89</ele>
        <time>2013-12-15T10:01:46Z</time>
      </trkpt>
      <trkpt lat="39.687664686" lon="-0.449987333">
        <ele>490.41</ele>
        <time>2013-12-15T10:01:59Z</time>
      </trkpt>
      <trkpt lat="39.687828971" lon="-0.449988088">
        <ele>490.41</ele>
        <time>2013-12-15T10:02:12Z</time>
      </trkpt>
      <trkpt lat="39.688025024" lon="-0.449903682">
        <ele>490.41</ele>
        <time>2013-12-15T10:02:19Z</time>
      </trkpt>
      <trkpt lat="39.688227363" lon="-0.449767811">
        <ele>492.33</ele>
        <time>2013-12-15T10:02:28Z</time>
      </trkpt>
      <trkpt lat="39.688422577" lon="-0.449661864">
        <ele>494.74</ele>
        <time>2013-12-15T10:02:37Z</time>
      </trkpt>
      <trkpt lat="39.688583091" lon="-0.449570669">
        <ele>496.18</ele>
        <time>2013-12-15T10:02:46Z</time>
      </trkpt>
      <trkpt lat="39.688763386" lon="-0.449468661">
        <ele>497.14</ele>
        <time>2013-12-15T10:02:55Z</time>
      </trkpt>
      <trkpt lat="39.688910153" lon="-0.449414933">
        <ele>498.10</ele>
        <time>2013-12-15T10:03:03Z</time>
      </trkpt>
      <trkpt lat="39.689083658" lon="-0.449394565">
        <ele>498.10</ele>
        <time>2013-12-15T10:03:11Z</time>
      </trkpt>
      <trkpt lat="39.689250877" lon="-0.449497579">
        <ele>498.58</ele>
        <time>2013-12-15T10:03:20Z</time>
      </trkpt>
      <trkpt lat="39.689428573" lon="-0.449700169">
        <ele>497.62</ele>
        <time>2013-12-15T10:03:28Z</time>
      </trkpt>
      <trkpt lat="39.689671146" lon="-0.449991021">
        <ele>497.62</ele>
        <time>2013-12-15T10:03:37Z</time>
      </trkpt>
      <trkpt lat="39.689884214" lon="-0.450142482">
        <ele>498.10</ele>
        <time>2013-12-15T10:03:45Z</time>
      </trkpt>
      <trkpt lat="39.690130390" lon="-0.450292602">
        <ele>500.02</ele>
        <time>2013-12-15T10:03:55Z</time>
      </trkpt>
      <trkpt lat="39.690290401" lon="-0.450458732">
        <ele>501.95</ele>
        <time>2013-12-15T10:04:03Z</time>
      </trkpt>
      <trkpt lat="39.690379417" lon="-0.450671213">
        <ele>501.95</ele>
        <time>2013-12-15T10:04:10Z</time>
      </trkpt>
      <trkpt lat="39.690414285" lon="-0.450702561">
        <ele>502.91</ele>
        <time>2013-12-15T10:04:17Z</time>
      </trkpt>
      <trkpt lat="39.690446388" lon="-0.450823260">
        <ele>502.43</ele>
        <time>2013-12-15T10:04:46Z</time>
      </trkpt>
      <trkpt lat="39.690529788" lon="-0.451054517">
        <ele>502.43</ele>
        <time>2013-12-15T10:04:51Z</time>
      </trkpt>
      <trkpt lat="39.690660294" lon="-0.451365821">
        <ele>501.46</ele>
        <time>2013-12-15T10:04:57Z</time>
      </trkpt>
      <trkpt lat="39.690715615" lon="-0.451467158">
        <ele>499.54</ele>
        <time>2013-12-15T10:04:59Z</time>
      </trkpt>
      <trkpt lat="39.690793147" lon="-0.451457938">
        <ele>500.50</ele>
        <time>2013-12-15T10:05:02Z</time>
      </trkpt>
      <trkpt lat="39.690836314" lon="-0.451350063">
        <ele>501.95</ele>
        <time>2013-12-15T10:05:05Z</time>
      </trkpt>
      <trkpt lat="39.690914517" lon="-0.451081339">
        <ele>501.46</ele>
        <time>2013-12-15T10:05:11Z</time>
      </trkpt>
      <trkpt lat="39.690962462" lon="-0.450960053">
        <ele>503.39</ele>
        <time>2013-12-15T10:05:14Z</time>
      </trkpt>
      <trkpt lat="39.690973861" lon="-0.450805156">
        <ele>503.87</ele>
        <time>2013-12-15T10:05:18Z</time>
      </trkpt>
      <trkpt lat="39.690994145" lon="-0.450437777">
        <ele>505.79</ele>
        <time>2013-12-15T10:05:27Z</time>
      </trkpt>
      <trkpt lat="39.691005712" lon="-0.450106859">
        <ele>507.71</ele>
        <time>2013-12-15T10:05:35Z</time>
      </trkpt>
      <trkpt lat="39.691008897" lon="-0.450058915">
        <ele>507.71</ele>
        <time>2013-12-15T10:05:40Z</time>
      </trkpt>
      <trkpt lat="39.691026164" lon="-0.450058747">
        <ele>508.19</ele>
        <time>2013-12-15T10:06:00Z</time>
      </trkpt>
      <trkpt lat="39.691030858" lon="-0.449958248">
        <ele>508.67</ele>
        <time>2013-12-15T10:06:07Z</time>
      </trkpt>
      <trkpt lat="39.691041671" lon="-0.449693799">
        <ele>509.64</ele>
        <time>2013-12-15T10:06:16Z</time>
      </trkpt>
      <trkpt lat="39.690932874" lon="-0.449557258">
        <ele>506.75</ele>
        <time>2013-12-15T10:06:37Z</time>
      </trkpt>
      <trkpt lat="39.690892641" lon="-0.449500931">
        <ele>506.75</ele>
        <time>2013-12-15T10:06:39Z</time>
      </trkpt>
      <trkpt lat="39.690922815" lon="-0.449383333">
        <ele>504.35</ele>
        <time>2013-12-15T10:06:45Z</time>
      </trkpt>
      <trkpt lat="39.690949302" lon="-0.449313596">
        <ele>503.39</ele>
        <time>2013-12-15T10:06:51Z</time>
      </trkpt>
      <trkpt lat="39.690947961" lon="-0.449276967">
        <ele>501.95</ele>
        <time>2013-12-15T10:06:59Z</time>
      </trkpt>
      <trkpt lat="39.690931952" lon="-0.449248636">
        <ele>501.46</ele>
        <time>2013-12-15T10:07:04Z</time>
      </trkpt>
      <trkpt lat="39.690933879" lon="-0.449203793">
        <ele>500.50</ele>
        <time>2013-12-15T10:07:10Z</time>
      </trkpt>
      <trkpt lat="39.690914685" lon="-0.448964490">
        <ele>500.98</ele>
        <time>2013-12-15T10:07:17Z</time>
      </trkpt>
      <trkpt lat="39.690932287" lon="-0.448927525">
        <ele>501.46</ele>
        <time>2013-12-15T10:07:18Z</time>
      </trkpt>
      <trkpt lat="39.690901274" lon="-0.448776484">
        <ele>500.02</ele>
        <time>2013-12-15T10:07:23Z</time>
      </trkpt>
      <trkpt lat="39.690869926" lon="-0.448762318">
        <ele>499.54</ele>
        <time>2013-12-15T10:07:25Z</time>
      </trkpt>
      <trkpt lat="39.690859700" lon="-0.448746057">
        <ele>500.02</ele>
        <time>2013-12-15T10:07:34Z</time>
      </trkpt>
      <trkpt lat="39.690842768" lon="-0.448762989">
        <ele>499.54</ele>
        <time>2013-12-15T10:07:45Z</time>
      </trkpt>
      <trkpt lat="39.690759536" lon="-0.448733820">
        <ele>498.58</ele>
        <time>2013-12-15T10:07:49Z</time>
      </trkpt>
      <trkpt lat="39.690733301" lon="-0.448735747">
        <ele>498.58</ele>
        <time>2013-12-15T10:07:53Z</time>
      </trkpt>
      <trkpt lat="39.690734306" lon="-0.448737508">
        <ele>498.58</ele>
        <time>2013-12-15T10:07:54Z</time>
      </trkpt>
      <trkpt lat="39.690721147" lon="-0.448693838">
        <ele>499.54</ele>
        <time>2013-12-15T10:08:00Z</time>
      </trkpt>
      <trkpt lat="39.690690972" lon="-0.448692162">
        <ele>500.02</ele>
        <time>2013-12-15T10:08:07Z</time>
      </trkpt>
      <trkpt lat="39.690659372" lon="-0.448738430">
        <ele>497.14</ele>
        <time>2013-12-15T10:08:13Z</time>
      </trkpt>
      <trkpt lat="39.690649481" lon="-0.448738094">
        <ele>496.66</ele>
        <time>2013-12-15T10:08:15Z</time>
      </trkpt>
      <trkpt lat="39.690560298" lon="-0.448698364">
        <ele>497.14</ele>
        <time>2013-12-15T10:08:21Z</time>
      </trkpt>
      <trkpt lat="39.690557700" lon="-0.448691826">
        <ele>496.66</ele>
        <time>2013-12-15T10:08:29Z</time>
      </trkpt>
      <trkpt lat="39.690552754" lon="-0.448684869">
        <ele>497.14</ele>
        <time>2013-12-15T10:08:33Z</time>
      </trkpt>
      <trkpt lat="39.690457871" lon="-0.448624101">
        <ele>496.18</ele>
        <time>2013-12-15T10:08:39Z</time>
      </trkpt>
      <trkpt lat="39.690312361" lon="-0.448528714">
        <ele>495.22</ele>
        <time>2013-12-15T10:08:44Z</time>
      </trkpt>
      <trkpt lat="39.690189566" lon="-0.448447578">
        <ele>493.29</ele>
        <time>2013-12-15T10:08:49Z</time>
      </trkpt>
      <trkpt lat="39.690019581" lon="-0.448297290">
        <ele>490.89</ele>
        <time>2013-12-15T10:08:57Z</time>
      </trkpt>
      <trkpt lat="39.690001812" lon="-0.448284550">
        <ele>490.89</ele>
        <time>2013-12-15T10:08:58Z</time>
      </trkpt>
      <trkpt lat="39.689966021" lon="-0.448255129">
        <ele>489.93</ele>
        <time>2013-12-15T10:09:00Z</time>
      </trkpt>
      <trkpt lat="39.689874826" lon="-0.448106769">
        <ele>489.45</ele>
        <time>2013-12-15T10:09:07Z</time>
      </trkpt>
      <trkpt lat="39.689874575" lon="-0.448096208">
        <ele>488.97</ele>
        <time>2013-12-15T10:09:12Z</time>
      </trkpt>
      <trkpt lat="39.689881112" lon="-0.448120348">
        <ele>488.01</ele>
        <time>2013-12-15T10:09:26Z</time>
      </trkpt>
      <trkpt lat="39.689830150" lon="-0.448065950">
        <ele>487.53</ele>
        <time>2013-12-15T10:09:35Z</time>
      </trkpt>
      <trkpt lat="39.689809447" lon="-0.448043318">
        <ele>487.53</ele>
        <time>2013-12-15T10:09:43Z</time>
      </trkpt>
      <trkpt lat="39.689782960" lon="-0.448003504">
        <ele>487.05</ele>
        <time>2013-12-15T10:09:49Z</time>
      </trkpt>
      <trkpt lat="39.689746834" lon="-0.447944915">
        <ele>486.08</ele>
        <time>2013-12-15T10:09:57Z</time>
      </trkpt>
      <trkpt lat="39.689748008" lon="-0.447934270">
        <ele>486.08</ele>
        <time>2013-12-15T10:10:05Z</time>
      </trkpt>
      <trkpt lat="39.689751696" lon="-0.447931169">
        <ele>485.60</ele>
        <time>2013-12-15T10:10:25Z</time>
      </trkpt>
      <trkpt lat="39.689744320" lon="-0.447927983">
        <ele>485.12</ele>
        <time>2013-12-15T10:10:46Z</time>
      </trkpt>
      <trkpt lat="39.689707523" lon="-0.447880877">
        <ele>485.60</ele>
        <time>2013-12-15T10:10:58Z</time>
      </trkpt>
      <trkpt lat="39.689655136" lon="-0.447785910">
        <ele>484.16</ele>
        <time>2013-12-15T10:11:06Z</time>
      </trkpt>
      <trkpt lat="39.689620184" lon="-0.447758334">
        <ele>482.72</ele>
        <time>2013-12-15T10:11:12Z</time>
      </trkpt>
      <trkpt lat="39.689598391" lon="-0.447756825">
        <ele>481.76</ele>
        <time>2013-12-15T10:11:14Z</time>
      </trkpt>
      <trkpt lat="39.689565366" lon="-0.447704187">
        <ele>480.80</ele>
        <time>2013-12-15T10:11:19Z</time>
      </trkpt>
      <trkpt lat="39.689559080" lon="-0.447651297">
        <ele>480.80</ele>
        <time>2013-12-15T10:11:23Z</time>
      </trkpt>
      <trkpt lat="39.689504262" lon="-0.447564041">
        <ele>479.35</ele>
        <time>2013-12-15T10:11:31Z</time>
      </trkpt>
      <trkpt lat="39.689477105" lon="-0.447508721">
        <ele>478.87</ele>
        <time>2013-12-15T10:11:38Z</time>
      </trkpt>
      <trkpt lat="39.689454641" lon="-0.447398582">
        <ele>477.43</ele>
        <time>2013-12-15T10:11:44Z</time>
      </trkpt>
      <trkpt lat="39.689444248" lon="-0.447383747">
        <ele>477.91</ele>
        <time>2013-12-15T10:11:46Z</time>
      </trkpt>
      <trkpt lat="39.689428657" lon="-0.447302777">
        <ele>475.51</ele>
        <time>2013-12-15T10:11:54Z</time>
      </trkpt>
      <trkpt lat="39.689426394" lon="-0.447285511">
        <ele>474.55</ele>
        <time>2013-12-15T10:12:13Z</time>
      </trkpt>
      <trkpt lat="39.689371241" lon="-0.447217533">
        <ele>473.11</ele>
        <time>2013-12-15T10:12:21Z</time>
      </trkpt>
      <trkpt lat="39.689347940" lon="-0.447209151">
        <ele>472.63</ele>
        <time>2013-12-15T10:12:26Z</time>
      </trkpt>
      <trkpt lat="39.689333607" lon="-0.447184928">
        <ele>471.18</ele>
        <time>2013-12-15T10:12:29Z</time>
      </trkpt>
      <trkpt lat="39.689312903" lon="-0.447172103">
        <ele>471.18</ele>
        <time>2013-12-15T10:12:31Z</time>
      </trkpt>
      <trkpt lat="39.689234365" lon="-0.447156681">
        <ele>471.18</ele>
        <time>2013-12-15T10:12:40Z</time>
      </trkpt>
      <trkpt lat="39.689204860" lon="-0.447174283">
        <ele>470.70</ele>
        <time>2013-12-15T10:12:54Z</time>
      </trkpt>
      <trkpt lat="39.689115174" lon="-0.447171768">
        <ele>470.22</ele>
        <time>2013-12-15T10:12:59Z</time>
      </trkpt>
      <trkpt lat="39.689041330" lon="-0.447140839">
        <ele>469.74</ele>
        <time>2013-12-15T10:13:03Z</time>
      </trkpt>
      <trkpt lat="39.688914008" lon="-0.447016871">
        <ele>469.26</ele>
        <time>2013-12-15T10:13:11Z</time>
      </trkpt>
      <trkpt lat="39.688882241" lon="-0.446996503">
        <ele>468.78</ele>
        <time>2013-12-15T10:13:13Z</time>
      </trkpt>
      <trkpt lat="39.688748131" lon="-0.446939338">
        <ele>468.30</ele>
        <time>2013-12-15T10:13:19Z</time>
      </trkpt>
      <trkpt lat="39.688619468" lon="-0.446860297">
        <ele>467.82</ele>
        <time>2013-12-15T10:13:25Z</time>
      </trkpt>
      <trkpt lat="39.688589545" lon="-0.446845209">
        <ele>467.82</ele>
        <time>2013-12-15T10:13:30Z</time>
      </trkpt>
      <trkpt lat="39.688455854" lon="-0.446770610">
        <ele>467.82</ele>
        <time>2013-12-15T10:13:36Z</time>
      </trkpt>
      <trkpt lat="39.688359629" lon="-0.446715625">
        <ele>466.38</ele>
        <time>2013-12-15T10:13:40Z</time>
      </trkpt>
      <trkpt lat="39.688261142" lon="-0.446649743">
        <ele>463.97</ele>
        <time>2013-12-15T10:13:46Z</time>
      </trkpt>
      <trkpt lat="39.688239349" lon="-0.446649576">
        <ele>463.01</ele>
        <time>2013-12-15T10:13:52Z</time>
      </trkpt>
      <trkpt lat="39.688233901" lon="-0.446654772">
        <ele>463.49</ele>
        <time>2013-12-15T10:14:03Z</time>
      </trkpt>
      <trkpt lat="39.688213700" lon="-0.446608169">
        <ele>462.05</ele>
        <time>2013-12-15T10:14:12Z</time>
      </trkpt>
      <trkpt lat="39.688176988" lon="-0.446555950">
        <ele>461.09</ele>
        <time>2013-12-15T10:14:19Z</time>
      </trkpt>
      <trkpt lat="39.688134240" lon="-0.446526529">
        <ele>459.65</ele>
        <time>2013-12-15T10:14:24Z</time>
      </trkpt>
      <trkpt lat="39.688112279" lon="-0.446484620">
        <ele>458.69</ele>
        <time>2013-12-15T10:14:30Z</time>
      </trkpt>
      <trkpt lat="39.688038602" lon="-0.446320251">
        <ele>457.72</ele>
        <time>2013-12-15T10:14:36Z</time>
      </trkpt>
      <trkpt lat="39.687980432" lon="-0.446112463">
        <ele>456.76</ele>
        <time>2013-12-15T10:14:42Z</time>
      </trkpt>
      <trkpt lat="39.687972469" lon="-0.446068542">
        <ele>455.32</ele>
        <time>2013-12-15T10:14:44Z</time>
      </trkpt>
      <trkpt lat="39.687942713" lon="-0.445892774">
        <ele>453.40</ele>
        <time>2013-12-15T10:14:50Z</time>
      </trkpt>
      <trkpt lat="39.687954364" lon="-0.445791436">
        <ele>451.00</ele>
        <time>2013-12-15T10:14:52Z</time>
      </trkpt>
      <trkpt lat="39.687945480" lon="-0.445686076">
        <ele>450.03</ele>
        <time>2013-12-15T10:14:54Z</time>
      </trkpt>
      <trkpt lat="39.687913209" lon="-0.445534950">
        <ele>448.59</ele>
        <time>2013-12-15T10:14:57Z</time>
      </trkpt>
      <trkpt lat="39.687906587" lon="-0.445342502">
        <ele>446.19</ele>
        <time>2013-12-15T10:15:02Z</time>
      </trkpt>
      <trkpt lat="39.687904576" lon="-0.445318278">
        <ele>446.19</ele>
        <time>2013-12-15T10:15:03Z</time>
      </trkpt>
      <trkpt lat="39.687894266" lon="-0.445314590">
        <ele>445.23</ele>
        <time>2013-12-15T10:15:08Z</time>
      </trkpt>
      <trkpt lat="39.687897870" lon="-0.445214007">
        <ele>443.79</ele>
        <time>2013-12-15T10:15:17Z</time>
      </trkpt>
      <trkpt lat="39.687922262" lon="-0.445168074">
        <ele>443.31</ele>
        <time>2013-12-15T10:15:24Z</time>
      </trkpt>
      <trkpt lat="39.687924525" lon="-0.445164302">
        <ele>443.31</ele>
        <time>2013-12-15T10:15:25Z</time>
      </trkpt>
      <trkpt lat="39.687912036" lon="-0.445088362">
        <ele>441.86</ele>
        <time>2013-12-15T10:15:29Z</time>
      </trkpt>
      <trkpt lat="39.687899966" lon="-0.445060618">
        <ele>441.38</ele>
        <time>2013-12-15T10:15:35Z</time>
      </trkpt>
      <trkpt lat="39.687865684" lon="-0.444990043">
        <ele>438.98</ele>
        <time>2013-12-15T10:15:43Z</time>
      </trkpt>
      <trkpt lat="39.687850848" lon="-0.444971267">
        <ele>438.02</ele>
        <time>2013-12-15T10:15:45Z</time>
      </trkpt>
      <trkpt lat="39.687834168" lon="-0.444932710">
        <ele>437.54</ele>
        <time>2013-12-15T10:15:53Z</time>
      </trkpt>
      <trkpt lat="39.687842298" lon="-0.444917204">
        <ele>437.06</ele>
        <time>2013-12-15T10:16:06Z</time>
      </trkpt>
      <trkpt lat="39.687804831" lon="-0.444724336">
        <ele>436.58</ele>
        <time>2013-12-15T10:16:12Z</time>
      </trkpt>
      <trkpt lat="39.687698800" lon="-0.444599446">
        <ele>436.10</ele>
        <time>2013-12-15T10:16:16Z</time>
      </trkpt>
      <trkpt lat="39.687626380" lon="-0.444603385">
        <ele>435.13</ele>
        <time>2013-12-15T10:16:18Z</time>
      </trkpt>
      <trkpt lat="39.687581202" lon="-0.444601122">
        <ele>434.65</ele>
        <time>2013-12-15T10:16:22Z</time>
      </trkpt>
      <trkpt lat="39.687560666" lon="-0.444575474">
        <ele>433.69</ele>
        <time>2013-12-15T10:16:28Z</time>
      </trkpt>
      <trkpt lat="39.687525211" lon="-0.444563320">
        <ele>432.73</ele>
        <time>2013-12-15T10:16:36Z</time>
      </trkpt>
      <trkpt lat="39.687514482" lon="-0.444564577">
        <ele>432.25</ele>
        <time>2013-12-15T10:16:48Z</time>
      </trkpt>
      <trkpt lat="39.687435022" lon="-0.444561476">
        <ele>431.77</ele>
        <time>2013-12-15T10:16:52Z</time>
      </trkpt>
      <trkpt lat="39.687335109" lon="-0.444642529">
        <ele>431.77</ele>
        <time>2013-12-15T10:16:57Z</time>
      </trkpt>
      <trkpt lat="39.687221618" lon="-0.444622831">
        <ele>431.77</ele>
        <time>2013-12-15T10:17:03Z</time>
      </trkpt>
      <trkpt lat="39.687195215" lon="-0.444597350">
        <ele>432.25</ele>
        <time>2013-12-15T10:17:05Z</time>
      </trkpt>
      <trkpt lat="39.687135033" lon="-0.444528200">
        <ele>432.25</ele>
        <time>2013-12-15T10:17:12Z</time>
      </trkpt>
      <trkpt lat="39.687131178" lon="-0.444546053">
        <ele>432.73</ele>
        <time>2013-12-15T10:17:26Z</time>
      </trkpt>
      <trkpt lat="39.687124221" lon="-0.444543036">
        <ele>432.25</ele>
        <time>2013-12-15T10:17:42Z</time>
      </trkpt>
      <trkpt lat="39.687110223" lon="-0.444537587">
        <ele>432.73</ele>
        <time>2013-12-15T10:17:55Z</time>
      </trkpt>
      <trkpt lat="39.687112737" lon="-0.444541862">
        <ele>432.73</ele>
        <time>2013-12-15T10:18:05Z</time>
      </trkpt>
      <trkpt lat="39.687116425" lon="-0.444540521">
        <ele>432.25</ele>
        <time>2013-12-15T10:18:17Z</time>
      </trkpt>
      <trkpt lat="39.687109133" lon="-0.444546808">
        <ele>432.73</ele>
        <time>2013-12-15T10:18:29Z</time>
      </trkpt>
      <trkpt lat="39.687106116" lon="-0.444548232">
        <ele>432.73</ele>
        <time>2013-12-15T10:18:32Z</time>
      </trkpt>
      <trkpt lat="39.686907381" lon="-0.444585783">
        <ele>432.25</ele>
        <time>2013-12-15T10:18:43Z</time>
      </trkpt>
      <trkpt lat="39.686758937" lon="-0.444566505">
        <ele>431.29</ele>
        <time>2013-12-15T10:18:49Z</time>
      </trkpt>
      <trkpt lat="39.686618121" lon="-0.444411272">
        <ele>430.81</ele>
        <time>2013-12-15T10:18:55Z</time>
      </trkpt>
      <trkpt lat="39.686614517" lon="-0.444113798">
        <ele>427.92</ele>
        <time>2013-12-15T10:19:00Z</time>
      </trkpt>
      <trkpt lat="39.686643602" lon="-0.444042720">
        <ele>427.92</ele>
        <time>2013-12-15T10:19:01Z</time>
      </trkpt>
      <trkpt lat="39.686705545" lon="-0.443904754">
        <ele>427.92</ele>
        <time>2013-12-15T10:19:03Z</time>
      </trkpt>
      <trkpt lat="39.686779305" lon="-0.443610633">
        <ele>426.00</ele>
        <time>2013-12-15T10:19:07Z</time>
      </trkpt>
      <trkpt lat="39.686817359" lon="-0.443449197">
        <ele>424.56</ele>
        <time>2013-12-15T10:19:09Z</time>
      </trkpt>
      <trkpt lat="39.686950129" lon="-0.442808233">
        <ele>423.12</ele>
        <time>2013-12-15T10:19:17Z</time>
      </trkpt>
      <trkpt lat="39.686892377" lon="-0.442544706">
        <ele>422.16</ele>
        <time>2013-12-15T10:19:21Z</time>
      </trkpt>
      <trkpt lat="39.686730355" lon="-0.442122510">
        <ele>421.68</ele>
        <time>2013-12-15T10:19:29Z</time>
      </trkpt>
      <trkpt lat="39.686509827" lon="-0.441785054">
        <ele>422.16</ele>
        <time>2013-12-15T10:19:38Z</time>
      </trkpt>
      <trkpt lat="39.686520305" lon="-0.441654213">
        <ele>422.16</ele>
        <time>2013-12-15T10:19:41Z</time>
      </trkpt>
      <trkpt lat="39.686593981" lon="-0.441355230">
        <ele>419.75</ele>
        <time>2013-12-15T10:19:46Z</time>
      </trkpt>
      <trkpt lat="39.686605213" lon="-0.441281218">
        <ele>419.27</ele>
        <time>2013-12-15T10:19:47Z</time>
      </trkpt>
      <trkpt lat="39.686603034" lon="-0.440881820">
        <ele>415.43</ele>
        <time>2013-12-15T10:19:52Z</time>
      </trkpt>
      <trkpt lat="39.686624072" lon="-0.440626927">
        <ele>411.58</ele>
        <time>2013-12-15T10:19:56Z</time>
      </trkpt>
      <trkpt lat="39.686654164" lon="-0.440550903">
        <ele>410.62</ele>
        <time>2013-12-15T10:20:02Z</time>
      </trkpt>
      <trkpt lat="39.686649805" lon="-0.440562638">
        <ele>410.14</ele>
        <time>2013-12-15T10:20:17Z</time>
      </trkpt>
      <trkpt lat="39.686643854" lon="-0.440583173">
        <ele>410.14</ele>
        <time>2013-12-15T10:20:33Z</time>
      </trkpt>
      <trkpt lat="39.686635640" lon="-0.440575043">
        <ele>410.62</ele>
        <time>2013-12-15T10:20:46Z</time>
      </trkpt>
      <trkpt lat="39.686630610" lon="-0.440568253">
        <ele>411.10</ele>
        <time>2013-12-15T10:20:52Z</time>
      </trkpt>
      <trkpt lat="39.686687272" lon="-0.440457696">
        <ele>412.06</ele>
        <time>2013-12-15T10:20:59Z</time>
      </trkpt>
      <trkpt lat="39.686691212" lon="-0.440384438">
        <ele>412.54</ele>
        <time>2013-12-15T10:21:01Z</time>
      </trkpt>
      <trkpt lat="39.686724488" lon="-0.440091491">
        <ele>413.98</ele>
        <time>2013-12-15T10:21:09Z</time>
      </trkpt>
      <trkpt lat="39.686700515" lon="-0.439797202">
        <ele>416.39</ele>
        <time>2013-12-15T10:21:18Z</time>
      </trkpt>
      <trkpt lat="39.686666736" lon="-0.439551109">
        <ele>417.83</ele>
        <time>2013-12-15T10:21:26Z</time>
      </trkpt>
      <trkpt lat="39.686686685" lon="-0.439349273">
        <ele>418.79</ele>
        <time>2013-12-15T10:21:33Z</time>
      </trkpt>
      <trkpt lat="39.686730104" lon="-0.439279536">
        <ele>420.71</ele>
        <time>2013-12-15T10:21:36Z</time>
      </trkpt>
      <trkpt lat="39.686885420" lon="-0.439191107">
        <ele>423.12</ele>
        <time>2013-12-15T10:21:43Z</time>
      </trkpt>
      <trkpt lat="39.687105864" lon="-0.439076191">
        <ele>425.04</ele>
        <time>2013-12-15T10:21:52Z</time>
      </trkpt>
      <trkpt lat="39.687275598" lon="-0.438853148">
        <ele>426.48</ele>
        <time>2013-12-15T10:22:01Z</time>
      </trkpt>
      <trkpt lat="39.687427562" lon="-0.438627927">
        <ele>426.96</ele>
        <time>2013-12-15T10:22:10Z</time>
      </trkpt>
      <trkpt lat="39.687438374" lon="-0.438399101">
        <ele>427.92</ele>
        <time>2013-12-15T10:22:17Z</time>
      </trkpt>
      <trkpt lat="39.687463185" lon="-0.438090479">
        <ele>429.37</ele>
        <time>2013-12-15T10:22:27Z</time>
      </trkpt>
      <trkpt lat="39.687525462" lon="-0.437935162">
        <ele>431.29</ele>
        <time>2013-12-15T10:22:34Z</time>
      </trkpt>
      <trkpt lat="39.687541304" lon="-0.437916722">
        <ele>431.77</ele>
        <time>2013-12-15T10:22:35Z</time>
      </trkpt>
      <trkpt lat="39.687653203" lon="-0.437871041">
        <ele>432.73</ele>
        <time>2013-12-15T10:22:41Z</time>
      </trkpt>
      <trkpt lat="39.687724868" lon="-0.437898953">
        <ele>433.21</ele>
        <time>2013-12-15T10:22:44Z</time>
      </trkpt>
      <trkpt lat="39.687936259" lon="-0.437991321">
        <ele>434.17</ele>
        <time>2013-12-15T10:22:52Z</time>
      </trkpt>
      <trkpt lat="39.688245719" lon="-0.438144878">
        <ele>433.69</ele>
        <time>2013-12-15T10:23:02Z</time>
      </trkpt>
      <trkpt lat="39.688461889" lon="-0.438115876">
        <ele>434.17</ele>
        <time>2013-12-15T10:23:09Z</time>
      </trkpt>
      <trkpt lat="39.688668251" lon="-0.437974725">
        <ele>434.65</ele>
        <time>2013-12-15T10:23:16Z</time>
      </trkpt>
      <trkpt lat="39.688765565" lon="-0.437784875">
        <ele>434.65</ele>
        <time>2013-12-15T10:23:21Z</time>
      </trkpt>
      <trkpt lat="39.688704209" lon="-0.437602066">
        <ele>435.13</ele>
        <time>2013-12-15T10:23:25Z</time>
      </trkpt>
      <trkpt lat="39.688632963" lon="-0.437470553">
        <ele>434.65</ele>
        <time>2013-12-15T10:23:28Z</time>
      </trkpt>
      <trkpt lat="39.688586611" lon="-0.437277853">
        <ele>435.13</ele>
        <time>2013-12-15T10:23:32Z</time>
      </trkpt>
      <trkpt lat="39.688547719" lon="-0.436773179">
        <ele>437.06</ele>
        <time>2013-12-15T10:23:42Z</time>
      </trkpt>
      <trkpt lat="39.688625420" lon="-0.436465982">
        <ele>437.54</ele>
        <time>2013-12-15T10:23:49Z</time>
      </trkpt>
      <trkpt lat="39.688757267" lon="-0.436132466">
        <ele>438.02</ele>
        <time>2013-12-15T10:23:57Z</time>
      </trkpt>
      <trkpt lat="39.688907973" lon="-0.435889224">
        <ele>438.50</ele>
        <time>2013-12-15T10:24:04Z</time>
      </trkpt>
      <trkpt lat="39.688978633" lon="-0.435811607">
        <ele>437.54</ele>
        <time>2013-12-15T10:24:06Z</time>
      </trkpt>
      <trkpt lat="39.689139901" lon="-0.435743881">
        <ele>435.61</ele>
        <time>2013-12-15T10:24:09Z</time>
      </trkpt>
      <trkpt lat="39.689273592" lon="-0.435726698">
        <ele>435.13</ele>
        <time>2013-12-15T10:24:11Z</time>
      </trkpt>
      <trkpt lat="39.689494036" lon="-0.435734745">
        <ele>434.17</ele>
        <time>2013-12-15T10:24:14Z</time>
      </trkpt>
      <trkpt lat="39.689723030" lon="-0.435681436">
        <ele>432.73</ele>
        <time>2013-12-15T10:24:17Z</time>
      </trkpt>
      <trkpt lat="39.689843981" lon="-0.435571885">
        <ele>432.25</ele>
        <time>2013-12-15T10:24:19Z</time>
      </trkpt>
      <trkpt lat="39.690001728" lon="-0.435371893">
        <ele>431.29</ele>
        <time>2013-12-15T10:24:22Z</time>
      </trkpt>
      <trkpt lat="39.690181520" lon="-0.434956066">
        <ele>429.85</ele>
        <time>2013-12-15T10:24:27Z</time>
      </trkpt>
      <trkpt lat="39.690211946" lon="-0.434868643">
        <ele>429.37</ele>
        <time>2013-12-15T10:24:28Z</time>
      </trkpt>
      <trkpt lat="39.690393414" lon="-0.434549376">
        <ele>428.40</ele>
        <time>2013-12-15T10:24:32Z</time>
      </trkpt>
      <trkpt lat="39.690507744" lon="-0.434307726">
        <ele>427.92</ele>
        <time>2013-12-15T10:24:35Z</time>
      </trkpt>
      <trkpt lat="39.690777641" lon="-0.434095077">
        <ele>428.40</ele>
        <time>2013-12-15T10:24:40Z</time>
      </trkpt>
      <trkpt lat="39.690839080" lon="-0.434079738">
        <ele>427.92</ele>
        <time>2013-12-15T10:24:41Z</time>
      </trkpt>
      <trkpt lat="39.691116940" lon="-0.433882345">
        <ele>428.40</ele>
        <time>2013-12-15T10:24:47Z</time>
      </trkpt>
      <trkpt lat="39.691147618" lon="-0.433773799">
        <ele>429.37</ele>
        <time>2013-12-15T10:24:49Z</time>
      </trkpt>
      <trkpt lat="39.691264965" lon="-0.433482276">
        <ele>430.33</ele>
        <time>2013-12-15T10:24:55Z</time>
      </trkpt>
      <trkpt lat="39.691401757" lon="-0.433342550">
        <ele>429.85</ele>
        <time>2013-12-15T10:24:59Z</time>
      </trkpt>
      <trkpt lat="39.691727897" lon="-0.433035688">
        <ele>430.33</ele>
        <time>2013-12-15T10:25:07Z</time>
      </trkpt>
      <trkpt lat="39.692131486" lon="-0.432632519">
        <ele>429.85</ele>
        <time>2013-12-15T10:25:16Z</time>
      </trkpt>
      <trkpt lat="39.692449160" lon="-0.432468401">
        <ele>427.92</ele>
        <time>2013-12-15T10:25:21Z</time>
      </trkpt>
      <trkpt lat="39.692656612" lon="-0.432242844">
        <ele>427.44</ele>
        <time>2013-12-15T10:25:25Z</time>
      </trkpt>
      <trkpt lat="39.692613361" lon="-0.432030531">
        <ele>428.40</ele>
        <time>2013-12-15T10:25:28Z</time>
      </trkpt>
      <trkpt lat="39.692539517" lon="-0.431943191">
        <ele>429.37</ele>
        <time>2013-12-15T10:25:30Z</time>
      </trkpt>
      <trkpt lat="39.692215892" lon="-0.431551253">
        <ele>430.81</ele>
        <time>2013-12-15T10:25:39Z</time>
      </trkpt>
      <trkpt lat="39.692151351" lon="-0.431469446">
        <ele>431.29</ele>
        <time>2013-12-15T10:25:41Z</time>
      </trkpt>
      <trkpt lat="39.692102904" lon="-0.431227712">
        <ele>433.69</ele>
        <time>2013-12-15T10:25:47Z</time>
      </trkpt>
      <trkpt lat="39.692198122" lon="-0.431122771">
        <ele>434.65</ele>
        <time>2013-12-15T10:25:53Z</time>
      </trkpt>
      <trkpt lat="39.692255203" lon="-0.431005089">
        <ele>437.06</ele>
        <time>2013-12-15T10:25:57Z</time>
      </trkpt>
      <trkpt lat="39.692364251" lon="-0.430869050">
        <ele>439.94</ele>
        <time>2013-12-15T10:26:04Z</time>
      </trkpt>
      <trkpt lat="39.692436000" lon="-0.430777352">
        <ele>441.86</ele>
        <time>2013-12-15T10:26:10Z</time>
      </trkpt>
      <trkpt lat="39.692509007" lon="-0.430615582">
        <ele>444.27</ele>
        <time>2013-12-15T10:26:18Z</time>
      </trkpt>
      <trkpt lat="39.692556951" lon="-0.430482225">
        <ele>446.19</ele>
        <time>2013-12-15T10:26:25Z</time>
      </trkpt>
      <trkpt lat="39.692602716" lon="-0.430342248">
        <ele>448.11</ele>
        <time>2013-12-15T10:26:31Z</time>
      </trkpt>
      <trkpt lat="39.692626270" lon="-0.430207383">
        <ele>450.03</ele>
        <time>2013-12-15T10:26:37Z</time>
      </trkpt>
      <trkpt lat="39.692624928" lon="-0.430161115">
        <ele>450.03</ele>
        <time>2013-12-15T10:26:39Z</time>
      </trkpt>
      <trkpt lat="39.692541780" lon="-0.430020131">
        <ele>449.55</ele>
        <time>2013-12-15T10:26:45Z</time>
      </trkpt>
      <trkpt lat="39.692295184" lon="-0.429779068">
        <ele>448.59</ele>
        <time>2013-12-15T10:26:54Z</time>
      </trkpt>
      <trkpt lat="39.692207593" lon="-0.429668343">
        <ele>447.15</ele>
        <time>2013-12-15T10:26:57Z</time>
      </trkpt>
      <trkpt lat="39.692009445" lon="-0.429348405">
        <ele>443.31</ele>
        <time>2013-12-15T10:27:02Z</time>
      </trkpt>
      <trkpt lat="39.691823702" lon="-0.429062834">
        <ele>440.42</ele>
        <time>2013-12-15T10:27:05Z</time>
      </trkpt>
      <trkpt lat="39.691646844" lon="-0.428777933">
        <ele>437.54</ele>
        <time>2013-12-15T10:27:08Z</time>
      </trkpt>
      <trkpt lat="39.691510219" lon="-0.428322293">
        <ele>435.61</ele>
        <time>2013-12-15T10:27:12Z</time>
      </trkpt>
      <trkpt lat="39.691478368" lon="-0.428065890">
        <ele>433.69</ele>
        <time>2013-12-15T10:27:14Z</time>
      </trkpt>
      <trkpt lat="39.691537209" lon="-0.427558450">
        <ele>431.29</ele>
        <time>2013-12-15T10:27:18Z</time>
      </trkpt>
      <trkpt lat="39.691606946" lon="-0.427310430">
        <ele>429.85</ele>
        <time>2013-12-15T10:27:20Z</time>
      </trkpt>
      <trkpt lat="39.691538885" lon="-0.426961910">
        <ele>427.92</ele>
        <time>2013-12-15T10:27:23Z</time>
      </trkpt>
      <trkpt lat="39.691392118" lon="-0.426781951">
        <ele>426.00</ele>
        <time>2013-12-15T10:27:25Z</time>
      </trkpt>
      <trkpt lat="39.691155246" lon="-0.426410045">
        <ele>423.60</ele>
        <time>2013-12-15T10:27:29Z</time>
      </trkpt>
      <trkpt lat="39.691175614" lon="-0.426042834">
        <ele>420.23</ele>
        <time>2013-12-15T10:27:32Z</time>
      </trkpt>
      <trkpt lat="39.691012166" lon="-0.425718455">
        <ele>417.83</ele>
        <time>2013-12-15T10:27:35Z</time>
      </trkpt>
      <trkpt lat="39.690803289" lon="-0.425446630">
        <ele>415.43</ele>
        <time>2013-12-15T10:27:38Z</time>
      </trkpt>
      <trkpt lat="39.690493997" lon="-0.425065421">
        <ele>412.54</ele>
        <time>2013-12-15T10:27:43Z</time>
      </trkpt>
      <trkpt lat="39.690334154" lon="-0.424994091">
        <ele>411.58</ele>
        <time>2013-12-15T10:27:45Z</time>
      </trkpt>
      <trkpt lat="39.690170959" lon="-0.424952935">
        <ele>411.58</ele>
        <time>2013-12-15T10:27:47Z</time>
      </trkpt>
      <trkpt lat="39.689861666" lon="-0.425047483">
        <ele>412.06</ele>
        <time>2013-12-15T10:27:51Z</time>
      </trkpt>
      <trkpt lat="39.689555811" lon="-0.425288128">
        <ele>413.02</ele>
        <time>2013-12-15T10:27:57Z</time>
      </trkpt>
      <trkpt lat="39.689514404" lon="-0.425316207">
        <ele>413.50</ele>
        <time>2013-12-15T10:27:58Z</time>
      </trkpt>
      <trkpt lat="39.689369062" lon="-0.425398098">
        <ele>413.98</ele>
        <time>2013-12-15T10:28:02Z</time>
      </trkpt>
      <trkpt lat="39.689159766" lon="-0.425378652">
        <ele>414.95</ele>
        <time>2013-12-15T10:28:09Z</time>
      </trkpt>
      <trkpt lat="39.689060273" lon="-0.425280835">
        <ele>414.95</ele>
        <time>2013-12-15T10:28:13Z</time>
      </trkpt>
      <trkpt lat="39.689037306" lon="-0.425183941">
        <ele>415.43</ele>
        <time>2013-12-15T10:28:17Z</time>
      </trkpt>
      <trkpt lat="39.689049209" lon="-0.425040023">
        <ele>414.47</ele>
        <time>2013-12-15T10:28:23Z</time>
      </trkpt>
      <trkpt lat="39.689100171" lon="-0.424918570">
        <ele>413.98</ele>
        <time>2013-12-15T10:28:26Z</time>
      </trkpt>
      <trkpt lat="39.689298067" lon="-0.424450776">
        <ele>411.58</ele>
        <time>2013-12-15T10:28:33Z</time>
      </trkpt>
      <trkpt lat="39.689390184" lon="-0.424332004">
        <ele>409.18</ele>
        <time>2013-12-15T10:28:37Z</time>
      </trkpt>
      <trkpt lat="39.689421700" lon="-0.424415488">
        <ele>410.14</ele>
        <time>2013-12-15T10:28:42Z</time>
      </trkpt>
      <trkpt lat="39.689426813" lon="-0.424465779">
        <ele>409.66</ele>
        <time>2013-12-15T10:28:45Z</time>
      </trkpt>
      <trkpt lat="39.689423041" lon="-0.424550688">
        <ele>409.66</ele>
        <time>2013-12-15T10:28:52Z</time>
      </trkpt>
      <trkpt lat="39.689436788" lon="-0.424577510">
        <ele>409.66</ele>
        <time>2013-12-15T10:28:59Z</time>
      </trkpt>
      <trkpt lat="39.689439973" lon="-0.424576504">
        <ele>409.66</ele>
        <time>2013-12-15T10:29:10Z</time>
      </trkpt>
      <trkpt lat="39.689440224" lon="-0.424581617">
        <ele>409.66</ele>
        <time>2013-12-15T10:29:21Z</time>
      </trkpt>
      <trkpt lat="39.689435950" lon="-0.424582204">
        <ele>409.18</ele>
        <time>2013-12-15T10:29:32Z</time>
      </trkpt>
      <trkpt lat="39.689439554" lon="-0.424574409">
        <ele>409.66</ele>
        <time>2013-12-15T10:29:44Z</time>
      </trkpt>
      <trkpt lat="39.689446511" lon="-0.424577761">
        <ele>410.14</ele>
        <time>2013-12-15T10:29:58Z</time>
      </trkpt>
      <trkpt lat="39.689443242" lon="-0.424564602">
        <ele>409.18</ele>
        <time>2013-12-15T10:30:08Z</time>
      </trkpt>
      <trkpt lat="39.689444164" lon="-0.424566614">
        <ele>409.18</ele>
        <time>2013-12-15T10:30:24Z</time>
      </trkpt>
      <trkpt lat="39.689437374" lon="-0.424587065">
        <ele>409.18</ele>
        <time>2013-12-15T10:30:34Z</time>
      </trkpt>
      <trkpt lat="39.689442068" lon="-0.424567871">
        <ele>409.66</ele>
        <time>2013-12-15T10:30:43Z</time>
      </trkpt>
      <trkpt lat="39.689450618" lon="-0.424567116">
        <ele>404.85</ele>
        <time>2013-12-15T10:30:45Z</time>
      </trkpt>
      <trkpt lat="39.689440727" lon="-0.424567284">
        <ele>413.02</ele>
        <time>2013-12-15T11:46:30Z</time>
      </trkpt>
      <trkpt lat="39.689455144" lon="-0.424615564">
        <ele>413.02</ele>
        <time>2013-12-15T11:46:40Z</time>
      </trkpt>
      <trkpt lat="39.689460592" lon="-0.424601398">
        <ele>410.14</ele>
        <time>2013-12-15T11:46:47Z</time>
      </trkpt>
      <trkpt lat="39.689465789" lon="-0.424584132">
        <ele>407.74</ele>
        <time>2013-12-15T11:46:56Z</time>
      </trkpt>
      <trkpt lat="39.689443158" lon="-0.424568625">
        <ele>406.77</ele>
        <time>2013-12-15T11:47:08Z</time>
      </trkpt>
      <trkpt lat="39.689436033" lon="-0.424548006">
        <ele>406.29</ele>
        <time>2013-12-15T11:47:13Z</time>
      </trkpt>
      <trkpt lat="39.689433351" lon="-0.424533002">
        <ele>406.29</ele>
        <time>2013-12-15T11:47:14Z</time>
      </trkpt>
      <trkpt lat="39.689432848" lon="-0.424491763">
        <ele>406.77</ele>
        <time>2013-12-15T11:47:17Z</time>
      </trkpt>
      <trkpt lat="39.689431675" lon="-0.424325047">
        <ele>406.77</ele>
        <time>2013-12-15T11:47:23Z</time>
      </trkpt>
      <trkpt lat="39.689362524" lon="-0.424297974">
        <ele>406.29</ele>
        <time>2013-12-15T11:47:27Z</time>
      </trkpt>
      <trkpt lat="39.689319022" lon="-0.424460918">
        <ele>407.74</ele>
        <time>2013-12-15T11:47:33Z</time>
      </trkpt>
      <trkpt lat="39.689223301" lon="-0.424723104">
        <ele>409.18</ele>
        <time>2013-12-15T11:47:42Z</time>
      </trkpt>
      <trkpt lat="39.689139817" lon="-0.424901135">
        <ele>410.62</ele>
        <time>2013-12-15T11:47:49Z</time>
      </trkpt>
      <trkpt lat="39.689080389" lon="-0.425032061">
        <ele>412.06</ele>
        <time>2013-12-15T11:47:54Z</time>
      </trkpt>
      <trkpt lat="39.689050969" lon="-0.425179498">
        <ele>412.06</ele>
        <time>2013-12-15T11:48:00Z</time>
      </trkpt>
      <trkpt lat="39.689131770" lon="-0.425326936">
        <ele>411.58</ele>
        <time>2013-12-15T11:48:09Z</time>
      </trkpt>
      <trkpt lat="39.689224474" lon="-0.425385693">
        <ele>411.58</ele>
        <time>2013-12-15T11:48:16Z</time>
      </trkpt>
      <trkpt lat="39.689249871" lon="-0.425393488">
        <ele>411.58</ele>
        <time>2013-12-15T11:48:18Z</time>
      </trkpt>
      <trkpt lat="39.689334864" lon="-0.425389130">
        <ele>411.58</ele>
        <time>2013-12-15T11:48:22Z</time>
      </trkpt>
      <trkpt lat="39.689525552" lon="-0.425297013">
        <ele>411.10</ele>
        <time>2013-12-15T11:48:28Z</time>
      </trkpt>
      <trkpt lat="39.689899888" lon="-0.425032731">
        <ele>409.18</ele>
        <time>2013-12-15T11:48:36Z</time>
      </trkpt>
      <trkpt lat="39.690005248" lon="-0.424973471">
        <ele>409.18</ele>
        <time>2013-12-15T11:48:38Z</time>
      </trkpt>
      <trkpt lat="39.690227453" lon="-0.424971962">
        <ele>408.70</ele>
        <time>2013-12-15T11:48:42Z</time>
      </trkpt>
      <trkpt lat="39.690329712" lon="-0.425004819">
        <ele>408.70</ele>
        <time>2013-12-15T11:48:44Z</time>
      </trkpt>
      <trkpt lat="39.690597598" lon="-0.425154017">
        <ele>409.18</ele>
        <time>2013-12-15T11:48:52Z</time>
      </trkpt>
      <trkpt lat="39.690643782" lon="-0.425259797">
        <ele>409.66</ele>
        <time>2013-12-15T11:48:57Z</time>
      </trkpt>
      <trkpt lat="39.690641267" lon="-0.425269017">
        <ele>410.14</ele>
        <time>2013-12-15T11:49:00Z</time>
      </trkpt>
      <trkpt lat="39.690706730" lon="-0.425313525">
        <ele>410.62</ele>
        <time>2013-12-15T11:49:05Z</time>
      </trkpt>
      <trkpt lat="39.690857520" lon="-0.425549392">
        <ele>412.06</ele>
        <time>2013-12-15T11:49:14Z</time>
      </trkpt>
      <trkpt lat="39.690947374" lon="-0.425704625">
        <ele>413.50</ele>
        <time>2013-12-15T11:49:21Z</time>
      </trkpt>
      <trkpt lat="39.691061452" lon="-0.425840495">
        <ele>413.98</ele>
        <time>2013-12-15T11:49:28Z</time>
      </trkpt>
      <trkpt lat="39.691151977" lon="-0.425963039">
        <ele>414.95</ele>
        <time>2013-12-15T11:49:35Z</time>
      </trkpt>
      <trkpt lat="39.691218780" lon="-0.426177364">
        <ele>416.87</ele>
        <time>2013-12-15T11:49:43Z</time>
      </trkpt>
      <trkpt lat="39.691174775" lon="-0.426392443">
        <ele>418.31</ele>
        <time>2013-12-15T11:49:50Z</time>
      </trkpt>
      <trkpt lat="39.691210566" lon="-0.426601656">
        <ele>418.79</ele>
        <time>2013-12-15T11:49:58Z</time>
      </trkpt>
      <trkpt lat="39.691355154" lon="-0.426750937">
        <ele>421.19</ele>
        <time>2013-12-15T11:50:06Z</time>
      </trkpt>
      <trkpt lat="39.691511896" lon="-0.426872475">
        <ele>422.16</ele>
        <time>2013-12-15T11:50:14Z</time>
      </trkpt>
      <trkpt lat="39.691621112" lon="-0.427016141">
        <ele>423.12</ele>
        <time>2013-12-15T11:50:21Z</time>
      </trkpt>
      <trkpt lat="39.691651538" lon="-0.427227616">
        <ele>424.56</ele>
        <time>2013-12-15T11:50:27Z</time>
      </trkpt>
      <trkpt lat="39.691654472" lon="-0.427269107">
        <ele>425.04</ele>
        <time>2013-12-15T11:50:28Z</time>
      </trkpt>
      <trkpt lat="39.691596720" lon="-0.427516121">
        <ele>426.96</ele>
        <time>2013-12-15T11:50:35Z</time>
      </trkpt>
      <trkpt lat="39.691516673" lon="-0.427745786">
        <ele>428.89</ele>
        <time>2013-12-15T11:50:41Z</time>
      </trkpt>
      <trkpt lat="39.691500999" lon="-0.427903701">
        <ele>429.37</ele>
        <time>2013-12-15T11:50:45Z</time>
      </trkpt>
      <trkpt lat="39.691558499" lon="-0.428175610">
        <ele>430.81</ele>
        <time>2013-12-15T11:50:53Z</time>
      </trkpt>
      <trkpt lat="39.691574760" lon="-0.428419607">
        <ele>431.77</ele>
        <time>2013-12-15T11:50:59Z</time>
      </trkpt>
      <trkpt lat="39.691625219" lon="-0.428625215">
        <ele>432.73</ele>
        <time>2013-12-15T11:51:05Z</time>
      </trkpt>
      <trkpt lat="39.691705937" lon="-0.428828057">
        <ele>434.17</ele>
        <time>2013-12-15T11:51:11Z</time>
      </trkpt>
      <trkpt lat="39.691817081" lon="-0.429011369">
        <ele>435.61</ele>
        <time>2013-12-15T11:51:17Z</time>
      </trkpt>
      <trkpt lat="39.691980444" lon="-0.429276405">
        <ele>437.06</ele>
        <time>2013-12-15T11:51:26Z</time>
      </trkpt>
      <trkpt lat="39.692117572" lon="-0.429456951">
        <ele>439.94</ele>
        <time>2013-12-15T11:51:32Z</time>
      </trkpt>
      <trkpt lat="39.692156715" lon="-0.429519480">
        <ele>440.90</ele>
        <time>2013-12-15T11:51:34Z</time>
      </trkpt>
      <trkpt lat="39.692263333" lon="-0.429734308">
        <ele>444.27</ele>
        <time>2013-12-15T11:51:41Z</time>
      </trkpt>
      <trkpt lat="39.692420159" lon="-0.429901024">
        <ele>445.71</ele>
        <time>2013-12-15T11:51:48Z</time>
      </trkpt>
      <trkpt lat="39.692627778" lon="-0.430141082">
        <ele>447.63</ele>
        <time>2013-12-15T11:51:56Z</time>
      </trkpt>
      <trkpt lat="39.692833722" lon="-0.430385666">
        <ele>448.59</ele>
        <time>2013-12-15T11:52:04Z</time>
      </trkpt>
      <trkpt lat="39.693130190" lon="-0.430651121">
        <ele>450.03</ele>
        <time>2013-12-15T11:52:14Z</time>
      </trkpt>
      <trkpt lat="39.693415090" lon="-0.430931076">
        <ele>451.48</ele>
        <time>2013-12-15T11:52:24Z</time>
      </trkpt>
      <trkpt lat="39.693531431" lon="-0.431003915">
        <ele>453.88</ele>
        <time>2013-12-15T11:53:50Z</time>
      </trkpt>
      <trkpt lat="39.693687083" lon="-0.431042472">
        <ele>453.88</ele>
        <time>2013-12-15T11:53:57Z</time>
      </trkpt>
      <trkpt lat="39.693925213" lon="-0.431064768">
        <ele>455.32</ele>
        <time>2013-12-15T11:54:02Z</time>
      </trkpt>
      <trkpt lat="39.694045912" lon="-0.431070887">
        <ele>455.32</ele>
        <time>2013-12-15T11:54:04Z</time>
      </trkpt>
      <trkpt lat="39.694578582" lon="-0.431210026">
        <ele>457.72</ele>
        <time>2013-12-15T11:54:12Z</time>
      </trkpt>
      <trkpt lat="39.694833225" lon="-0.431303820">
        <ele>459.17</ele>
        <time>2013-12-15T11:54:16Z</time>
      </trkpt>
      <trkpt lat="39.695006646" lon="-0.431389734">
        <ele>460.13</ele>
        <time>2013-12-15T11:54:19Z</time>
      </trkpt>
      <trkpt lat="39.695112342" lon="-0.431460058">
        <ele>460.61</ele>
        <time>2013-12-15T11:54:21Z</time>
      </trkpt>
      <trkpt lat="39.695414593" lon="-0.431795418">
        <ele>463.01</ele>
        <time>2013-12-15T11:54:29Z</time>
      </trkpt>
      <trkpt lat="39.695523139" lon="-0.431936737">
        <ele>464.93</ele>
        <time>2013-12-15T11:54:36Z</time>
      </trkpt>
      <trkpt lat="39.695665631" lon="-0.432130024">
        <ele>467.82</ele>
        <time>2013-12-15T11:54:45Z</time>
      </trkpt>
      <trkpt lat="39.695679294" lon="-0.432152739">
        <ele>468.30</ele>
        <time>2013-12-15T11:54:46Z</time>
      </trkpt>
      <trkpt lat="39.695770741" lon="-0.432305709">
        <ele>469.74</ele>
        <time>2013-12-15T11:54:54Z</time>
      </trkpt>
      <trkpt lat="39.695862355" lon="-0.432507796">
        <ele>471.66</ele>
        <time>2013-12-15T11:55:04Z</time>
      </trkpt>
      <trkpt lat="39.695915496" lon="-0.432722876">
        <ele>473.59</ele>
        <time>2013-12-15T11:55:13Z</time>
      </trkpt>
      <trkpt lat="39.695948018" lon="-0.432881881">
        <ele>473.59</ele>
        <time>2013-12-15T11:55:19Z</time>
      </trkpt>
      <trkpt lat="39.695924548" lon="-0.432994617">
        <ele>474.55</ele>
        <time>2013-12-15T11:55:23Z</time>
      </trkpt>
      <trkpt lat="39.695930835" lon="-0.433021858">
        <ele>474.07</ele>
        <time>2013-12-15T11:55:30Z</time>
      </trkpt>
      <trkpt lat="39.695934691" lon="-0.433018506">
        <ele>474.07</ele>
        <time>2013-12-15T11:55:43Z</time>
      </trkpt>
      <trkpt lat="39.695933769" lon="-0.433028480">
        <ele>474.07</ele>
        <time>2013-12-15T11:56:00Z</time>
      </trkpt>
      <trkpt lat="39.695936199" lon="-0.433022026">
        <ele>474.55</ele>
        <time>2013-12-15T11:56:14Z</time>
      </trkpt>
      <trkpt lat="39.695930164" lon="-0.433017584">
        <ele>474.55</ele>
        <time>2013-12-15T11:56:29Z</time>
      </trkpt>
      <trkpt lat="39.695950365" lon="-0.433075000">
        <ele>474.07</ele>
        <time>2013-12-15T11:56:38Z</time>
      </trkpt>
      <trkpt lat="39.696015744" lon="-0.433327127">
        <ele>475.03</ele>
        <time>2013-12-15T11:56:45Z</time>
      </trkpt>
      <trkpt lat="39.696074752" lon="-0.433672462">
        <ele>475.03</ele>
        <time>2013-12-15T11:56:53Z</time>
      </trkpt>
      <trkpt lat="39.696078105" lon="-0.434089964">
        <ele>476.95</ele>
        <time>2013-12-15T11:57:02Z</time>
      </trkpt>
      <trkpt lat="39.696059497" lon="-0.434378721">
        <ele>478.87</ele>
        <time>2013-12-15T11:57:09Z</time>
      </trkpt>
      <trkpt lat="39.696020186" lon="-0.434724474">
        <ele>481.76</ele>
        <time>2013-12-15T11:57:17Z</time>
      </trkpt>
      <trkpt lat="39.695958579" lon="-0.435039969">
        <ele>483.20</ele>
        <time>2013-12-15T11:57:25Z</time>
      </trkpt>
      <trkpt lat="39.695894709" lon="-0.435222024">
        <ele>483.68</ele>
        <time>2013-12-15T11:57:32Z</time>
      </trkpt>
      <trkpt lat="39.695807034" lon="-0.435430566">
        <ele>484.64</ele>
        <time>2013-12-15T11:57:40Z</time>
      </trkpt>
      <trkpt lat="39.695727406" lon="-0.435679425">
        <ele>485.60</ele>
        <time>2013-12-15T11:57:49Z</time>
      </trkpt>
      <trkpt lat="39.695669152" lon="-0.435976395">
        <ele>486.56</ele>
        <time>2013-12-15T11:58:00Z</time>
      </trkpt>
      <trkpt lat="39.695584159" lon="-0.436212849">
        <ele>488.49</ele>
        <time>2013-12-15T11:58:10Z</time>
      </trkpt>
      <trkpt lat="39.695558930" lon="-0.436329190">
        <ele>489.93</ele>
        <time>2013-12-15T11:58:15Z</time>
      </trkpt>
      <trkpt lat="39.695574185" lon="-0.436406219">
        <ele>489.93</ele>
        <time>2013-12-15T11:58:18Z</time>
      </trkpt>
      <trkpt lat="39.695676696" lon="-0.436407560">
        <ele>491.37</ele>
        <time>2013-12-15T11:58:24Z</time>
      </trkpt>
      <trkpt lat="39.695751043" lon="-0.436196001">
        <ele>492.81</ele>
        <time>2013-12-15T11:58:32Z</time>
      </trkpt>
      <trkpt lat="39.695815416" lon="-0.435976060">
        <ele>493.29</ele>
        <time>2013-12-15T11:58:41Z</time>
      </trkpt>
      <trkpt lat="39.695876855" lon="-0.435770117">
        <ele>494.74</ele>
        <time>2013-12-15T11:58:49Z</time>
      </trkpt>
      <trkpt lat="39.695991771" lon="-0.435523437">
        <ele>496.18</ele>
        <time>2013-12-15T11:59:00Z</time>
      </trkpt>
      <trkpt lat="39.696138287" lon="-0.435244236">
        <ele>497.14</ele>
        <time>2013-12-15T11:59:13Z</time>
      </trkpt>
      <trkpt lat="39.696216490" lon="-0.435076766">
        <ele>497.62</ele>
        <time>2013-12-15T11:59:21Z</time>
      </trkpt>
      <trkpt lat="39.696269967" lon="-0.434879037">
        <ele>499.54</ele>
        <time>2013-12-15T11:59:30Z</time>
      </trkpt>
      <trkpt lat="39.696354959" lon="-0.434663957">
        <ele>500.98</ele>
        <time>2013-12-15T11:59:40Z</time>
      </trkpt>
      <trkpt lat="39.696428301" lon="-0.434524734">
        <ele>502.91</ele>
        <time>2013-12-15T11:59:48Z</time>
      </trkpt>
      <trkpt lat="39.696530728" lon="-0.434410824">
        <ele>504.83</ele>
        <time>2013-12-15T11:59:56Z</time>
      </trkpt>
      <trkpt lat="39.696636340" lon="-0.434362544">
        <ele>505.79</ele>
        <time>2013-12-15T12:00:03Z</time>
      </trkpt>
      <trkpt lat="39.696752513" lon="-0.434395066">
        <ele>506.75</ele>
        <time>2013-12-15T12:00:10Z</time>
      </trkpt>
      <trkpt lat="39.696868015" lon="-0.434389953">
        <ele>508.19</ele>
        <time>2013-12-15T12:00:17Z</time>
      </trkpt>
      <trkpt lat="39.697040599" lon="-0.434288364">
        <ele>508.67</ele>
        <time>2013-12-15T12:00:28Z</time>
      </trkpt>
      <trkpt lat="39.697088627" lon="-0.434156936">
        <ele>510.12</ele>
        <time>2013-12-15T12:00:35Z</time>
      </trkpt>
      <trkpt lat="39.697078485" lon="-0.433971360">
        <ele>511.08</ele>
        <time>2013-12-15T12:00:44Z</time>
      </trkpt>
      <trkpt lat="39.697022662" lon="-0.433808668">
        <ele>512.52</ele>
        <time>2013-12-15T12:00:52Z</time>
      </trkpt>
      <trkpt lat="39.697055351" lon="-0.433627367">
        <ele>513.96</ele>
        <time>2013-12-15T12:01:00Z</time>
      </trkpt>
      <trkpt lat="39.697125508" lon="-0.433506919">
        <ele>515.88</ele>
        <time>2013-12-15T12:01:08Z</time>
      </trkpt>
      <trkpt lat="39.697249057" lon="-0.433447156">
        <ele>516.37</ele>
        <time>2013-12-15T12:01:15Z</time>
      </trkpt>
      <trkpt lat="39.697428429" lon="-0.433447324">
        <ele>515.88</ele>
        <time>2013-12-15T12:01:23Z</time>
      </trkpt>
      <trkpt lat="39.697723556" lon="-0.433498789">
        <ele>515.40</ele>
        <time>2013-12-15T12:01:32Z</time>
      </trkpt>
      <trkpt lat="39.697944336" lon="-0.433565341">
        <ele>516.37</ele>
        <time>2013-12-15T12:01:41Z</time>
      </trkpt>
      <trkpt lat="39.698173832" lon="-0.433589984">
        <ele>518.29</ele>
        <time>2013-12-15T12:01:52Z</time>
      </trkpt>
      <trkpt lat="39.698334010" lon="-0.433559055">
        <ele>518.77</ele>
        <time>2013-12-15T12:01:59Z</time>
      </trkpt>
      <trkpt lat="39.698554790" lon="-0.433480935">
        <ele>519.25</ele>
        <time>2013-12-15T12:02:09Z</time>
      </trkpt>
      <trkpt lat="39.698782610" lon="-0.433466770">
        <ele>520.21</ele>
        <time>2013-12-15T12:02:19Z</time>
      </trkpt>
      <trkpt lat="39.699007580" lon="-0.433619572">
        <ele>520.21</ele>
        <time>2013-12-15T12:02:29Z</time>
      </trkpt>
      <trkpt lat="39.699225342" lon="-0.433854014">
        <ele>520.69</ele>
        <time>2013-12-15T12:02:40Z</time>
      </trkpt>
      <trkpt lat="39.699396500" lon="-0.434100945">
        <ele>520.69</ele>
        <time>2013-12-15T12:02:50Z</time>
      </trkpt>
      <trkpt lat="39.699538406" lon="-0.434136316">
        <ele>522.13</ele>
        <time>2013-12-15T12:02:57Z</time>
      </trkpt>
      <trkpt lat="39.699558187" lon="-0.434128689">
        <ele>522.13</ele>
        <time>2013-12-15T12:02:58Z</time>
      </trkpt>
      <trkpt lat="39.699642174" lon="-0.434047887">
        <ele>522.61</ele>
        <time>2013-12-15T12:03:03Z</time>
      </trkpt>
      <trkpt lat="39.699826911" lon="-0.433935402">
        <ele>524.06</ele>
        <time>2013-12-15T12:03:12Z</time>
      </trkpt>
      <trkpt lat="39.699978624" lon="-0.433911346">
        <ele>525.98</ele>
        <time>2013-12-15T12:03:20Z</time>
      </trkpt>
      <trkpt lat="39.700179789" lon="-0.433907071">
        <ele>526.94</ele>
        <time>2013-12-15T12:03:31Z</time>
      </trkpt>
      <trkpt lat="39.700335190" lon="-0.433946466">
        <ele>528.38</ele>
        <time>2013-12-15T12:03:38Z</time>
      </trkpt>
      <trkpt lat="39.700427977" lon="-0.434141597">
        <ele>528.38</ele>
        <time>2013-12-15T12:03:45Z</time>
      </trkpt>
      <trkpt lat="39.700411130" lon="-0.434350893">
        <ele>527.42</ele>
        <time>2013-12-15T12:03:50Z</time>
      </trkpt>
      <trkpt lat="39.700308619" lon="-0.434683403">
        <ele>527.42</ele>
        <time>2013-12-15T12:03:57Z</time>
      </trkpt>
      <trkpt lat="39.700263692" lon="-0.435011722">
        <ele>527.90</ele>
        <time>2013-12-15T12:04:06Z</time>
      </trkpt>
      <trkpt lat="39.700249359" lon="-0.435262006">
        <ele>530.79</ele>
        <time>2013-12-15T12:04:15Z</time>
      </trkpt>
      <trkpt lat="39.700236451" lon="-0.435495190">
        <ele>531.75</ele>
        <time>2013-12-15T12:04:25Z</time>
      </trkpt>
      <trkpt lat="39.700207785" lon="-0.435784953">
        <ele>530.79</ele>
        <time>2013-12-15T12:04:33Z</time>
      </trkpt>
      <trkpt lat="39.700259753" lon="-0.435949573">
        <ele>529.34</ele>
        <time>2013-12-15T12:04:37Z</time>
      </trkpt>
      <trkpt lat="39.700387409" lon="-0.435900958">
        <ele>530.79</ele>
        <time>2013-12-15T12:04:41Z</time>
      </trkpt>
      <trkpt lat="39.700561920" lon="-0.435662325">
        <ele>533.19</ele>
        <time>2013-12-15T12:04:50Z</time>
      </trkpt>
      <trkpt lat="39.700689744" lon="-0.435387734">
        <ele>533.19</ele>
        <time>2013-12-15T12:04:59Z</time>
      </trkpt>
      <trkpt lat="39.700769372" lon="-0.435131332">
        <ele>534.15</ele>
        <time>2013-12-15T12:05:07Z</time>
      </trkpt>
      <trkpt lat="39.700962575" lon="-0.434972746">
        <ele>535.59</ele>
        <time>2013-12-15T12:05:15Z</time>
      </trkpt>
      <trkpt lat="39.701144462" lon="-0.434819106">
        <ele>535.59</ele>
        <time>2013-12-15T12:05:22Z</time>
      </trkpt>
      <trkpt lat="39.701319057" lon="-0.434731096">
        <ele>537.99</ele>
        <time>2013-12-15T12:05:29Z</time>
      </trkpt>
      <trkpt lat="39.701372869" lon="-0.434734700">
        <ele>538.48</ele>
        <time>2013-12-15T12:05:31Z</time>
      </trkpt>
      <trkpt lat="39.701521061" lon="-0.434836708">
        <ele>540.40</ele>
        <time>2013-12-15T12:05:38Z</time>
      </trkpt>
      <trkpt lat="39.701676965" lon="-0.434980458">
        <ele>541.36</ele>
        <time>2013-12-15T12:05:46Z</time>
      </trkpt>
      <trkpt lat="39.701818703" lon="-0.435029743">
        <ele>543.28</ele>
        <time>2013-12-15T12:05:52Z</time>
      </trkpt>
      <trkpt lat="39.702065215" lon="-0.435041394">
        <ele>544.72</ele>
        <time>2013-12-15T12:06:02Z</time>
      </trkpt>
      <trkpt lat="39.702261183" lon="-0.435148180">
        <ele>546.65</ele>
        <time>2013-12-15T12:06:10Z</time>
      </trkpt>
      <trkpt lat="39.702483136" lon="-0.435229400">
        <ele>548.57</ele>
        <time>2013-12-15T12:06:19Z</time>
      </trkpt>
      <trkpt lat="39.702661671" lon="-0.435215989">
        <ele>550.01</ele>
        <time>2013-12-15T12:06:26Z</time>
      </trkpt>
      <trkpt lat="39.702852191" lon="-0.435292432">
        <ele>551.93</ele>
        <time>2013-12-15T12:06:34Z</time>
      </trkpt>
      <trkpt lat="39.703019243" lon="-0.435468955">
        <ele>553.86</ele>
        <time>2013-12-15T12:06:43Z</time>
      </trkpt>
      <trkpt lat="39.703031648" lon="-0.435495023">
        <ele>553.86</ele>
        <time>2013-12-15T12:06:44Z</time>
      </trkpt>
      <trkpt lat="39.703130471" lon="-0.435753772">
        <ele>555.30</ele>
        <time>2013-12-15T12:06:54Z</time>
      </trkpt>
      <trkpt lat="39.703207165" lon="-0.435964996">
        <ele>555.78</ele>
        <time>2013-12-15T12:07:02Z</time>
      </trkpt>
      <trkpt lat="39.703344628" lon="-0.436181584">
        <ele>557.22</ele>
        <time>2013-12-15T12:07:12Z</time>
      </trkpt>
      <trkpt lat="39.703452000" lon="-0.436404124">
        <ele>556.74</ele>
        <time>2013-12-15T12:07:20Z</time>
      </trkpt>
      <trkpt lat="39.703589547" lon="-0.436450308">
        <ele>557.22</ele>
        <time>2013-12-15T12:07:25Z</time>
      </trkpt>
      <trkpt lat="39.703794904" lon="-0.436468162">
        <ele>558.66</ele>
        <time>2013-12-15T12:07:33Z</time>
      </trkpt>
      <trkpt lat="39.703960782" lon="-0.436602440">
        <ele>560.11</ele>
        <time>2013-12-15T12:07:41Z</time>
      </trkpt>
      <trkpt lat="39.704092881" lon="-0.436847778">
        <ele>561.07</ele>
        <time>2013-12-15T12:07:50Z</time>
      </trkpt>
      <trkpt lat="39.704216430" lon="-0.437088758">
        <ele>561.07</ele>
        <time>2013-12-15T12:07:57Z</time>
      </trkpt>
      <trkpt lat="39.704356575" lon="-0.437309202">
        <ele>561.55</ele>
        <time>2013-12-15T12:08:04Z</time>
      </trkpt>
      <trkpt lat="39.704521280" lon="-0.437411293">
        <ele>564.43</ele>
        <time>2013-12-15T12:08:12Z</time>
      </trkpt>
      <trkpt lat="39.704670478" lon="-0.437539788">
        <ele>566.35</ele>
        <time>2013-12-15T12:08:19Z</time>
      </trkpt>
      <trkpt lat="39.704855047" lon="-0.437798286">
        <ele>566.83</ele>
        <time>2013-12-15T12:08:29Z</time>
      </trkpt>
      <trkpt lat="39.704979016" lon="-0.438049659">
        <ele>567.32</ele>
        <time>2013-12-15T12:08:37Z</time>
      </trkpt>
      <trkpt lat="39.705082029" lon="-0.438321652">
        <ele>568.28</ele>
        <time>2013-12-15T12:08:46Z</time>
      </trkpt>
      <trkpt lat="39.705183702" lon="-0.438630776">
        <ele>568.76</ele>
        <time>2013-12-15T12:08:55Z</time>
      </trkpt>
      <trkpt lat="39.705245560" lon="-0.438873265">
        <ele>569.72</ele>
        <time>2013-12-15T12:09:02Z</time>
      </trkpt>
      <trkpt lat="39.705318483" lon="-0.439135199">
        <ele>571.64</ele>
        <time>2013-12-15T12:09:10Z</time>
      </trkpt>
      <trkpt lat="39.705363493" lon="-0.439413060">
        <ele>574.04</ele>
        <time>2013-12-15T12:09:19Z</time>
      </trkpt>
      <trkpt lat="39.705375982" lon="-0.439532418">
        <ele>575.01</ele>
        <time>2013-12-15T12:09:23Z</time>
      </trkpt>
      <trkpt lat="39.705374222" lon="-0.439579440">
        <ele>575.01</ele>
        <time>2013-12-15T12:09:30Z</time>
      </trkpt>
      <trkpt lat="39.705360224" lon="-0.439581787">
        <ele>575.01</ele>
        <time>2013-12-15T12:09:42Z</time>
      </trkpt>
      <trkpt lat="39.705346394" lon="-0.439550774">
        <ele>574.53</ele>
        <time>2013-12-15T12:10:54Z</time>
      </trkpt>
      <trkpt lat="39.705353603" lon="-0.439548595">
        <ele>575.01</ele>
        <time>2013-12-15T12:11:20Z</time>
      </trkpt>
      <trkpt lat="39.705342790" lon="-0.439570555">
        <ele>575.01</ele>
        <time>2013-12-15T12:11:50Z</time>
      </trkpt>
      <trkpt lat="39.705340611" lon="-0.439654877">
        <ele>575.49</ele>
        <time>2013-12-15T12:11:55Z</time>
      </trkpt>
      <trkpt lat="39.705351843" lon="-0.439912789">
        <ele>575.97</ele>
        <time>2013-12-15T12:12:01Z</time>
      </trkpt>
      <trkpt lat="39.705314208" lon="-0.440396257">
        <ele>576.93</ele>
        <time>2013-12-15T12:12:11Z</time>
      </trkpt>
      <trkpt lat="39.705202226" lon="-0.440781908">
        <ele>577.89</ele>
        <time>2013-12-15T12:12:19Z</time>
      </trkpt>
      <trkpt lat="39.705112288" lon="-0.441217432">
        <ele>578.85</ele>
        <time>2013-12-15T12:12:28Z</time>
      </trkpt>
      <trkpt lat="39.705039617" lon="-0.441643903">
        <ele>582.22</ele>
        <time>2013-12-15T12:12:38Z</time>
      </trkpt>
      <trkpt lat="39.704909110" lon="-0.441981945">
        <ele>582.70</ele>
        <time>2013-12-15T12:12:46Z</time>
      </trkpt>
      <trkpt lat="39.704881869" lon="-0.442023184">
        <ele>582.70</ele>
        <time>2013-12-15T12:12:47Z</time>
      </trkpt>
      <trkpt lat="39.704731330" lon="-0.442250334">
        <ele>581.73</ele>
        <time>2013-12-15T12:12:52Z</time>
      </trkpt>
      <trkpt lat="39.704587329" lon="-0.442539174">
        <ele>581.73</ele>
        <time>2013-12-15T12:12:57Z</time>
      </trkpt>
      <trkpt lat="39.704442574" lon="-0.443101432">
        <ele>582.22</ele>
        <time>2013-12-15T12:13:05Z</time>
      </trkpt>
      <trkpt lat="39.704430420" lon="-0.443175696">
        <ele>582.22</ele>
        <time>2013-12-15T12:13:06Z</time>
      </trkpt>
      <trkpt lat="39.704447687" lon="-0.443678191">
        <ele>582.70</ele>
        <time>2013-12-15T12:13:13Z</time>
      </trkpt>
      <trkpt lat="39.704529662" lon="-0.444049342">
        <ele>583.66</ele>
        <time>2013-12-15T12:13:19Z</time>
      </trkpt>
      <trkpt lat="39.704551790" lon="-0.444171885">
        <ele>584.62</ele>
        <time>2013-12-15T12:13:21Z</time>
      </trkpt>
      <trkpt lat="39.704678021" lon="-0.444399957">
        <ele>584.62</ele>
        <time>2013-12-15T12:13:26Z</time>
      </trkpt>
      <trkpt lat="39.704837361" lon="-0.444358801">
        <ele>585.58</ele>
        <time>2013-12-15T12:13:30Z</time>
      </trkpt>
      <trkpt lat="39.704903075" lon="-0.444288645">
        <ele>586.54</ele>
        <time>2013-12-15T12:13:32Z</time>
      </trkpt>
      <trkpt lat="39.705080856" lon="-0.444101142">
        <ele>587.98</ele>
        <time>2013-12-15T12:13:39Z</time>
      </trkpt>
      <trkpt lat="39.705296522" lon="-0.444040289">
        <ele>587.98</ele>
        <time>2013-12-15T12:13:46Z</time>
      </trkpt>
      <trkpt lat="39.705482516" lon="-0.444061160">
        <ele>589.43</ele>
        <time>2013-12-15T12:13:52Z</time>
      </trkpt>
      <trkpt lat="39.705728525" lon="-0.444144057">
        <ele>588.46</ele>
        <time>2013-12-15T12:13:59Z</time>
      </trkpt>
      <trkpt lat="39.705846459" lon="-0.444207340">
        <ele>587.98</ele>
        <time>2013-12-15T12:14:02Z</time>
      </trkpt>
      <trkpt lat="39.706011079" lon="-0.444364417">
        <ele>587.98</ele>
        <time>2013-12-15T12:14:07Z</time>
      </trkpt>
      <trkpt lat="39.706196487" lon="-0.444572456">
        <ele>587.98</ele>
        <time>2013-12-15T12:14:14Z</time>
      </trkpt>
      <trkpt lat="39.706401424" lon="-0.444991719">
        <ele>588.95</ele>
        <time>2013-12-15T12:14:26Z</time>
      </trkpt>
      <trkpt lat="39.706528913" lon="-0.445066821">
        <ele>589.91</ele>
        <time>2013-12-15T12:14:32Z</time>
      </trkpt>
      <trkpt lat="39.706645925" lon="-0.444978392">
        <ele>591.35</ele>
        <time>2013-12-15T12:14:37Z</time>
      </trkpt>
      <trkpt lat="39.706731504" lon="-0.444640853">
        <ele>594.23</ele>
        <time>2013-12-15T12:14:47Z</time>
      </trkpt>
      <trkpt lat="39.706767043" lon="-0.444432814">
        <ele>595.67</ele>
        <time>2013-12-15T12:14:53Z</time>
      </trkpt>
      <trkpt lat="39.706840804" lon="-0.444185548">
        <ele>597.12</ele>
        <time>2013-12-15T12:15:00Z</time>
      </trkpt>
      <trkpt lat="39.706995031" lon="-0.443995027">
        <ele>598.08</ele>
        <time>2013-12-15T12:15:07Z</time>
      </trkpt>
      <trkpt lat="39.707167447" lon="-0.443786904">
        <ele>599.52</ele>
        <time>2013-12-15T12:15:15Z</time>
      </trkpt>
      <trkpt lat="39.707370624" lon="-0.443535279">
        <ele>600.48</ele>
        <time>2013-12-15T12:15:24Z</time>
      </trkpt>
      <trkpt lat="39.707494928" lon="-0.443270998">
        <ele>601.44</ele>
        <time>2013-12-15T12:15:32Z</time>
      </trkpt>
      <trkpt lat="39.707646891" lon="-0.443014093">
        <ele>604.33</ele>
        <time>2013-12-15T12:15:41Z</time>
      </trkpt>
      <trkpt lat="39.707868258" lon="-0.442802534">
        <ele>606.73</ele>
        <time>2013-12-15T12:15:51Z</time>
      </trkpt>
      <trkpt lat="39.708077805" lon="-0.442753751">
        <ele>609.61</ele>
        <time>2013-12-15T12:15:59Z</time>
      </trkpt>
      <trkpt lat="39.708312247" lon="-0.442785686">
        <ele>610.57</ele>
        <time>2013-12-15T12:16:08Z</time>
      </trkpt>
      <trkpt lat="39.708390953" lon="-0.442809910">
        <ele>612.02</ele>
        <time>2013-12-15T12:16:11Z</time>
      </trkpt>
      <trkpt lat="39.708576445" lon="-0.442908732">
        <ele>613.94</ele>
        <time>2013-12-15T12:16:19Z</time>
      </trkpt>
      <trkpt lat="39.708795212" lon="-0.443152478">
        <ele>616.34</ele>
        <time>2013-12-15T12:16:30Z</time>
      </trkpt>
      <trkpt lat="39.708985146" lon="-0.443343502">
        <ele>617.78</ele>
        <time>2013-12-15T12:16:40Z</time>
      </trkpt>
      <trkpt lat="39.709034348" lon="-0.443394296">
        <ele>617.78</ele>
        <time>2013-12-15T12:16:45Z</time>
      </trkpt>
      <trkpt lat="39.709163932" lon="-0.443453053">
        <ele>617.78</ele>
        <time>2013-12-15T12:16:53Z</time>
      </trkpt>
      <trkpt lat="39.709328720" lon="-0.443563694">
        <ele>618.75</ele>
        <time>2013-12-15T12:17:01Z</time>
      </trkpt>
      <trkpt lat="39.709504908" lon="-0.443735858">
        <ele>618.75</ele>
        <time>2013-12-15T12:17:09Z</time>
      </trkpt>
      <trkpt lat="39.709644802" lon="-0.444071805">
        <ele>619.71</ele>
        <time>2013-12-15T12:17:19Z</time>
      </trkpt>
      <trkpt lat="39.709815206" lon="-0.444394341">
        <ele>621.15</ele>
        <time>2013-12-15T12:17:29Z</time>
      </trkpt>
      <trkpt lat="39.709962057" lon="-0.444544461">
        <ele>622.11</ele>
        <time>2013-12-15T12:17:36Z</time>
      </trkpt>
      <trkpt lat="39.710097844" lon="-0.444698688">
        <ele>623.55</ele>
        <time>2013-12-15T12:17:43Z</time>
      </trkpt>
      <trkpt lat="39.710226674" lon="-0.445010914">
        <ele>624.99</ele>
        <time>2013-12-15T12:17:53Z</time>
      </trkpt>
      <trkpt lat="39.710276294" lon="-0.445229681">
        <ele>627.40</ele>
        <time>2013-12-15T12:18:00Z</time>
      </trkpt>
      <trkpt lat="39.710296663" lon="-0.445476361">
        <ele>629.32</ele>
        <time>2013-12-15T12:18:07Z</time>
      </trkpt>
      <trkpt lat="39.710335387" lon="-0.445772745">
        <ele>630.76</ele>
        <time>2013-12-15T12:18:16Z</time>
      </trkpt>
      <trkpt lat="39.710464384" lon="-0.445952453">
        <ele>632.20</ele>
        <time>2013-12-15T12:18:24Z</time>
      </trkpt>
      <trkpt lat="39.710621294" lon="-0.446222099">
        <ele>634.61</ele>
        <time>2013-12-15T12:18:35Z</time>
      </trkpt>
      <trkpt lat="39.710705532" lon="-0.446349001">
        <ele>636.05</ele>
        <time>2013-12-15T12:18:40Z</time>
      </trkpt>
      <trkpt lat="39.710899405" lon="-0.446575731">
        <ele>637.97</ele>
        <time>2013-12-15T12:18:50Z</time>
      </trkpt>
      <trkpt lat="39.711020775" lon="-0.446785195">
        <ele>639.89</ele>
        <time>2013-12-15T12:18:59Z</time>
      </trkpt>
      <trkpt lat="39.711148012" lon="-0.446981331">
        <ele>640.86</ele>
        <time>2013-12-15T12:19:08Z</time>
      </trkpt>
      <trkpt lat="39.711287655" lon="-0.447227927">
        <ele>643.74</ele>
        <time>2013-12-15T12:19:19Z</time>
      </trkpt>
      <trkpt lat="39.711369714" lon="-0.447391206">
        <ele>646.14</ele>
        <time>2013-12-15T12:19:26Z</time>
      </trkpt>
      <trkpt lat="39.711470045" lon="-0.447691865">
        <ele>648.55</ele>
        <time>2013-12-15T12:19:37Z</time>
      </trkpt>
      <trkpt lat="39.711565096" lon="-0.447909795">
        <ele>651.43</ele>
        <time>2013-12-15T12:19:46Z</time>
      </trkpt>
      <trkpt lat="39.711669702" lon="-0.448128060">
        <ele>652.87</ele>
        <time>2013-12-15T12:19:55Z</time>
      </trkpt>
      <trkpt lat="39.711801801" lon="-0.448401226">
        <ele>654.80</ele>
        <time>2013-12-15T12:20:09Z</time>
      </trkpt>
      <trkpt lat="39.711813619" lon="-0.448392928">
        <ele>654.80</ele>
        <time>2013-12-15T12:20:15Z</time>
      </trkpt>
      <trkpt lat="39.711789731" lon="-0.448414301">
        <ele>654.80</ele>
        <time>2013-12-15T12:20:42Z</time>
      </trkpt>
      <trkpt lat="39.711801549" lon="-0.448400723">
        <ele>654.80</ele>
        <time>2013-12-15T12:20:55Z</time>
      </trkpt>
      <trkpt lat="39.711817978" lon="-0.448387228">
        <ele>654.80</ele>
        <time>2013-12-15T12:21:04Z</time>
      </trkpt>
      <trkpt lat="39.711811692" lon="-0.448398963">
        <ele>654.80</ele>
        <time>2013-12-15T12:21:15Z</time>
      </trkpt>
      <trkpt lat="39.711805992" lon="-0.448418660">
        <ele>654.80</ele>
        <time>2013-12-15T12:21:27Z</time>
      </trkpt>
      <trkpt lat="39.711791407" lon="-0.448430730">
        <ele>654.80</ele>
        <time>2013-12-15T12:21:42Z</time>
      </trkpt>
      <trkpt lat="39.711774644" lon="-0.448440788">
        <ele>654.31</ele>
        <time>2013-12-15T12:21:56Z</time>
      </trkpt>
      <trkpt lat="39.711795012" lon="-0.448387647">
        <ele>654.80</ele>
        <time>2013-12-15T12:22:13Z</time>
      </trkpt>
      <trkpt lat="39.711789479" lon="-0.448382450">
        <ele>655.28</ele>
        <time>2013-12-15T12:22:29Z</time>
      </trkpt>
      <trkpt lat="39.711804735" lon="-0.448394520">
        <ele>655.28</ele>
        <time>2013-12-15T12:22:47Z</time>
      </trkpt>
      <trkpt lat="39.711817224" lon="-0.448391838">
        <ele>655.28</ele>
        <time>2013-12-15T12:23:04Z</time>
      </trkpt>
      <trkpt lat="39.711808842" lon="-0.448404159">
        <ele>654.80</ele>
        <time>2013-12-15T12:23:12Z</time>
      </trkpt>
      <trkpt lat="39.711801214" lon="-0.448404243">
        <ele>655.28</ele>
        <time>2013-12-15T12:23:16Z</time>
      </trkpt>
      <trkpt lat="39.711807584" lon="-0.448446488">
        <ele>655.28</ele>
        <time>2013-12-15T12:23:19Z</time>
      </trkpt>
      <trkpt lat="39.711868018" lon="-0.448620161">
        <ele>657.20</ele>
        <time>2013-12-15T12:23:28Z</time>
      </trkpt>
      <trkpt lat="39.711898109" lon="-0.448814034">
        <ele>657.68</ele>
        <time>2013-12-15T12:23:36Z</time>
      </trkpt>
      <trkpt lat="39.711917387" lon="-0.448976057">
        <ele>658.16</ele>
        <time>2013-12-15T12:23:43Z</time>
      </trkpt>
      <trkpt lat="39.711983018" lon="-0.449195579">
        <ele>659.12</ele>
        <time>2013-12-15T12:23:54Z</time>
      </trkpt>
      <trkpt lat="39.712076476" lon="-0.449364558">
        <ele>660.08</ele>
        <time>2013-12-15T12:24:03Z</time>
      </trkpt>
      <trkpt lat="39.712137999" lon="-0.449527837">
        <ele>662.01</ele>
        <time>2013-12-15T12:24:12Z</time>
      </trkpt>
      <trkpt lat="39.712201031" lon="-0.449712826">
        <ele>662.97</ele>
        <time>2013-12-15T12:24:21Z</time>
      </trkpt>
      <trkpt lat="39.712258028" lon="-0.449895132">
        <ele>663.93</ele>
        <time>2013-12-15T12:24:30Z</time>
      </trkpt>
      <trkpt lat="39.712356683" lon="-0.450046761">
        <ele>665.37</ele>
        <time>2013-12-15T12:24:39Z</time>
      </trkpt>
      <trkpt lat="39.712458607" lon="-0.450250609">
        <ele>666.81</ele>
        <time>2013-12-15T12:24:50Z</time>
      </trkpt>
      <trkpt lat="39.712522393" lon="-0.450451523">
        <ele>669.22</ele>
        <time>2013-12-15T12:25:00Z</time>
      </trkpt>
      <trkpt lat="39.712553741" lon="-0.450648833">
        <ele>671.62</ele>
        <time>2013-12-15T12:25:09Z</time>
      </trkpt>
      <trkpt lat="39.712515185" lon="-0.450842623">
        <ele>673.06</ele>
        <time>2013-12-15T12:25:19Z</time>
      </trkpt>
      <trkpt lat="39.712448297" lon="-0.451028282">
        <ele>674.50</ele>
        <time>2013-12-15T12:25:28Z</time>
      </trkpt>
      <trkpt lat="39.712423822" lon="-0.451104641">
        <ele>675.46</ele>
        <time>2013-12-15T12:25:32Z</time>
      </trkpt>
      <trkpt lat="39.712438239" lon="-0.451209331">
        <ele>675.94</ele>
        <time>2013-12-15T12:25:39Z</time>
      </trkpt>
      <trkpt lat="39.712448381" lon="-0.451313937">
        <ele>675.94</ele>
        <time>2013-12-15T12:25:46Z</time>
      </trkpt>
      <trkpt lat="39.712465815" lon="-0.451512085">
        <ele>677.39</ele>
        <time>2013-12-15T12:25:57Z</time>
      </trkpt>
      <trkpt lat="39.712491967" lon="-0.451714676">
        <ele>677.87</ele>
        <time>2013-12-15T12:26:07Z</time>
      </trkpt>
      <trkpt lat="39.712544102" lon="-0.451867729">
        <ele>678.35</ele>
        <time>2013-12-15T12:26:15Z</time>
      </trkpt>
      <trkpt lat="39.712552652" lon="-0.451886589">
        <ele>677.87</ele>
        <time>2013-12-15T12:26:22Z</time>
      </trkpt>
      <trkpt lat="39.712547790" lon="-0.451907460">
        <ele>677.87</ele>
        <time>2013-12-15T12:26:37Z</time>
      </trkpt>
      <trkpt lat="39.712557346" lon="-0.451980634">
        <ele>678.35</ele>
        <time>2013-12-15T12:26:44Z</time>
      </trkpt>
      <trkpt lat="39.712560866" lon="-0.451982897">
        <ele>678.35</ele>
        <time>2013-12-15T12:26:50Z</time>
      </trkpt>
      <trkpt lat="39.712577295" lon="-0.452018185">
        <ele>678.83</ele>
        <time>2013-12-15T12:27:01Z</time>
      </trkpt>
      <trkpt lat="39.712630603" lon="-0.452059759">
        <ele>678.83</ele>
        <time>2013-12-15T12:27:05Z</time>
      </trkpt>
      <trkpt lat="39.712699838" lon="-0.452243323">
        <ele>679.31</ele>
        <time>2013-12-15T12:27:13Z</time>
      </trkpt>
      <trkpt lat="39.712732527" lon="-0.452431748">
        <ele>680.27</ele>
        <time>2013-12-15T12:27:23Z</time>
      </trkpt>
      <trkpt lat="39.712753817" lon="-0.452583041">
        <ele>681.23</ele>
        <time>2013-12-15T12:27:32Z</time>
      </trkpt>
      <trkpt lat="39.712750381" lon="-0.452638529">
        <ele>682.67</ele>
        <time>2013-12-15T12:27:35Z</time>
      </trkpt>
      <trkpt lat="39.712753734" lon="-0.452745650">
        <ele>683.15</ele>
        <time>2013-12-15T12:27:42Z</time>
      </trkpt>
      <trkpt lat="39.712743172" lon="-0.452917982">
        <ele>684.60</ele>
        <time>2013-12-15T12:27:52Z</time>
      </trkpt>
      <trkpt lat="39.712740071" lon="-0.452950001">
        <ele>684.60</ele>
        <time>2013-12-15T12:27:54Z</time>
      </trkpt>
      <trkpt lat="39.712731689" lon="-0.453079753">
        <ele>686.04</ele>
        <time>2013-12-15T12:28:02Z</time>
      </trkpt>
      <trkpt lat="39.712724648" lon="-0.453240182">
        <ele>687.00</ele>
        <time>2013-12-15T12:28:10Z</time>
      </trkpt>
      <trkpt lat="39.712719116" lon="-0.453390134">
        <ele>687.96</ele>
        <time>2013-12-15T12:28:18Z</time>
      </trkpt>
      <trkpt lat="39.712708388" lon="-0.453547211">
        <ele>688.92</ele>
        <time>2013-12-15T12:28:26Z</time>
      </trkpt>
      <trkpt lat="39.712686595" lon="-0.453750221">
        <ele>689.88</ele>
        <time>2013-12-15T12:28:35Z</time>
      </trkpt>
      <trkpt lat="39.712662958" lon="-0.453977706">
        <ele>690.36</ele>
        <time>2013-12-15T12:28:45Z</time>
      </trkpt>
      <trkpt lat="39.712645607" lon="-0.454150792">
        <ele>691.81</ele>
        <time>2013-12-15T12:28:52Z</time>
      </trkpt>
      <trkpt lat="39.712625239" lon="-0.454331422">
        <ele>692.77</ele>
        <time>2013-12-15T12:29:00Z</time>
      </trkpt>
      <trkpt lat="39.712616187" lon="-0.454533510">
        <ele>693.73</ele>
        <time>2013-12-15T12:29:09Z</time>
      </trkpt>
      <trkpt lat="39.712602273" lon="-0.454704668">
        <ele>694.69</ele>
        <time>2013-12-15T12:29:16Z</time>
      </trkpt>
      <trkpt lat="39.712598752" lon="-0.454728557">
        <ele>695.17</ele>
        <time>2013-12-15T12:29:17Z</time>
      </trkpt>
      <trkpt lat="39.712562878" lon="-0.454987977">
        <ele>696.61</ele>
        <time>2013-12-15T12:29:28Z</time>
      </trkpt>
      <trkpt lat="39.712571930" lon="-0.455235746">
        <ele>699.02</ele>
        <time>2013-12-15T12:29:39Z</time>
      </trkpt>
      <trkpt lat="39.712573355" lon="-0.455413526">
        <ele>700.94</ele>
        <time>2013-12-15T12:29:47Z</time>
      </trkpt>
      <trkpt lat="39.712560112" lon="-0.455613183">
        <ele>702.86</ele>
        <time>2013-12-15T12:29:56Z</time>
      </trkpt>
      <trkpt lat="39.712557094" lon="-0.455831783">
        <ele>705.26</ele>
        <time>2013-12-15T12:30:06Z</time>
      </trkpt>
      <trkpt lat="39.712537061" lon="-0.456035044">
        <ele>706.23</ele>
        <time>2013-12-15T12:30:15Z</time>
      </trkpt>
      <trkpt lat="39.712480819" lon="-0.456190612">
        <ele>708.63</ele>
        <time>2013-12-15T12:30:23Z</time>
      </trkpt>
      <trkpt lat="39.712441927" lon="-0.456243586">
        <ele>709.11</ele>
        <time>2013-12-15T12:30:27Z</time>
      </trkpt>
      <trkpt lat="39.712401861" lon="-0.456287591">
        <ele>709.11</ele>
        <time>2013-12-15T12:30:31Z</time>
      </trkpt>
      <trkpt lat="39.712348804" lon="-0.456387922">
        <ele>709.59</ele>
        <time>2013-12-15T12:30:39Z</time>
      </trkpt>
      <trkpt lat="39.712334387" lon="-0.456496049">
        <ele>709.59</ele>
        <time>2013-12-15T12:30:46Z</time>
      </trkpt>
      <trkpt lat="39.712314438" lon="-0.456527816">
        <ele>709.11</ele>
        <time>2013-12-15T12:30:48Z</time>
      </trkpt>
      <trkpt lat="39.712264147" lon="-0.456649270">
        <ele>709.11</ele>
        <time>2013-12-15T12:30:57Z</time>
      </trkpt>
      <trkpt lat="39.712288538" lon="-0.456668464">
        <ele>709.59</ele>
        <time>2013-12-15T12:31:07Z</time>
      </trkpt>
      <trkpt lat="39.712275378" lon="-0.456682798">
        <ele>709.59</ele>
        <time>2013-12-15T12:31:23Z</time>
      </trkpt>
      <trkpt lat="39.712266158" lon="-0.456670308">
        <ele>709.11</ele>
        <time>2013-12-15T12:31:40Z</time>
      </trkpt>
      <trkpt lat="39.712271607" lon="-0.456662178">
        <ele>709.11</ele>
        <time>2013-12-15T12:31:57Z</time>
      </trkpt>
      <trkpt lat="39.712288789" lon="-0.456682630">
        <ele>710.07</ele>
        <time>2013-12-15T12:32:14Z</time>
      </trkpt>
      <trkpt lat="39.712278731" lon="-0.456669470">
        <ele>709.59</ele>
        <time>2013-12-15T12:32:27Z</time>
      </trkpt>
      <trkpt lat="39.712244365" lon="-0.456695706">
        <ele>710.07</ele>
        <time>2013-12-15T12:32:38Z</time>
      </trkpt>
      <trkpt lat="39.712283928" lon="-0.456689084">
        <ele>709.59</ele>
        <time>2013-12-15T12:32:52Z</time>
      </trkpt>
      <trkpt lat="39.712288454" lon="-0.456664022">
        <ele>709.11</ele>
        <time>2013-12-15T12:33:07Z</time>
      </trkpt>
      <trkpt lat="39.712283174" lon="-0.456696544">
        <ele>710.07</ele>
        <time>2013-12-15T12:33:22Z</time>
      </trkpt>
      <trkpt lat="39.712256603" lon="-0.456704674">
        <ele>709.59</ele>
        <time>2013-12-15T12:33:39Z</time>
      </trkpt>
      <trkpt lat="39.712265069" lon="-0.456700064">
        <ele>710.55</ele>
        <time>2013-12-15T12:33:57Z</time>
      </trkpt>
      <trkpt lat="39.712246712" lon="-0.456697633">
        <ele>710.55</ele>
        <time>2013-12-15T12:34:14Z</time>
      </trkpt>
      <trkpt lat="39.712246628" lon="-0.456705261">
        <ele>710.55</ele>
        <time>2013-12-15T12:34:31Z</time>
      </trkpt>
      <trkpt lat="39.712257190" lon="-0.456683552">
        <ele>710.07</ele>
        <time>2013-12-15T12:34:49Z</time>
      </trkpt>
      <trkpt lat="39.712252747" lon="-0.456680199">
        <ele>710.07</ele>
        <time>2013-12-15T12:34:50Z</time>
      </trkpt>
      <trkpt lat="39.712163815" lon="-0.456802156">
        <ele>709.11</ele>
        <time>2013-12-15T12:34:56Z</time>
      </trkpt>
      <trkpt lat="39.712130288" lon="-0.456831409">
        <ele>709.11</ele>
        <time>2013-12-15T12:34:57Z</time>
      </trkpt>
      <trkpt lat="39.711949239" lon="-0.457135839">
        <ele>705.75</ele>
        <time>2013-12-15T12:35:03Z</time>
      </trkpt>
      <trkpt lat="39.711925685" lon="-0.457303310">
        <ele>704.78</ele>
        <time>2013-12-15T12:35:05Z</time>
      </trkpt>
      <trkpt lat="39.711924428" lon="-0.457827598">
        <ele>700.94</ele>
        <time>2013-12-15T12:35:10Z</time>
      </trkpt>
      <trkpt lat="39.712021910" lon="-0.458358256">
        <ele>699.02</ele>
        <time>2013-12-15T12:35:15Z</time>
      </trkpt>
      <trkpt lat="39.712040937" lon="-0.458773999">
        <ele>698.53</ele>
        <time>2013-12-15T12:35:19Z</time>
      </trkpt>
      <trkpt lat="39.711839436" lon="-0.459858114">
        <ele>696.13</ele>
        <time>2013-12-15T12:35:30Z</time>
      </trkpt>
      <trkpt lat="39.711777829" lon="-0.460336218">
        <ele>696.61</ele>
        <time>2013-12-15T12:35:35Z</time>
      </trkpt>
      <trkpt lat="39.711706666" lon="-0.460690856">
        <ele>697.57</ele>
        <time>2013-12-15T12:35:39Z</time>
      </trkpt>
      <trkpt lat="39.711604659" lon="-0.460920520">
        <ele>698.53</ele>
        <time>2013-12-15T12:35:42Z</time>
      </trkpt>
      <trkpt lat="39.711506674" lon="-0.461133756">
        <ele>699.98</ele>
        <time>2013-12-15T12:35:45Z</time>
      </trkpt>
      <trkpt lat="39.711401062" lon="-0.461496189">
        <ele>700.94</ele>
        <time>2013-12-15T12:35:50Z</time>
      </trkpt>
      <trkpt lat="39.711331660" lon="-0.461791735">
        <ele>701.90</ele>
        <time>2013-12-15T12:35:55Z</time>
      </trkpt>
      <trkpt lat="39.711264940" lon="-0.462126341">
        <ele>700.94</ele>
        <time>2013-12-15T12:36:03Z</time>
      </trkpt>
      <trkpt lat="39.711226467" lon="-0.462506628">
        <ele>700.94</ele>
        <time>2013-12-15T12:36:11Z</time>
      </trkpt>
      <trkpt lat="39.711232502" lon="-0.462641492">
        <ele>699.50</ele>
        <time>2013-12-15T12:36:14Z</time>
      </trkpt>
      <trkpt lat="39.711278183" lon="-0.463017086">
        <ele>698.53</ele>
        <time>2013-12-15T12:36:22Z</time>
      </trkpt>
      <trkpt lat="39.711290505" lon="-0.463065365">
        <ele>698.05</ele>
        <time>2013-12-15T12:36:23Z</time>
      </trkpt>
      <trkpt lat="39.711330403" lon="-0.463267537">
        <ele>698.05</ele>
        <time>2013-12-15T12:36:27Z</time>
      </trkpt>
      <trkpt lat="39.711412964" lon="-0.463780090">
        <ele>696.61</ele>
        <time>2013-12-15T12:36:37Z</time>
      </trkpt>
      <trkpt lat="39.711485803" lon="-0.464029787">
        <ele>696.61</ele>
        <time>2013-12-15T12:36:42Z</time>
      </trkpt>
      <trkpt lat="39.711715886" lon="-0.464405296">
        <ele>694.69</ele>
        <time>2013-12-15T12:36:51Z</time>
      </trkpt>
      <trkpt lat="39.711777996" lon="-0.464469837">
        <ele>694.21</ele>
        <time>2013-12-15T12:36:53Z</time>
      </trkpt>
      <trkpt lat="39.712099358" lon="-0.464699166">
        <ele>691.81</ele>
        <time>2013-12-15T12:37:00Z</time>
      </trkpt>
      <trkpt lat="39.712420637" lon="-0.464885579">
        <ele>688.92</ele>
        <time>2013-12-15T12:37:05Z</time>
      </trkpt>
      <trkpt lat="39.712626413" lon="-0.464974763">
        <ele>687.00</ele>
        <time>2013-12-15T12:37:08Z</time>
      </trkpt>
      <trkpt lat="39.712833948" lon="-0.465014661">
        <ele>683.63</ele>
        <time>2013-12-15T12:37:11Z</time>
      </trkpt>
      <trkpt lat="39.713107031" lon="-0.464996891">
        <ele>681.23</ele>
        <time>2013-12-15T12:37:15Z</time>
      </trkpt>
      <trkpt lat="39.713438284" lon="-0.464896560">
        <ele>676.91</ele>
        <time>2013-12-15T12:37:19Z</time>
      </trkpt>
      <trkpt lat="39.713527216" lon="-0.464865882">
        <ele>677.39</ele>
        <time>2013-12-15T12:37:20Z</time>
      </trkpt>
      <trkpt lat="39.713892918" lon="-0.464758258">
        <ele>673.54</ele>
        <time>2013-12-15T12:37:24Z</time>
      </trkpt>
      <trkpt lat="39.713985454" lon="-0.464734454">
        <ele>673.54</ele>
        <time>2013-12-15T12:37:25Z</time>
      </trkpt>
      <trkpt lat="39.714171868" lon="-0.464682905">
        <ele>672.58</ele>
        <time>2013-12-15T12:37:27Z</time>
      </trkpt>
      <trkpt lat="39.714615606" lon="-0.464500180">
        <ele>671.14</ele>
        <time>2013-12-15T12:37:32Z</time>
      </trkpt>
      <trkpt lat="39.714836804" lon="-0.464303372">
        <ele>670.18</ele>
        <time>2013-12-15T12:37:35Z</time>
      </trkpt>
      <trkpt lat="39.715194795" lon="-0.464144787">
        <ele>669.70</ele>
        <time>2013-12-15T12:37:40Z</time>
      </trkpt>
      <trkpt lat="39.715312812" lon="-0.464227349">
        <ele>669.22</ele>
        <time>2013-12-15T12:37:43Z</time>
      </trkpt>
      <trkpt lat="39.715232430" lon="-0.464355508">
        <ele>667.29</ele>
        <time>2013-12-15T12:37:46Z</time>
      </trkpt>
      <trkpt lat="39.715069989" lon="-0.464462796">
        <ele>664.89</ele>
        <time>2013-12-15T12:37:49Z</time>
      </trkpt>
      <trkpt lat="39.714756841" lon="-0.464789607">
        <ele>661.04</ele>
        <time>2013-12-15T12:37:54Z</time>
      </trkpt>
      <trkpt lat="39.714384098" lon="-0.465116333">
        <ele>657.20</ele>
        <time>2013-12-15T12:37:59Z</time>
      </trkpt>
      <trkpt lat="39.714131467" lon="-0.465267878">
        <ele>654.80</ele>
        <time>2013-12-15T12:38:02Z</time>
      </trkpt>
      <trkpt lat="39.713699464" lon="-0.465532411">
        <ele>650.95</ele>
        <time>2013-12-15T12:38:07Z</time>
      </trkpt>
      <trkpt lat="39.713428561" lon="-0.465697199">
        <ele>649.51</ele>
        <time>2013-12-15T12:38:10Z</time>
      </trkpt>
      <trkpt lat="39.712974178" lon="-0.465954104">
        <ele>646.62</ele>
        <time>2013-12-15T12:38:15Z</time>
      </trkpt>
      <trkpt lat="39.712593472" lon="-0.466008671">
        <ele>645.18</ele>
        <time>2013-12-15T12:38:19Z</time>
      </trkpt>
      <trkpt lat="39.711998776" lon="-0.466000121">
        <ele>644.22</ele>
        <time>2013-12-15T12:38:25Z</time>
      </trkpt>
      <trkpt lat="39.711810853" lon="-0.465964247">
        <ele>644.22</ele>
        <time>2013-12-15T12:38:27Z</time>
      </trkpt>
      <trkpt lat="39.711447749" lon="-0.465791579">
        <ele>642.30</ele>
        <time>2013-12-15T12:38:31Z</time>
      </trkpt>
      <trkpt lat="39.711072827" lon="-0.465660319">
        <ele>639.89</ele>
        <time>2013-12-15T12:38:35Z</time>
      </trkpt>
      <trkpt lat="39.710730175" lon="-0.465340549">
        <ele>637.49</ele>
        <time>2013-12-15T12:38:40Z</time>
      </trkpt>
      <trkpt lat="39.710369166" lon="-0.464702602">
        <ele>634.13</ele>
        <time>2013-12-15T12:38:47Z</time>
      </trkpt>
      <trkpt lat="39.710102035" lon="-0.464303372">
        <ele>632.20</ele>
        <time>2013-12-15T12:38:51Z</time>
      </trkpt>
      <trkpt lat="39.710034393" lon="-0.464206897">
        <ele>632.20</ele>
        <time>2013-12-15T12:38:52Z</time>
      </trkpt>
      <trkpt lat="39.709816631" lon="-0.463667018">
        <ele>630.76</ele>
        <time>2013-12-15T12:38:57Z</time>
      </trkpt>
      <trkpt lat="39.709779834" lon="-0.463433331">
        <ele>630.76</ele>
        <time>2013-12-15T12:38:59Z</time>
      </trkpt>
      <trkpt lat="39.709775643" lon="-0.463113058">
        <ele>631.24</ele>
        <time>2013-12-15T12:39:02Z</time>
      </trkpt>
      <trkpt lat="39.709815541" lon="-0.462923879">
        <ele>631.24</ele>
        <time>2013-12-15T12:39:04Z</time>
      </trkpt>
      <trkpt lat="39.709798945" lon="-0.462626992">
        <ele>631.24</ele>
        <time>2013-12-15T12:39:08Z</time>
      </trkpt>
      <trkpt lat="39.709663326" lon="-0.462595560">
        <ele>632.20</ele>
        <time>2013-12-15T12:39:11Z</time>
      </trkpt>
      <trkpt lat="39.709491665" lon="-0.462790942">
        <ele>632.68</ele>
        <time>2013-12-15T12:39:15Z</time>
      </trkpt>
      <trkpt lat="39.709408684" lon="-0.462955562">
        <ele>633.17</ele>
        <time>2013-12-15T12:39:18Z</time>
      </trkpt>
      <trkpt lat="39.709078521" lon="-0.463306429">
        <ele>633.17</ele>
        <time>2013-12-15T12:39:26Z</time>
      </trkpt>
      <trkpt lat="39.708723463" lon="-0.463633491">
        <ele>633.17</ele>
        <time>2013-12-15T12:39:32Z</time>
      </trkpt>
      <trkpt lat="39.708348457" lon="-0.463986872">
        <ele>634.13</ele>
        <time>2013-12-15T12:39:38Z</time>
      </trkpt>
      <trkpt lat="39.708212921" lon="-0.464344276">
        <ele>634.13</ele>
        <time>2013-12-15T12:39:42Z</time>
      </trkpt>
      <trkpt lat="39.708298249" lon="-0.464604367">
        <ele>633.65</ele>
        <time>2013-12-15T12:39:45Z</time>
      </trkpt>
      <trkpt lat="39.708561189" lon="-0.465027988">
        <ele>631.72</ele>
        <time>2013-12-15T12:39:50Z</time>
      </trkpt>
      <trkpt lat="39.708672669" lon="-0.465635424">
        <ele>630.76</ele>
        <time>2013-12-15T12:39:55Z</time>
      </trkpt>
      <trkpt lat="39.708673926" lon="-0.466415444">
        <ele>628.36</ele>
        <time>2013-12-15T12:40:01Z</time>
      </trkpt>
      <trkpt lat="39.708601842" lon="-0.466820877">
        <ele>626.92</ele>
        <time>2013-12-15T12:40:05Z</time>
      </trkpt>
      <trkpt lat="39.708480639" lon="-0.466950210">
        <ele>627.40</ele>
        <time>2013-12-15T12:40:07Z</time>
      </trkpt>
      <trkpt lat="39.708033130" lon="-0.467297137">
        <ele>627.88</ele>
        <time>2013-12-15T12:40:14Z</time>
      </trkpt>
      <trkpt lat="39.707930116" lon="-0.467368132">
        <ele>627.88</ele>
        <time>2013-12-15T12:40:16Z</time>
      </trkpt>
      <trkpt lat="39.707813188" lon="-0.467485394">
        <ele>627.88</ele>
        <time>2013-12-15T12:40:21Z</time>
      </trkpt>
      <trkpt lat="39.707816625" lon="-0.467479611">
        <ele>628.84</ele>
        <time>2013-12-15T12:40:31Z</time>
      </trkpt>
      <trkpt lat="39.707819223" lon="-0.467484305">
        <ele>628.36</ele>
        <time>2013-12-15T12:40:42Z</time>
      </trkpt>
      <trkpt lat="39.707814530" lon="-0.467470977">
        <ele>627.40</ele>
        <time>2013-12-15T12:40:55Z</time>
      </trkpt>
      <trkpt lat="39.707809836" lon="-0.467457315">
        <ele>627.88</ele>
        <time>2013-12-15T12:41:01Z</time>
      </trkpt>
      <trkpt lat="39.707755437" lon="-0.467471983">
        <ele>627.88</ele>
        <time>2013-12-15T12:41:05Z</time>
      </trkpt>
      <trkpt lat="39.707554858" lon="-0.467713969">
        <ele>629.32</ele>
        <time>2013-12-15T12:41:14Z</time>
      </trkpt>
      <trkpt lat="39.707350088" lon="-0.467951512">
        <ele>631.72</ele>
        <time>2013-12-15T12:41:21Z</time>
      </trkpt>
      <trkpt lat="39.707071893" lon="-0.468164999">
        <ele>633.17</ele>
        <time>2013-12-15T12:41:28Z</time>
      </trkpt>
      <trkpt lat="39.706985978" lon="-0.468230043">
        <ele>634.13</ele>
        <time>2013-12-15T12:41:30Z</time>
      </trkpt>
      <trkpt lat="39.706691690" lon="-0.468417043">
        <ele>637.01</ele>
        <time>2013-12-15T12:41:37Z</time>
      </trkpt>
      <trkpt lat="39.706290029" lon="-0.468601612">
        <ele>639.41</ele>
        <time>2013-12-15T12:41:45Z</time>
      </trkpt>
      <trkpt lat="39.706012169" lon="-0.468691802">
        <ele>640.38</ele>
        <time>2013-12-15T12:41:50Z</time>
      </trkpt>
      <trkpt lat="39.705467094" lon="-0.468774782">
        <ele>641.34</ele>
        <time>2013-12-15T12:41:59Z</time>
      </trkpt>
      <trkpt lat="39.705407079" lon="-0.468781320">
        <ele>640.86</ele>
        <time>2013-12-15T12:42:00Z</time>
      </trkpt>
      <trkpt lat="39.705186132" lon="-0.468858518">
        <ele>641.34</ele>
        <time>2013-12-15T12:42:04Z</time>
      </trkpt>
      <trkpt lat="39.704796458" lon="-0.469066892">
        <ele>643.26</ele>
        <time>2013-12-15T12:42:13Z</time>
      </trkpt>
      <trkpt lat="39.704512646" lon="-0.469199829">
        <ele>644.22</ele>
        <time>2013-12-15T12:42:21Z</time>
      </trkpt>
      <trkpt lat="39.704279965" lon="-0.469337124">
        <ele>645.66</ele>
        <time>2013-12-15T12:42:29Z</time>
      </trkpt>
      <trkpt lat="39.704180723" lon="-0.469472911">
        <ele>646.62</ele>
        <time>2013-12-15T12:42:36Z</time>
      </trkpt>
      <trkpt lat="39.704150381" lon="-0.469516832">
        <ele>646.62</ele>
        <time>2013-12-15T12:42:43Z</time>
      </trkpt>
      <trkpt lat="39.704147615" lon="-0.469512725">
        <ele>646.62</ele>
        <time>2013-12-15T12:42:48Z</time>
      </trkpt>
      <trkpt lat="39.704093803" lon="-0.469460087">
        <ele>646.14</ele>
        <time>2013-12-15T12:42:53Z</time>
      </trkpt>
      <trkpt lat="39.703961452" lon="-0.469379621">
        <ele>646.62</ele>
        <time>2013-12-15T12:43:04Z</time>
      </trkpt>
      <trkpt lat="39.703806136" lon="-0.469327988">
        <ele>645.18</ele>
        <time>2013-12-15T12:43:11Z</time>
      </trkpt>
      <trkpt lat="39.703556439" lon="-0.469250791">
        <ele>643.26</ele>
        <time>2013-12-15T12:43:19Z</time>
      </trkpt>
      <trkpt lat="39.703416126" lon="-0.469205864">
        <ele>642.30</ele>
        <time>2013-12-15T12:43:22Z</time>
      </trkpt>
      <trkpt lat="39.703012537" lon="-0.469098575">
        <ele>638.45</ele>
        <time>2013-12-15T12:43:29Z</time>
      </trkpt>
      <trkpt lat="39.702793518" lon="-0.469031353">
        <ele>636.53</ele>
        <time>2013-12-15T12:43:32Z</time>
      </trkpt>
      <trkpt lat="39.702531919" lon="-0.468938230">
        <ele>634.13</ele>
        <time>2013-12-15T12:43:35Z</time>
      </trkpt>
      <trkpt lat="39.702145597" lon="-0.468812082">
        <ele>629.80</ele>
        <time>2013-12-15T12:43:39Z</time>
      </trkpt>
      <trkpt lat="39.701697752" lon="-0.468719881">
        <ele>626.44</ele>
        <time>2013-12-15T12:43:44Z</time>
      </trkpt>
      <trkpt lat="39.701513853" lon="-0.468691718">
        <ele>624.99</ele>
        <time>2013-12-15T12:43:46Z</time>
      </trkpt>
      <trkpt lat="39.701233730" lon="-0.468697418">
        <ele>623.07</ele>
        <time>2013-12-15T12:43:49Z</time>
      </trkpt>
      <trkpt lat="39.701041197" lon="-0.468702614">
        <ele>621.63</ele>
        <time>2013-12-15T12:43:51Z</time>
      </trkpt>
      <trkpt lat="39.700841038" lon="-0.468683168">
        <ele>620.67</ele>
        <time>2013-12-15T12:43:53Z</time>
      </trkpt>
      <trkpt lat="39.700428732" lon="-0.468531540">
        <ele>616.34</ele>
        <time>2013-12-15T12:43:57Z</time>
      </trkpt>
      <trkpt lat="39.699995220" lon="-0.468362141">
        <ele>611.54</ele>
        <time>2013-12-15T12:44:01Z</time>
      </trkpt>
      <trkpt lat="39.699436985" lon="-0.468154773">
        <ele>608.65</ele>
        <time>2013-12-15T12:44:07Z</time>
      </trkpt>
      <trkpt lat="39.699320057" lon="-0.468142452">
        <ele>608.17</ele>
        <time>2013-12-15T12:44:09Z</time>
      </trkpt>
      <trkpt lat="39.699208578" lon="-0.468257787">
        <ele>607.21</ele>
        <time>2013-12-15T12:44:12Z</time>
      </trkpt>
      <trkpt lat="39.699240597" lon="-0.468455264">
        <ele>605.77</ele>
        <time>2013-12-15T12:44:16Z</time>
      </trkpt>
      <trkpt lat="39.699271023" lon="-0.468484182">
        <ele>605.77</ele>
        <time>2013-12-15T12:44:17Z</time>
      </trkpt>
      <trkpt lat="39.699432710" lon="-0.468690544">
        <ele>604.81</ele>
        <time>2013-12-15T12:44:24Z</time>
      </trkpt>
      <trkpt lat="39.699489037" lon="-0.468924064">
        <ele>603.36</ele>
        <time>2013-12-15T12:44:31Z</time>
      </trkpt>
      <trkpt lat="39.699491970" lon="-0.468994388">
        <ele>601.92</ele>
        <time>2013-12-15T12:44:38Z</time>
      </trkpt>
      <trkpt lat="39.699505381" lon="-0.468982151">
        <ele>601.92</ele>
        <time>2013-12-15T12:44:49Z</time>
      </trkpt>
      <trkpt lat="39.699505717" lon="-0.468990784">
        <ele>601.44</ele>
        <time>2013-12-15T12:44:59Z</time>
      </trkpt>
      <trkpt lat="39.699544273" lon="-0.469118692">
        <ele>600.96</ele>
        <time>2013-12-15T12:45:03Z</time>
      </trkpt>
      <trkpt lat="39.699634127" lon="-0.469359672">
        <ele>598.56</ele>
        <time>2013-12-15T12:45:07Z</time>
      </trkpt>
      <trkpt lat="39.699745942" lon="-0.469716238">
        <ele>594.23</ele>
        <time>2013-12-15T12:45:11Z</time>
      </trkpt>
      <trkpt lat="39.699783577" lon="-0.469923019">
        <ele>591.83</ele>
        <time>2013-12-15T12:45:13Z</time>
      </trkpt>
      <trkpt lat="39.699779805" lon="-0.470422246">
        <ele>584.62</ele>
        <time>2013-12-15T12:45:17Z</time>
      </trkpt>
      <trkpt lat="39.699760443" lon="-0.470693316">
        <ele>581.25</ele>
        <time>2013-12-15T12:45:19Z</time>
      </trkpt>
      <trkpt lat="39.699748540" lon="-0.470823823">
        <ele>578.37</ele>
        <time>2013-12-15T12:45:20Z</time>
      </trkpt>
      <trkpt lat="39.699749798" lon="-0.471202265">
        <ele>574.53</ele>
        <time>2013-12-15T12:45:23Z</time>
      </trkpt>
      <trkpt lat="39.699650556" lon="-0.471540727">
        <ele>569.72</ele>
        <time>2013-12-15T12:45:27Z</time>
      </trkpt>
      <trkpt lat="39.699450899" lon="-0.471781120">
        <ele>565.39</ele>
        <time>2013-12-15T12:45:30Z</time>
      </trkpt>
      <trkpt lat="39.699379150" lon="-0.471872147">
        <ele>564.43</ele>
        <time>2013-12-15T12:45:31Z</time>
      </trkpt>
      <trkpt lat="39.699101457" lon="-0.472303815">
        <ele>560.11</ele>
        <time>2013-12-15T12:45:35Z</time>
      </trkpt>
      <trkpt lat="39.698957037" lon="-0.472538425">
        <ele>556.74</ele>
        <time>2013-12-15T12:45:37Z</time>
      </trkpt>
      <trkpt lat="39.698795937" lon="-0.472759120">
        <ele>553.38</ele>
        <time>2013-12-15T12:45:39Z</time>
      </trkpt>
      <trkpt lat="39.698491171" lon="-0.473223478">
        <ele>549.53</ele>
        <time>2013-12-15T12:45:43Z</time>
      </trkpt>
      <trkpt lat="39.698334262" lon="-0.473538553">
        <ele>547.61</ele>
        <time>2013-12-15T12:45:46Z</time>
      </trkpt>
      <trkpt lat="39.698111136" lon="-0.473759668">
        <ele>543.76</ele>
        <time>2013-12-15T12:45:50Z</time>
      </trkpt>
      <trkpt lat="39.698029412" lon="-0.473776683">
        <ele>542.80</ele>
        <time>2013-12-15T12:45:51Z</time>
      </trkpt>
      <trkpt lat="39.697867557" lon="-0.473795710">
        <ele>540.40</ele>
        <time>2013-12-15T12:45:53Z</time>
      </trkpt>
      <trkpt lat="39.697602857" lon="-0.473734103">
        <ele>534.63</ele>
        <time>2013-12-15T12:45:57Z</time>
      </trkpt>
      <trkpt lat="39.697524989" lon="-0.473752460">
        <ele>533.19</ele>
        <time>2013-12-15T12:45:59Z</time>
      </trkpt>
      <trkpt lat="39.697532114" lon="-0.473880619">
        <ele>530.79</ele>
        <time>2013-12-15T12:46:02Z</time>
      </trkpt>
      <trkpt lat="39.697609898" lon="-0.473986231">
        <ele>529.34</ele>
        <time>2013-12-15T12:46:05Z</time>
      </trkpt>
      <trkpt lat="39.697562875" lon="-0.474142050">
        <ele>528.38</ele>
        <time>2013-12-15T12:46:08Z</time>
      </trkpt>
      <trkpt lat="39.697392723" lon="-0.474217487">
        <ele>525.50</ele>
        <time>2013-12-15T12:46:11Z</time>
      </trkpt>
      <trkpt lat="39.697283171" lon="-0.474077174">
        <ele>523.09</ele>
        <time>2013-12-15T12:46:14Z</time>
      </trkpt>
      <trkpt lat="39.697220474" lon="-0.473845331">
        <ele>519.73</ele>
        <time>2013-12-15T12:46:19Z</time>
      </trkpt>
      <trkpt lat="39.697229359" lon="-0.473826136">
        <ele>520.21</ele>
        <time>2013-12-15T12:46:25Z</time>
      </trkpt>
      <trkpt lat="39.697225085" lon="-0.473865531">
        <ele>519.73</ele>
        <time>2013-12-15T12:46:43Z</time>
      </trkpt>
      <trkpt lat="39.697206980" lon="-0.473794118">
        <ele>519.73</ele>
        <time>2013-12-15T12:46:58Z</time>
      </trkpt>
      <trkpt lat="39.697191473" lon="-0.473758075">
        <ele>519.73</ele>
        <time>2013-12-15T12:46:59Z</time>
      </trkpt>
      <trkpt lat="39.696930461" lon="-0.473470408">
        <ele>516.85</ele>
        <time>2013-12-15T12:47:05Z</time>
      </trkpt>
      <trkpt lat="39.696818646" lon="-0.473484155">
        <ele>515.88</ele>
        <time>2013-12-15T12:47:07Z</time>
      </trkpt>
      <trkpt lat="39.696763242" lon="-0.473525645">
        <ele>515.88</ele>
        <time>2013-12-15T12:47:08Z</time>
      </trkpt>
      <trkpt lat="39.696458224" lon="-0.473824209">
        <ele>512.52</ele>
        <time>2013-12-15T12:47:13Z</time>
      </trkpt>
      <trkpt lat="39.696306176" lon="-0.473936694">
        <ele>509.64</ele>
        <time>2013-12-15T12:47:15Z</time>
      </trkpt>
      <trkpt lat="39.695963776" lon="-0.474061500">
        <ele>503.87</ele>
        <time>2013-12-15T12:47:19Z</time>
      </trkpt>
      <trkpt lat="39.695584076" lon="-0.474093268">
        <ele>497.62</ele>
        <time>2013-12-15T12:47:23Z</time>
      </trkpt>
      <trkpt lat="39.695493383" lon="-0.474093268">
        <ele>496.18</ele>
        <time>2013-12-15T12:47:24Z</time>
      </trkpt>
      <trkpt lat="39.695161963" lon="-0.473978939">
        <ele>489.93</ele>
        <time>2013-12-15T12:47:28Z</time>
      </trkpt>
      <trkpt lat="39.695075881" lon="-0.473912219">
        <ele>489.93</ele>
        <time>2013-12-15T12:47:29Z</time>
      </trkpt>
      <trkpt lat="39.694699449" lon="-0.473620696">
        <ele>484.16</ele>
        <time>2013-12-15T12:47:33Z</time>
      </trkpt>
      <trkpt lat="39.694606327" lon="-0.473549534">
        <ele>482.72</ele>
        <time>2013-12-15T12:47:34Z</time>
      </trkpt>
      <trkpt lat="39.694451597" lon="-0.473391032">
        <ele>481.76</ele>
        <time>2013-12-15T12:47:36Z</time>
      </trkpt>
      <trkpt lat="39.694271972" lon="-0.473179556">
        <ele>478.87</ele>
        <time>2013-12-15T12:47:39Z</time>
      </trkpt>
      <trkpt lat="39.694192344" lon="-0.472855847">
        <ele>476.47</ele>
        <time>2013-12-15T12:47:43Z</time>
      </trkpt>
      <trkpt lat="39.694211036" lon="-0.472754678">
        <ele>475.99</ele>
        <time>2013-12-15T12:47:44Z</time>
      </trkpt>
      <trkpt lat="39.694291838" lon="-0.472483607">
        <ele>472.14</ele>
        <time>2013-12-15T12:47:49Z</time>
      </trkpt>
      <trkpt lat="39.694306422" lon="-0.472472627">
        <ele>471.66</ele>
        <time>2013-12-15T12:47:56Z</time>
      </trkpt>
      <trkpt lat="39.694307512" lon="-0.472466843">
        <ele>471.66</ele>
        <time>2013-12-15T12:48:10Z</time>
      </trkpt>
      <trkpt lat="39.694333998" lon="-0.472384030">
        <ele>471.18</ele>
        <time>2013-12-15T12:48:19Z</time>
      </trkpt>
      <trkpt lat="39.694395019" lon="-0.471928138">
        <ele>470.22</ele>
        <time>2013-12-15T12:48:25Z</time>
      </trkpt>
      <trkpt lat="39.694299717" lon="-0.471695205">
        <ele>470.22</ele>
        <time>2013-12-15T12:48:29Z</time>
      </trkpt>
      <trkpt lat="39.694152949" lon="-0.471641226">
        <ele>469.74</ele>
        <time>2013-12-15T12:48:32Z</time>
      </trkpt>
      <trkpt lat="39.693680042" lon="-0.471506696">
        <ele>466.86</ele>
        <time>2013-12-15T12:48:39Z</time>
      </trkpt>
      <trkpt lat="39.693604102" lon="-0.471489765">
        <ele>466.38</ele>
        <time>2013-12-15T12:48:40Z</time>
      </trkpt>
      <trkpt lat="39.693461778" lon="-0.471485490">
        <ele>465.90</ele>
        <time>2013-12-15T12:48:42Z</time>
      </trkpt>
      <trkpt lat="39.693339067" lon="-0.471639046">
        <ele>464.45</ele>
        <time>2013-12-15T12:48:45Z</time>
      </trkpt>
      <trkpt lat="39.693416515" lon="-0.471802661">
        <ele>463.01</ele>
        <time>2013-12-15T12:48:48Z</time>
      </trkpt>
      <trkpt lat="39.693541825" lon="-0.471856724">
        <ele>461.57</ele>
        <time>2013-12-15T12:48:50Z</time>
      </trkpt>
      <trkpt lat="39.693694962" lon="-0.471906262">
        <ele>460.61</ele>
        <time>2013-12-15T12:48:52Z</time>
      </trkpt>
      <trkpt lat="39.693929739" lon="-0.472014640">
        <ele>458.21</ele>
        <time>2013-12-15T12:48:55Z</time>
      </trkpt>
      <trkpt lat="39.694112130" lon="-0.472249249">
        <ele>454.84</ele>
        <time>2013-12-15T12:48:59Z</time>
      </trkpt>
      <trkpt lat="39.694044655" lon="-0.472504226">
        <ele>452.92</ele>
        <time>2013-12-15T12:49:02Z</time>
      </trkpt>
      <trkpt lat="39.693812560" lon="-0.472818464">
        <ele>450.52</ele>
        <time>2013-12-15T12:49:06Z</time>
      </trkpt>
      <trkpt lat="39.693767717" lon="-0.472915191">
        <ele>450.03</ele>
        <time>2013-12-15T12:49:07Z</time>
      </trkpt>
      <trkpt lat="39.693680713" lon="-0.473314170">
        <ele>448.11</ele>
        <time>2013-12-15T12:49:11Z</time>
      </trkpt>
      <trkpt lat="39.693688340" lon="-0.473415507">
        <ele>447.15</ele>
        <time>2013-12-15T12:49:12Z</time>
      </trkpt>
      <trkpt lat="39.693684988" lon="-0.474068625">
        <ele>441.38</ele>
        <time>2013-12-15T12:49:18Z</time>
      </trkpt>
      <trkpt lat="39.693721281" lon="-0.474330895">
        <ele>439.94</ele>
        <time>2013-12-15T12:49:21Z</time>
      </trkpt>
      <trkpt lat="39.693798143" lon="-0.474669272">
        <ele>435.13</ele>
        <time>2013-12-15T12:49:24Z</time>
      </trkpt>
      <trkpt lat="39.693837455" lon="-0.474920226">
        <ele>433.21</ele>
        <time>2013-12-15T12:49:26Z</time>
      </trkpt>
      <trkpt lat="39.693894787" lon="-0.475165984">
        <ele>429.37</ele>
        <time>2013-12-15T12:49:28Z</time>
      </trkpt>
      <trkpt lat="39.694086732" lon="-0.475491621">
        <ele>424.56</ele>
        <time>2013-12-15T12:49:32Z</time>
      </trkpt>
      <trkpt lat="39.694189075" lon="-0.475661438">
        <ele>422.16</ele>
        <time>2013-12-15T12:49:35Z</time>
      </trkpt>
      <trkpt lat="39.694075333" lon="-0.475730086">
        <ele>420.23</ele>
        <time>2013-12-15T12:49:38Z</time>
      </trkpt>
      <trkpt lat="39.694020431" lon="-0.475700581">
        <ele>419.27</ele>
        <time>2013-12-15T12:49:39Z</time>
      </trkpt>
      <trkpt lat="39.693678701" lon="-0.475437976">
        <ele>416.39</ele>
        <time>2013-12-15T12:49:44Z</time>
      </trkpt>
      <trkpt lat="39.693326913" lon="-0.475342674">
        <ele>414.47</ele>
        <time>2013-12-15T12:49:48Z</time>
      </trkpt>
      <trkpt lat="39.693113090" lon="-0.475283246">
        <ele>410.62</ele>
        <time>2013-12-15T12:49:51Z</time>
      </trkpt>
      <trkpt lat="39.693033546" lon="-0.475137318">
        <ele>410.14</ele>
        <time>2013-12-15T12:49:53Z</time>
      </trkpt>
      <trkpt lat="39.692794578" lon="-0.474915281">
        <ele>408.22</ele>
        <time>2013-12-15T12:49:57Z</time>
      </trkpt>
      <trkpt lat="39.692640770" lon="-0.474876473">
        <ele>407.74</ele>
        <time>2013-12-15T12:49:59Z</time>
      </trkpt>
      <trkpt lat="39.692491740" lon="-0.474822493">
        <ele>405.81</ele>
        <time>2013-12-15T12:50:01Z</time>
      </trkpt>
      <trkpt lat="39.692301303" lon="-0.474570198">
        <ele>402.45</ele>
        <time>2013-12-15T12:50:05Z</time>
      </trkpt>
      <trkpt lat="39.692269033" lon="-0.474255960">
        <ele>398.12</ele>
        <time>2013-12-15T12:50:08Z</time>
      </trkpt>
      <trkpt lat="39.692305410" lon="-0.473936861">
        <ele>394.76</ele>
        <time>2013-12-15T12:50:11Z</time>
      </trkpt>
      <trkpt lat="39.692260148" lon="-0.473678866">
        <ele>391.39</ele>
        <time>2013-12-15T12:50:14Z</time>
      </trkpt>
      <trkpt lat="39.692131402" lon="-0.473536374">
        <ele>389.95</ele>
        <time>2013-12-15T12:50:16Z</time>
      </trkpt>
      <trkpt lat="39.691662770" lon="-0.473298244">
        <ele>383.70</ele>
        <time>2013-12-15T12:50:21Z</time>
      </trkpt>
      <trkpt lat="39.691567468" lon="-0.473253317">
        <ele>382.26</ele>
        <time>2013-12-15T12:50:22Z</time>
      </trkpt>
      <trkpt lat="39.691263456" lon="-0.472938828">
        <ele>377.94</ele>
        <time>2013-12-15T12:50:26Z</time>
      </trkpt>
      <trkpt lat="39.691076372" lon="-0.472623250">
        <ele>374.09</ele>
        <time>2013-12-15T12:50:29Z</time>
      </trkpt>
      <trkpt lat="39.690820640" lon="-0.472377911">
        <ele>369.76</ele>
        <time>2013-12-15T12:50:32Z</time>
      </trkpt>
      <trkpt lat="39.690634729" lon="-0.472252937">
        <ele>366.88</ele>
        <time>2013-12-15T12:50:34Z</time>
      </trkpt>
      <trkpt lat="39.690468516" lon="-0.472117150">
        <ele>363.04</ele>
        <time>2013-12-15T12:50:36Z</time>
      </trkpt>
      <trkpt lat="39.690317307" lon="-0.471997121">
        <ele>360.15</ele>
        <time>2013-12-15T12:50:38Z</time>
      </trkpt>
      <trkpt lat="39.690048499" lon="-0.471902406">
        <ele>355.83</ele>
        <time>2013-12-15T12:50:42Z</time>
      </trkpt>
      <trkpt lat="39.689709870" lon="-0.471694954">
        <ele>351.50</ele>
        <time>2013-12-15T12:50:48Z</time>
      </trkpt>
      <trkpt lat="39.689444080" lon="-0.471291617">
        <ele>350.06</ele>
        <time>2013-12-15T12:50:53Z</time>
      </trkpt>
      <trkpt lat="39.689292703" lon="-0.471029850">
        <ele>348.62</ele>
        <time>2013-12-15T12:50:56Z</time>
      </trkpt>
      <trkpt lat="39.689000007" lon="-0.470807394">
        <ele>347.65</ele>
        <time>2013-12-15T12:51:00Z</time>
      </trkpt>
      <trkpt lat="39.688658863" lon="-0.470695579">
        <ele>345.25</ele>
        <time>2013-12-15T12:51:04Z</time>
      </trkpt>
      <trkpt lat="39.688238846" lon="-0.470496342">
        <ele>342.37</ele>
        <time>2013-12-15T12:51:09Z</time>
      </trkpt>
      <trkpt lat="39.688041033" lon="-0.470513524">
        <ele>339.96</ele>
        <time>2013-12-15T12:51:11Z</time>
      </trkpt>
      <trkpt lat="39.687635852" lon="-0.470596757">
        <ele>336.60</ele>
        <time>2013-12-15T12:51:15Z</time>
      </trkpt>
      <trkpt lat="39.687362351" lon="-0.470661130">
        <ele>333.23</ele>
        <time>2013-12-15T12:51:18Z</time>
      </trkpt>
      <trkpt lat="39.687195886" lon="-0.470689796">
        <ele>331.79</ele>
        <time>2013-12-15T12:51:20Z</time>
      </trkpt>
      <trkpt lat="39.686832782" lon="-0.470680324">
        <ele>326.50</ele>
        <time>2013-12-15T12:51:24Z</time>
      </trkpt>
      <trkpt lat="39.686733456" lon="-0.470661381">
        <ele>326.50</ele>
        <time>2013-12-15T12:51:25Z</time>
      </trkpt>
      <trkpt lat="39.686329449" lon="-0.470634559">
        <ele>323.14</ele>
        <time>2013-12-15T12:51:29Z</time>
      </trkpt>
      <trkpt lat="39.686001716" lon="-0.470723324">
        <ele>319.78</ele>
        <time>2013-12-15T12:51:33Z</time>
      </trkpt>
      <trkpt lat="39.685744308" lon="-0.470813513">
        <ele>318.33</ele>
        <time>2013-12-15T12:51:36Z</time>
      </trkpt>
      <trkpt lat="39.685246507" lon="-0.471171839">
        <ele>316.41</ele>
        <time>2013-12-15T12:51:42Z</time>
      </trkpt>
      <trkpt lat="39.684854066" lon="-0.471542738">
        <ele>314.01</ele>
        <time>2013-12-15T12:51:47Z</time>
      </trkpt>
      <trkpt lat="39.684550641" lon="-0.472002150">
        <ele>310.64</ele>
        <time>2013-12-15T12:51:52Z</time>
      </trkpt>
      <trkpt lat="39.684448969" lon="-0.472191079">
        <ele>311.12</ele>
        <time>2013-12-15T12:51:54Z</time>
      </trkpt>
      <trkpt lat="39.684344111" lon="-0.472457036">
        <ele>311.12</ele>
        <time>2013-12-15T12:51:57Z</time>
      </trkpt>
      <trkpt lat="39.684353331" lon="-0.473056175">
        <ele>310.16</ele>
        <time>2013-12-15T12:52:03Z</time>
      </trkpt>
      <trkpt lat="39.684361294" lon="-0.473470241">
        <ele>308.72</ele>
        <time>2013-12-15T12:52:07Z</time>
      </trkpt>
      <trkpt lat="39.684253922" lon="-0.473994864">
        <ele>306.80</ele>
        <time>2013-12-15T12:52:12Z</time>
      </trkpt>
      <trkpt lat="39.684145628" lon="-0.474462239">
        <ele>303.43</ele>
        <time>2013-12-15T12:52:16Z</time>
      </trkpt>
      <trkpt lat="39.684114866" lon="-0.474582184">
        <ele>303.43</ele>
        <time>2013-12-15T12:52:17Z</time>
      </trkpt>
      <trkpt lat="39.683969859" lon="-0.475155339">
        <ele>302.95</ele>
        <time>2013-12-15T12:52:22Z</time>
      </trkpt>
      <trkpt lat="39.683684791" lon="-0.476002917">
        <ele>304.88</ele>
        <time>2013-12-15T12:52:31Z</time>
      </trkpt>
      <trkpt lat="39.683385137" lon="-0.476277005">
        <ele>304.88</ele>
        <time>2013-12-15T12:52:36Z</time>
      </trkpt>
      <trkpt lat="39.682959085" lon="-0.476498120">
        <ele>306.32</ele>
        <time>2013-12-15T12:52:43Z</time>
      </trkpt>
      <trkpt lat="39.682601094" lon="-0.476676486">
        <ele>307.76</ele>
        <time>2013-12-15T12:52:50Z</time>
      </trkpt>
      <trkpt lat="39.682466900" lon="-0.476778494">
        <ele>308.24</ele>
        <time>2013-12-15T12:52:55Z</time>
      </trkpt>
      <trkpt lat="39.682453573" lon="-0.476803053">
        <ele>307.76</ele>
        <time>2013-12-15T12:53:02Z</time>
      </trkpt>
      <trkpt lat="39.682455165" lon="-0.476809507">
        <ele>307.76</ele>
        <time>2013-12-15T12:53:11Z</time>
      </trkpt>
      <trkpt lat="39.682469247" lon="-0.476810262">
        <ele>308.24</ele>
        <time>2013-12-15T12:53:25Z</time>
      </trkpt>
      <trkpt lat="39.682458853" lon="-0.476810681">
        <ele>307.76</ele>
        <time>2013-12-15T12:53:30Z</time>
      </trkpt>
      <trkpt lat="39.682326838" lon="-0.476848818">
        <ele>307.76</ele>
        <time>2013-12-15T12:53:37Z</time>
      </trkpt>
      <trkpt lat="39.682262549" lon="-0.476883352">
        <ele>307.28</ele>
        <time>2013-12-15T12:53:39Z</time>
      </trkpt>
      <trkpt lat="39.682141431" lon="-0.476931632">
        <ele>307.76</ele>
        <time>2013-12-15T12:53:42Z</time>
      </trkpt>
      <trkpt lat="39.681882598" lon="-0.477026850">
        <ele>307.28</ele>
        <time>2013-12-15T12:53:48Z</time>
      </trkpt>
      <trkpt lat="39.681434250" lon="-0.477195075">
        <ele>307.76</ele>
        <time>2013-12-15T12:53:57Z</time>
      </trkpt>
      <trkpt lat="39.681131830" lon="-0.477280989">
        <ele>308.24</ele>
        <time>2013-12-15T12:54:03Z</time>
      </trkpt>
      <trkpt lat="39.680930413" lon="-0.477345278">
        <ele>308.24</ele>
        <time>2013-12-15T12:54:07Z</time>
      </trkpt>
      <trkpt lat="39.680396738" lon="-0.477517191">
        <ele>308.24</ele>
        <time>2013-12-15T12:54:17Z</time>
      </trkpt>
      <trkpt lat="39.679946797" lon="-0.477593383">
        <ele>307.28</ele>
        <time>2013-12-15T12:54:24Z</time>
      </trkpt>
      <trkpt lat="39.679722330" lon="-0.477638477">
        <ele>305.84</ele>
        <time>2013-12-15T12:54:27Z</time>
      </trkpt>
      <trkpt lat="39.679233581" lon="-0.477717854">
        <ele>302.47</ele>
        <time>2013-12-15T12:54:33Z</time>
      </trkpt>
      <trkpt lat="39.678571075" lon="-0.477819275">
        <ele>299.11</ele>
        <time>2013-12-15T12:54:41Z</time>
      </trkpt>
      <trkpt lat="39.678488346" lon="-0.477839811">
        <ele>299.11</ele>
        <time>2013-12-15T12:54:42Z</time>
      </trkpt>
      <trkpt lat="39.678150807" lon="-0.477926312">
        <ele>297.67</ele>
        <time>2013-12-15T12:54:46Z</time>
      </trkpt>
      <trkpt lat="39.677978978" lon="-0.477968389">
        <ele>296.22</ele>
        <time>2013-12-15T12:54:48Z</time>
      </trkpt>
      <trkpt lat="39.677456701" lon="-0.478119683">
        <ele>292.86</ele>
        <time>2013-12-15T12:54:54Z</time>
      </trkpt>
      <trkpt lat="39.676917996" lon="-0.478297211">
        <ele>290.46</ele>
        <time>2013-12-15T12:55:00Z</time>
      </trkpt>
      <trkpt lat="39.676638544" lon="-0.478375247">
        <ele>289.49</ele>
        <time>2013-12-15T12:55:03Z</time>
      </trkpt>
      <trkpt lat="39.676544666" lon="-0.478390669">
        <ele>289.01</ele>
        <time>2013-12-15T12:55:04Z</time>
      </trkpt>
      <trkpt lat="39.676171001" lon="-0.478327302">
        <ele>287.57</ele>
        <time>2013-12-15T12:55:08Z</time>
      </trkpt>
      <trkpt lat="39.675696502" lon="-0.478107529">
        <ele>283.73</ele>
        <time>2013-12-15T12:55:13Z</time>
      </trkpt>
      <trkpt lat="39.675500616" lon="-0.478014322">
        <ele>282.77</ele>
        <time>2013-12-15T12:55:15Z</time>
      </trkpt>
      <trkpt lat="39.675210770" lon="-0.477847522">
        <ele>279.40</ele>
        <time>2013-12-15T12:55:18Z</time>
      </trkpt>
      <trkpt lat="39.674831741" lon="-0.477537559">
        <ele>276.04</ele>
        <time>2013-12-15T12:55:22Z</time>
      </trkpt>
      <trkpt lat="39.674435863" lon="-0.477204798">
        <ele>273.15</ele>
        <time>2013-12-15T12:55:26Z</time>
      </trkpt>
      <trkpt lat="39.673981480" lon="-0.477034561">
        <ele>269.31</ele>
        <time>2013-12-15T12:55:30Z</time>
      </trkpt>
      <trkpt lat="39.673863882" lon="-0.477047889">
        <ele>269.31</ele>
        <time>2013-12-15T12:55:31Z</time>
      </trkpt>
      <trkpt lat="39.673750307" lon="-0.477087786">
        <ele>268.83</ele>
        <time>2013-12-15T12:55:32Z</time>
      </trkpt>
      <trkpt lat="39.673427520" lon="-0.477264728">
        <ele>266.42</ele>
        <time>2013-12-15T12:55:35Z</time>
      </trkpt>
      <trkpt lat="39.672905160" lon="-0.477566896">
        <ele>263.54</ele>
        <time>2013-12-15T12:55:40Z</time>
      </trkpt>
      <trkpt lat="39.672802482" lon="-0.477622971">
        <ele>263.06</ele>
        <time>2013-12-15T12:55:41Z</time>
      </trkpt>
      <trkpt lat="39.672376262" lon="-0.477664378">
        <ele>261.14</ele>
        <time>2013-12-15T12:55:45Z</time>
      </trkpt>
      <trkpt lat="39.672161685" lon="-0.477589946">
        <ele>258.73</ele>
        <time>2013-12-15T12:55:47Z</time>
      </trkpt>
      <trkpt lat="39.671734544" lon="-0.477636717">
        <ele>256.81</ele>
        <time>2013-12-15T12:55:51Z</time>
      </trkpt>
      <trkpt lat="39.671648880" lon="-0.477714837">
        <ele>255.85</ele>
        <time>2013-12-15T12:55:52Z</time>
      </trkpt>
      <trkpt lat="39.670891408" lon="-0.478531988">
        <ele>253.44</ele>
        <time>2013-12-15T12:56:02Z</time>
      </trkpt>
      <trkpt lat="39.670532076" lon="-0.478903558">
        <ele>252.96</ele>
        <time>2013-12-15T12:56:07Z</time>
      </trkpt>
      <trkpt lat="39.669911647" lon="-0.479198350">
        <ele>252.48</ele>
        <time>2013-12-15T12:56:15Z</time>
      </trkpt>
      <trkpt lat="39.669608977" lon="-0.479201199">
        <ele>251.52</ele>
        <time>2013-12-15T12:56:20Z</time>
      </trkpt>
      <trkpt lat="39.669500766" lon="-0.479101371">
        <ele>250.56</ele>
        <time>2013-12-15T12:56:24Z</time>
      </trkpt>
      <trkpt lat="39.669500599" lon="-0.478939516">
        <ele>251.04</ele>
        <time>2013-12-15T12:56:29Z</time>
      </trkpt>
      <trkpt lat="39.669478890" lon="-0.478912862">
        <ele>250.08</ele>
        <time>2013-12-15T12:56:30Z</time>
      </trkpt>
      <trkpt lat="39.669268252" lon="-0.478761736">
        <ele>250.56</ele>
        <time>2013-12-15T12:56:38Z</time>
      </trkpt>
      <trkpt lat="39.669052837" lon="-0.478644557">
        <ele>248.64</ele>
        <time>2013-12-15T12:56:44Z</time>
      </trkpt>
      <trkpt lat="39.668846726" lon="-0.478645479">
        <ele>248.16</ele>
        <time>2013-12-15T12:56:51Z</time>
      </trkpt>
      <trkpt lat="39.668687470" lon="-0.478611533">
        <ele>246.23</ele>
        <time>2013-12-15T12:56:57Z</time>
      </trkpt>
      <trkpt lat="39.668659894" lon="-0.478598373">
        <ele>246.72</ele>
        <time>2013-12-15T12:56:59Z</time>
      </trkpt>
      <trkpt lat="39.668618487" lon="-0.478606168">
        <ele>246.23</ele>
        <time>2013-12-15T12:57:07Z</time>
      </trkpt>
      <trkpt lat="39.668570291" lon="-0.478613796">
        <ele>246.23</ele>
        <time>2013-12-15T12:57:16Z</time>
      </trkpt>
      <trkpt lat="39.668515725" lon="-0.478588985">
        <ele>245.75</ele>
        <time>2013-12-15T12:57:19Z</time>
      </trkpt>
      <trkpt lat="39.668454202" lon="-0.478535006">
        <ele>243.35</ele>
        <time>2013-12-15T12:57:23Z</time>
      </trkpt>
      <trkpt lat="39.668355882" lon="-0.478483541">
        <ele>241.43</ele>
        <time>2013-12-15T12:57:27Z</time>
      </trkpt>
      <trkpt lat="39.668283379" lon="-0.478457557">
        <ele>239.02</ele>
        <time>2013-12-15T12:57:29Z</time>
      </trkpt>
      <trkpt lat="39.668244822" lon="-0.478334595">
        <ele>238.06</ele>
        <time>2013-12-15T12:57:33Z</time>
      </trkpt>
      <trkpt lat="39.668261250" lon="-0.478280950">
        <ele>238.54</ele>
        <time>2013-12-15T12:57:34Z</time>
      </trkpt>
      <trkpt lat="39.668309949" lon="-0.478101661">
        <ele>238.06</ele>
        <time>2013-12-15T12:57:37Z</time>
      </trkpt>
      <trkpt lat="39.668331826" lon="-0.477966964">
        <ele>238.54</ele>
        <time>2013-12-15T12:57:39Z</time>
      </trkpt>
      <trkpt lat="39.668469122" lon="-0.477263723">
        <ele>237.10</ele>
        <time>2013-12-15T12:57:48Z</time>
      </trkpt>
      <trkpt lat="39.668558557" lon="-0.476702973">
        <ele>237.10</ele>
        <time>2013-12-15T12:57:55Z</time>
      </trkpt>
      <trkpt lat="39.668600382" lon="-0.476078102">
        <ele>236.62</ele>
        <time>2013-12-15T12:58:03Z</time>
      </trkpt>
      <trkpt lat="39.668670706" lon="-0.475658588">
        <ele>237.10</ele>
        <time>2013-12-15T12:58:10Z</time>
      </trkpt>
      <trkpt lat="39.668711778" lon="-0.475426074">
        <ele>236.62</ele>
        <time>2013-12-15T12:58:14Z</time>
      </trkpt>
      <trkpt lat="39.668748742" lon="-0.475264471">
        <ele>237.10</ele>
        <time>2013-12-15T12:58:17Z</time>
      </trkpt>
      <trkpt lat="39.668789310" lon="-0.474907653">
        <ele>237.10</ele>
        <time>2013-12-15T12:58:23Z</time>
      </trkpt>
      <trkpt lat="39.668855444" lon="-0.474478416">
        <ele>238.06</ele>
        <time>2013-12-15T12:58:30Z</time>
      </trkpt>
      <trkpt lat="39.668926019" lon="-0.474261325">
        <ele>238.54</ele>
        <time>2013-12-15T12:58:34Z</time>
      </trkpt>
      <trkpt lat="39.669001205" lon="-0.473881289">
        <ele>239.02</ele>
        <time>2013-12-15T12:58:43Z</time>
      </trkpt>
      <trkpt lat="39.669090556" lon="-0.473542996">
        <ele>239.51</ele>
        <time>2013-12-15T12:58:52Z</time>
      </trkpt>
      <trkpt lat="39.669206813" lon="-0.473214677">
        <ele>240.47</ele>
        <time>2013-12-15T12:59:01Z</time>
      </trkpt>
      <trkpt lat="39.669386940" lon="-0.472996244">
        <ele>240.95</ele>
        <time>2013-12-15T12:59:09Z</time>
      </trkpt>
      <trkpt lat="39.669588273" lon="-0.472875377">
        <ele>241.91</ele>
        <time>2013-12-15T12:59:16Z</time>
      </trkpt>
      <trkpt lat="39.669867055" lon="-0.472933296">
        <ele>242.39</ele>
        <time>2013-12-15T12:59:24Z</time>
      </trkpt>
      <trkpt lat="39.670146089" lon="-0.473035136">
        <ele>243.35</ele>
        <time>2013-12-15T12:59:33Z</time>
      </trkpt>
      <trkpt lat="39.670329317" lon="-0.473158099">
        <ele>244.31</ele>
        <time>2013-12-15T12:59:39Z</time>
      </trkpt>
      <trkpt lat="39.670552025" lon="-0.473355157">
        <ele>244.79</ele>
        <time>2013-12-15T12:59:46Z</time>
      </trkpt>
      <trkpt lat="39.670798788" lon="-0.473560849">
        <ele>246.23</ele>
        <time>2013-12-15T12:59:54Z</time>
      </trkpt>
      <trkpt lat="39.671050077" lon="-0.473609548">
        <ele>246.72</ele>
        <time>2013-12-15T13:00:01Z</time>
      </trkpt>
      <trkpt lat="39.671447715" lon="-0.473607033">
        <ele>247.20</ele>
        <time>2013-12-15T13:00:12Z</time>
      </trkpt>
      <trkpt lat="39.671717277" lon="-0.473532099">
        <ele>248.16</ele>
        <time>2013-12-15T13:00:20Z</time>
      </trkpt>
      <trkpt lat="39.671916850" lon="-0.473435288">
        <ele>248.64</ele>
        <time>2013-12-15T13:00:26Z</time>
      </trkpt>
      <trkpt lat="39.672189262" lon="-0.473343171">
        <ele>248.64</ele>
        <time>2013-12-15T13:00:34Z</time>
      </trkpt>
      <trkpt lat="39.672482880" lon="-0.473190285">
        <ele>249.60</ele>
        <time>2013-12-15T13:00:43Z</time>
      </trkpt>
      <trkpt lat="39.672754118" lon="-0.473000435">
        <ele>250.56</ele>
        <time>2013-12-15T13:00:52Z</time>
      </trkpt>
      <trkpt lat="39.672994930" lon="-0.472831456">
        <ele>251.52</ele>
        <time>2013-12-15T13:01:00Z</time>
      </trkpt>
      <trkpt lat="39.673217470" lon="-0.472699357">
        <ele>252.00</ele>
        <time>2013-12-15T13:01:07Z</time>
      </trkpt>
      <trkpt lat="39.673241777" lon="-0.472689131">
        <ele>252.00</ele>
        <time>2013-12-15T13:01:08Z</time>
      </trkpt>
      <trkpt lat="39.673424084" lon="-0.472567091">
        <ele>252.96</ele>
        <time>2013-12-15T13:01:17Z</time>
      </trkpt>
      <trkpt lat="39.673579233" lon="-0.472471621">
        <ele>254.41</ele>
        <time>2013-12-15T13:01:23Z</time>
      </trkpt>
      <trkpt lat="39.673765814" lon="-0.472332062">
        <ele>254.89</ele>
        <time>2013-12-15T13:01:30Z</time>
      </trkpt>
      <trkpt lat="39.673945941" lon="-0.472169118">
        <ele>256.33</ele>
        <time>2013-12-15T13:01:37Z</time>
      </trkpt>
      <trkpt lat="39.674213156" lon="-0.472023273">
        <ele>257.77</ele>
        <time>2013-12-15T13:01:46Z</time>
      </trkpt>
      <trkpt lat="39.674439803" lon="-0.471917829">
        <ele>257.77</ele>
        <time>2013-12-15T13:01:54Z</time>
      </trkpt>
      <trkpt lat="39.674532088" lon="-0.471782712">
        <ele>255.37</ele>
        <time>2013-12-15T13:01:57Z</time>
      </trkpt>
      <trkpt lat="39.674698133" lon="-0.471650027">
        <ele>255.85</ele>
        <time>2013-12-15T13:02:02Z</time>
      </trkpt>
      <trkpt lat="39.674797459" lon="-0.471624294">
        <ele>256.81</ele>
        <time>2013-12-15T13:02:06Z</time>
      </trkpt>
      <trkpt lat="39.674920253" lon="-0.471541062">
        <ele>258.25</ele>
        <time>2013-12-15T13:02:13Z</time>
      </trkpt>
      <trkpt lat="39.674943136" lon="-0.471507786">
        <ele>259.21</ele>
        <time>2013-12-15T13:02:15Z</time>
      </trkpt>
      <trkpt lat="39.674996445" lon="-0.471385745">
        <ele>260.65</ele>
        <time>2013-12-15T13:02:21Z</time>
      </trkpt>
      <trkpt lat="39.675162407" lon="-0.471295640">
        <ele>261.62</ele>
        <time>2013-12-15T13:02:29Z</time>
      </trkpt>
      <trkpt lat="39.675319232" lon="-0.471258424">
        <ele>262.10</ele>
        <time>2013-12-15T13:02:36Z</time>
      </trkpt>
      <trkpt lat="39.675542442" lon="-0.471201008">
        <ele>262.58</ele>
        <time>2013-12-15T13:02:44Z</time>
      </trkpt>
      <trkpt lat="39.675754337" lon="-0.471078800">
        <ele>263.06</ele>
        <time>2013-12-15T13:02:54Z</time>
      </trkpt>
      <trkpt lat="39.675949384" lon="-0.470959945">
        <ele>264.02</ele>
        <time>2013-12-15T13:03:04Z</time>
      </trkpt>
      <trkpt lat="39.676153064" lon="-0.470890123">
        <ele>264.98</ele>
        <time>2013-12-15T13:03:13Z</time>
      </trkpt>
      <trkpt lat="39.676291114" lon="-0.470801778">
        <ele>265.46</ele>
        <time>2013-12-15T13:03:20Z</time>
      </trkpt>
      <trkpt lat="39.676426398" lon="-0.470759533">
        <ele>266.90</ele>
        <time>2013-12-15T13:03:27Z</time>
      </trkpt>
      <trkpt lat="39.676638208" lon="-0.470728185">
        <ele>267.86</ele>
        <time>2013-12-15T13:03:36Z</time>
      </trkpt>
      <trkpt lat="39.676755387" lon="-0.470635733">
        <ele>268.83</ele>
        <time>2013-12-15T13:03:43Z</time>
      </trkpt>
      <trkpt lat="39.676796878" lon="-0.470435489">
        <ele>269.79</ele>
        <time>2013-12-15T13:03:51Z</time>
      </trkpt>
      <trkpt lat="39.676767876" lon="-0.470292326">
        <ele>271.71</ele>
        <time>2013-12-15T13:03:58Z</time>
      </trkpt>
      <trkpt lat="39.676719680" lon="-0.470193587">
        <ele>271.71</ele>
        <time>2013-12-15T13:04:03Z</time>
      </trkpt>
      <trkpt lat="39.676632425" lon="-0.469973395">
        <ele>273.15</ele>
        <time>2013-12-15T13:04:13Z</time>
      </trkpt>
      <trkpt lat="39.676518096" lon="-0.469779018">
        <ele>274.11</ele>
        <time>2013-12-15T13:04:22Z</time>
      </trkpt>
      <trkpt lat="39.676449280" lon="-0.469674831">
        <ele>275.56</ele>
        <time>2013-12-15T13:04:28Z</time>
      </trkpt>
      <trkpt lat="39.676372502" lon="-0.469448520">
        <ele>276.04</ele>
        <time>2013-12-15T13:04:37Z</time>
      </trkpt>
      <trkpt lat="39.676325982" lon="-0.469160518">
        <ele>276.52</ele>
        <time>2013-12-15T13:04:47Z</time>
      </trkpt>
      <trkpt lat="39.676244846" lon="-0.468874276">
        <ele>277.00</ele>
        <time>2013-12-15T13:04:57Z</time>
      </trkpt>
      <trkpt lat="39.676213833" lon="-0.468617538">
        <ele>277.00</ele>
        <time>2013-12-15T13:05:06Z</time>
      </trkpt>
      <trkpt lat="39.676141916" lon="-0.468457360">
        <ele>278.44</ele>
        <time>2013-12-15T13:05:14Z</time>
      </trkpt>
      <trkpt lat="39.676049799" lon="-0.468305396">
        <ele>280.84</ele>
        <time>2013-12-15T13:05:22Z</time>
      </trkpt>
      <trkpt lat="39.675975703" lon="-0.468144715">
        <ele>282.28</ele>
        <time>2013-12-15T13:05:30Z</time>
      </trkpt>
      <trkpt lat="39.675925244" lon="-0.467947908">
        <ele>281.32</ele>
        <time>2013-12-15T13:05:38Z</time>
      </trkpt>
      <trkpt lat="39.675858943" lon="-0.467778258">
        <ele>283.25</ele>
        <time>2013-12-15T13:05:47Z</time>
      </trkpt>
      <trkpt lat="39.675831702" lon="-0.467693433">
        <ele>283.25</ele>
        <time>2013-12-15T13:05:50Z</time>
      </trkpt>
      <trkpt lat="39.675776465" lon="-0.467493860">
        <ele>283.73</ele>
        <time>2013-12-15T13:05:58Z</time>
      </trkpt>
      <trkpt lat="39.675706141" lon="-0.467338292">
        <ele>283.73</ele>
        <time>2013-12-15T13:06:05Z</time>
      </trkpt>
      <trkpt lat="39.675609665" lon="-0.467189597">
        <ele>285.17</ele>
        <time>2013-12-15T13:06:12Z</time>
      </trkpt>
      <trkpt lat="39.675544370" lon="-0.467128158">
        <ele>285.65</ele>
        <time>2013-12-15T13:06:18Z</time>
      </trkpt>
      <trkpt lat="39.675397770" lon="-0.467180042">
        <ele>289.49</ele>
        <time>2013-12-15T13:06:27Z</time>
      </trkpt>
      <trkpt lat="39.675269946" lon="-0.467256904">
        <ele>290.46</ele>
        <time>2013-12-15T13:06:35Z</time>
      </trkpt>
      <trkpt lat="39.675162658" lon="-0.467463266">
        <ele>290.94</ele>
        <time>2013-12-15T13:06:45Z</time>
      </trkpt>
      <trkpt lat="39.675062075" lon="-0.467629395">
        <ele>291.42</ele>
        <time>2013-12-15T13:06:53Z</time>
      </trkpt>
      <trkpt lat="39.674941879" lon="-0.467828801">
        <ele>290.46</ele>
        <time>2013-12-15T13:07:01Z</time>
      </trkpt>
      <trkpt lat="39.674774241" lon="-0.467850259">
        <ele>290.94</ele>
        <time>2013-12-15T13:07:06Z</time>
      </trkpt>
      <trkpt lat="39.674533848" lon="-0.467770463">
        <ele>290.46</ele>
        <time>2013-12-15T13:07:13Z</time>
      </trkpt>
      <trkpt lat="39.674371742" lon="-0.467721596">
        <ele>289.97</ele>
        <time>2013-12-15T13:07:17Z</time>
      </trkpt>
      <trkpt lat="39.674107796" lon="-0.467588156">
        <ele>289.49</ele>
        <time>2013-12-15T13:07:24Z</time>
      </trkpt>
      <trkpt lat="39.673882658" lon="-0.467420602">
        <ele>289.01</ele>
        <time>2013-12-15T13:07:30Z</time>
      </trkpt>
      <trkpt lat="39.673602199" lon="-0.467217257">
        <ele>289.49</ele>
        <time>2013-12-15T13:07:38Z</time>
      </trkpt>
      <trkpt lat="39.673386868" lon="-0.467118770">
        <ele>290.46</ele>
        <time>2013-12-15T13:07:45Z</time>
      </trkpt>
      <trkpt lat="39.673193162" lon="-0.467063617">
        <ele>291.42</ele>
        <time>2013-12-15T13:07:52Z</time>
      </trkpt>
      <trkpt lat="39.673166675" lon="-0.467059761">
        <ele>291.42</ele>
        <time>2013-12-15T13:07:53Z</time>
      </trkpt>
      <trkpt lat="39.673088137" lon="-0.467172582">
        <ele>291.42</ele>
        <time>2013-12-15T13:07:58Z</time>
      </trkpt>
      <trkpt lat="39.673086712" lon="-0.467246929">
        <ele>291.42</ele>
        <time>2013-12-15T13:08:00Z</time>
      </trkpt>
      <trkpt lat="39.673055196" lon="-0.467408281">
        <ele>291.90</ele>
        <time>2013-12-15T13:08:05Z</time>
      </trkpt>
      <trkpt lat="39.672881523" lon="-0.467465529">
        <ele>291.90</ele>
        <time>2013-12-15T13:08:12Z</time>
      </trkpt>
      <trkpt lat="39.672751185" lon="-0.467590084">
        <ele>291.42</ele>
        <time>2013-12-15T13:08:17Z</time>
      </trkpt>
      <trkpt lat="39.672744311" lon="-0.467614643">
        <ele>290.46</ele>
        <time>2013-12-15T13:08:22Z</time>
      </trkpt>
      <trkpt lat="39.672670718" lon="-0.467761913">
        <ele>290.94</ele>
        <time>2013-12-15T13:08:28Z</time>
      </trkpt>
      <trkpt lat="39.672530489" lon="-0.467823688">
        <ele>290.46</ele>
        <time>2013-12-15T13:08:32Z</time>
      </trkpt>
      <trkpt lat="39.672408616" lon="-0.467854450">
        <ele>290.46</ele>
        <time>2013-12-15T13:08:35Z</time>
      </trkpt>
      <trkpt lat="39.672331670" lon="-0.467889737">
        <ele>290.46</ele>
        <time>2013-12-15T13:08:37Z</time>
      </trkpt>
      <trkpt lat="39.672195464" lon="-0.468029631">
        <ele>289.49</ele>
        <time>2013-12-15T13:08:41Z</time>
      </trkpt>
      <trkpt lat="39.671919029" lon="-0.468266336">
        <ele>289.49</ele>
        <time>2013-12-15T13:08:49Z</time>
      </trkpt>
      <trkpt lat="39.671696741" lon="-0.468382593">
        <ele>290.94</ele>
        <time>2013-12-15T13:08:56Z</time>
      </trkpt>
      <trkpt lat="39.671539580" lon="-0.468393322">
        <ele>290.94</ele>
        <time>2013-12-15T13:09:02Z</time>
      </trkpt>
      <trkpt lat="39.671366494" lon="-0.468432885">
        <ele>292.86</ele>
        <time>2013-12-15T13:09:09Z</time>
      </trkpt>
      <trkpt lat="39.671172537" lon="-0.468441937">
        <ele>293.82</ele>
        <time>2013-12-15T13:09:17Z</time>
      </trkpt>
      <trkpt lat="39.671009928" lon="-0.468399944">
        <ele>295.74</ele>
        <time>2013-12-15T13:09:25Z</time>
      </trkpt>
      <trkpt lat="39.670846481" lon="-0.468328446">
        <ele>296.22</ele>
        <time>2013-12-15T13:09:33Z</time>
      </trkpt>
      <trkpt lat="39.670713544" lon="-0.468281927">
        <ele>296.22</ele>
        <time>2013-12-15T13:09:39Z</time>
      </trkpt>
      <trkpt lat="39.670619415" lon="-0.468402877">
        <ele>297.67</ele>
        <time>2013-12-15T13:09:46Z</time>
      </trkpt>
      <trkpt lat="39.670607932" lon="-0.468531037">
        <ele>298.63</ele>
        <time>2013-12-15T13:09:51Z</time>
      </trkpt>
      <trkpt lat="39.670557473" lon="-0.468645785">
        <ele>299.59</ele>
        <time>2013-12-15T13:09:56Z</time>
      </trkpt>
      <trkpt lat="39.670527717" lon="-0.468757935">
        <ele>299.11</ele>
        <time>2013-12-15T13:10:00Z</time>
      </trkpt>
      <trkpt lat="39.670371143" lon="-0.468966812">
        <ele>298.63</ele>
        <time>2013-12-15T13:10:08Z</time>
      </trkpt>
      <trkpt lat="39.670366365" lon="-0.468972679">
        <ele>299.11</ele>
        <time>2013-12-15T13:10:14Z</time>
      </trkpt>
      <trkpt lat="39.670357648" lon="-0.468984246">
        <ele>299.11</ele>
        <time>2013-12-15T13:10:28Z</time>
      </trkpt>
      <trkpt lat="39.670305597" lon="-0.469058929">
        <ele>299.59</ele>
        <time>2013-12-15T13:10:32Z</time>
      </trkpt>
      <trkpt lat="39.670134271" lon="-0.469263447">
        <ele>298.63</ele>
        <time>2013-12-15T13:10:39Z</time>
      </trkpt>
      <trkpt lat="39.669917431" lon="-0.469432762">
        <ele>299.11</ele>
        <time>2013-12-15T13:10:46Z</time>
      </trkpt>
      <trkpt lat="39.669806790" lon="-0.469456902">
        <ele>298.63</ele>
        <time>2013-12-15T13:10:49Z</time>
      </trkpt>
      <trkpt lat="39.669619957" lon="-0.469478276">
        <ele>297.67</ele>
        <time>2013-12-15T13:10:53Z</time>
      </trkpt>
      <trkpt lat="39.669485847" lon="-0.469493195">
        <ele>295.74</ele>
        <time>2013-12-15T13:10:56Z</time>
      </trkpt>
      <trkpt lat="39.669342348" lon="-0.469548265">
        <ele>292.86</ele>
        <time>2013-12-15T13:10:59Z</time>
      </trkpt>
      <trkpt lat="39.669302702" lon="-0.469591850">
        <ele>292.38</ele>
        <time>2013-12-15T13:11:00Z</time>
      </trkpt>
      <trkpt lat="39.669269174" lon="-0.469635436">
        <ele>291.42</ele>
        <time>2013-12-15T13:11:01Z</time>
      </trkpt>
      <trkpt lat="39.669160461" lon="-0.469883624">
        <ele>286.13</ele>
        <time>2013-12-15T13:11:06Z</time>
      </trkpt>
      <trkpt lat="39.669160210" lon="-0.469920672">
        <ele>286.13</ele>
        <time>2013-12-15T13:11:07Z</time>
      </trkpt>
      <trkpt lat="39.669168591" lon="-0.469961660">
        <ele>285.65</ele>
        <time>2013-12-15T13:11:11Z</time>
      </trkpt>
      <trkpt lat="39.669174878" lon="-0.469961911">
        <ele>285.17</ele>
        <time>2013-12-15T13:11:23Z</time>
      </trkpt>
      <trkpt lat="39.669177392" lon="-0.469965767">
        <ele>285.65</ele>
        <time>2013-12-15T13:11:26Z</time>
      </trkpt>
      <trkpt lat="39.669259116" lon="-0.470076911">
        <ele>284.69</ele>
        <time>2013-12-15T13:11:30Z</time>
      </trkpt>
      <trkpt lat="39.669210836" lon="-0.470255362">
        <ele>282.28</ele>
        <time>2013-12-15T13:11:34Z</time>
      </trkpt>
      <trkpt lat="39.669068763" lon="-0.470444122">
        <ele>278.44</ele>
        <time>2013-12-15T13:11:37Z</time>
      </trkpt>
      <trkpt lat="39.669012520" lon="-0.470487876">
        <ele>278.44</ele>
        <time>2013-12-15T13:11:38Z</time>
      </trkpt>
      <trkpt lat="39.668825017" lon="-0.470500281">
        <ele>275.56</ele>
        <time>2013-12-15T13:11:41Z</time>
      </trkpt>
      <trkpt lat="39.668627623" lon="-0.470491145">
        <ele>273.15</ele>
        <time>2013-12-15T13:11:45Z</time>
      </trkpt>
      <trkpt lat="39.668398043" lon="-0.470350496">
        <ele>270.27</ele>
        <time>2013-12-15T13:11:50Z</time>
      </trkpt>
      <trkpt lat="39.668129487" lon="-0.470360136">
        <ele>268.35</ele>
        <time>2013-12-15T13:11:54Z</time>
      </trkpt>
      <trkpt lat="39.667815836" lon="-0.470503634">
        <ele>265.94</ele>
        <time>2013-12-15T13:11:59Z</time>
      </trkpt>
      <trkpt lat="39.667525738" lon="-0.470485361">
        <ele>263.06</ele>
        <time>2013-12-15T13:12:03Z</time>
      </trkpt>
      <trkpt lat="39.667255590" lon="-0.470393496">
        <ele>259.21</ele>
        <time>2013-12-15T13:12:07Z</time>
      </trkpt>
      <trkpt lat="39.667047970" lon="-0.470443368">
        <ele>258.25</ele>
        <time>2013-12-15T13:12:11Z</time>
      </trkpt>
      <trkpt lat="39.666950656" lon="-0.470524840">
        <ele>258.25</ele>
        <time>2013-12-15T13:12:13Z</time>
      </trkpt>
      <trkpt lat="39.666680088" lon="-0.470680576">
        <ele>257.29</ele>
        <time>2013-12-15T13:12:18Z</time>
      </trkpt>
      <trkpt lat="39.666430810" lon="-0.470989617">
        <ele>255.37</ele>
        <time>2013-12-15T13:12:24Z</time>
      </trkpt>
      <trkpt lat="39.666072819" lon="-0.471389433">
        <ele>253.93</ele>
        <time>2013-12-15T13:12:32Z</time>
      </trkpt>
      <trkpt lat="39.665765204" lon="-0.471607447">
        <ele>250.56</ele>
        <time>2013-12-15T13:12:37Z</time>
      </trkpt>
      <trkpt lat="39.665700328" lon="-0.471656313">
        <ele>250.56</ele>
        <time>2013-12-15T13:12:38Z</time>
      </trkpt>
      <trkpt lat="39.665636541" lon="-0.471703587">
        <ele>250.08</ele>
        <time>2013-12-15T13:12:39Z</time>
      </trkpt>
      <trkpt lat="39.665419031" lon="-0.472034924">
        <ele>248.16</ele>
        <time>2013-12-15T13:12:44Z</time>
      </trkpt>
      <trkpt lat="39.665254997" lon="-0.472147744">
        <ele>248.16</ele>
        <time>2013-12-15T13:12:47Z</time>
      </trkpt>
      <trkpt lat="39.664986441" lon="-0.472083036">
        <ele>247.68</ele>
        <time>2013-12-15T13:12:52Z</time>
      </trkpt>
      <trkpt lat="39.664898347" lon="-0.472023524">
        <ele>247.20</ele>
        <time>2013-12-15T13:12:54Z</time>
      </trkpt>
      <trkpt lat="39.664815953" lon="-0.471940879">
        <ele>247.68</ele>
        <time>2013-12-15T13:12:56Z</time>
      </trkpt>
      <trkpt lat="39.664585954" lon="-0.471807355">
        <ele>249.12</ele>
        <time>2013-12-15T13:13:01Z</time>
      </trkpt>
      <trkpt lat="39.664485622" lon="-0.471759411">
        <ele>249.12</ele>
        <time>2013-12-15T13:13:03Z</time>
      </trkpt>
      <trkpt lat="39.664379591" lon="-0.471719848">
        <ele>248.64</ele>
        <time>2013-12-15T13:13:05Z</time>
      </trkpt>
      <trkpt lat="39.664208936" lon="-0.471701240">
        <ele>247.68</ele>
        <time>2013-12-15T13:13:08Z</time>
      </trkpt>
      <trkpt lat="39.663991509" lon="-0.471593868">
        <ele>246.72</ele>
        <time>2013-12-15T13:13:12Z</time>
      </trkpt>
      <trkpt lat="39.663749104" lon="-0.471370826">
        <ele>243.83</ele>
        <time>2013-12-15T13:13:17Z</time>
      </trkpt>
      <trkpt lat="39.663535785" lon="-0.471194219">
        <ele>241.43</ele>
        <time>2013-12-15T13:13:21Z</time>
      </trkpt>
      <trkpt lat="39.663414499" lon="-0.471155578">
        <ele>241.43</ele>
        <time>2013-12-15T13:13:23Z</time>
      </trkpt>
      <trkpt lat="39.663239820" lon="-0.471038902">
        <ele>242.39</ele>
        <time>2013-12-15T13:13:26Z</time>
      </trkpt>
      <trkpt lat="39.662972605" lon="-0.470915437">
        <ele>241.91</ele>
        <time>2013-12-15T13:13:30Z</time>
      </trkpt>
      <trkpt lat="39.662609166" lon="-0.470941421">
        <ele>239.02</ele>
        <time>2013-12-15T13:13:35Z</time>
      </trkpt>
      <trkpt lat="39.662535824" lon="-0.470967572">
        <ele>237.58</ele>
        <time>2013-12-15T13:13:36Z</time>
      </trkpt>
      <trkpt lat="39.662338849" lon="-0.471105454">
        <ele>235.18</ele>
        <time>2013-12-15T13:13:39Z</time>
      </trkpt>
      <trkpt lat="39.662125697" lon="-0.471271835">
        <ele>233.26</ele>
        <time>2013-12-15T13:13:42Z</time>
      </trkpt>
      <trkpt lat="39.661951018" lon="-0.471452130">
        <ele>231.33</ele>
        <time>2013-12-15T13:13:45Z</time>
      </trkpt>
      <trkpt lat="39.661907097" lon="-0.471511893">
        <ele>229.89</ele>
        <time>2013-12-15T13:13:46Z</time>
      </trkpt>
      <trkpt lat="39.661675757" lon="-0.471670981">
        <ele>226.05</ele>
        <time>2013-12-15T13:13:51Z</time>
      </trkpt>
      <trkpt lat="39.661653377" lon="-0.471761422">
        <ele>225.57</ele>
        <time>2013-12-15T13:13:55Z</time>
      </trkpt>
      <trkpt lat="39.661682714" lon="-0.471871644">
        <ele>225.57</ele>
        <time>2013-12-15T13:13:58Z</time>
      </trkpt>
      <trkpt lat="39.661670309" lon="-0.471975664">
        <ele>224.61</ele>
        <time>2013-12-15T13:14:00Z</time>
      </trkpt>
      <trkpt lat="39.661559919" lon="-0.472018914">
        <ele>224.12</ele>
        <time>2013-12-15T13:14:03Z</time>
      </trkpt>
      <trkpt lat="39.661394963" lon="-0.471976334">
        <ele>222.68</ele>
        <time>2013-12-15T13:14:09Z</time>
      </trkpt>
      <trkpt lat="39.661390688" lon="-0.471994020">
        <ele>222.68</ele>
        <time>2013-12-15T13:14:23Z</time>
      </trkpt>
      <trkpt lat="39.661381217" lon="-0.471991003">
        <ele>223.16</ele>
        <time>2013-12-15T13:14:25Z</time>
      </trkpt>
      <trkpt lat="39.661235958" lon="-0.472020004">
        <ele>222.68</ele>
        <time>2013-12-15T13:14:30Z</time>
      </trkpt>
      <trkpt lat="39.660922140" lon="-0.472094938">
        <ele>220.76</ele>
        <time>2013-12-15T13:14:36Z</time>
      </trkpt>
      <trkpt lat="39.660745198" lon="-0.472125700">
        <ele>219.80</ele>
        <time>2013-12-15T13:14:39Z</time>
      </trkpt>
      <trkpt lat="39.660515450" lon="-0.472234581">
        <ele>217.88</ele>
        <time>2013-12-15T13:14:43Z</time>
      </trkpt>
      <trkpt lat="39.660212528" lon="-0.472514536">
        <ele>215.95</ele>
        <time>2013-12-15T13:14:49Z</time>
      </trkpt>
      <trkpt lat="39.660167685" lon="-0.472538760">
        <ele>214.99</ele>
        <time>2013-12-15T13:14:50Z</time>
      </trkpt>
      <trkpt lat="39.659732161" lon="-0.472734896">
        <ele>212.11</ele>
        <time>2013-12-15T13:14:59Z</time>
      </trkpt>
      <trkpt lat="39.659577264" lon="-0.472807316">
        <ele>211.63</ele>
        <time>2013-12-15T13:15:02Z</time>
      </trkpt>
      <trkpt lat="39.659391437" lon="-0.472967830">
        <ele>209.70</ele>
        <time>2013-12-15T13:15:06Z</time>
      </trkpt>
      <trkpt lat="39.659144673" lon="-0.473040417">
        <ele>208.26</ele>
        <time>2013-12-15T13:15:11Z</time>
      </trkpt>
      <trkpt lat="39.659037972" lon="-0.473057348">
        <ele>207.30</ele>
        <time>2013-12-15T13:15:13Z</time>
      </trkpt>
      <trkpt lat="39.658701187" lon="-0.473202942">
        <ele>206.34</ele>
        <time>2013-12-15T13:15:19Z</time>
      </trkpt>
      <trkpt lat="39.658325510" lon="-0.473417435">
        <ele>204.42</ele>
        <time>2013-12-15T13:15:25Z</time>
      </trkpt>
      <trkpt lat="39.658209002" lon="-0.473494632">
        <ele>204.42</ele>
        <time>2013-12-15T13:15:27Z</time>
      </trkpt>
      <trkpt lat="39.657998113" lon="-0.473515838">
        <ele>203.46</ele>
        <time>2013-12-15T13:15:31Z</time>
      </trkpt>
      <trkpt lat="39.657707931" lon="-0.473394217">
        <ele>202.49</ele>
        <time>2013-12-15T13:15:37Z</time>
      </trkpt>
      <trkpt lat="39.657461001" lon="-0.473289946">
        <ele>202.01</ele>
        <time>2013-12-15T13:15:42Z</time>
      </trkpt>
      <trkpt lat="39.657203760" lon="-0.473220460">
        <ele>201.05</ele>
        <time>2013-12-15T13:15:47Z</time>
      </trkpt>
      <trkpt lat="39.657088425" lon="-0.473179724">
        <ele>200.57</ele>
        <time>2013-12-15T13:15:49Z</time>
      </trkpt>
      <trkpt lat="39.656956661" lon="-0.473159691">
        <ele>199.61</ele>
        <time>2013-12-15T13:15:51Z</time>
      </trkpt>
      <trkpt lat="39.656751389" lon="-0.472980402">
        <ele>198.17</ele>
        <time>2013-12-15T13:15:56Z</time>
      </trkpt>
      <trkpt lat="39.656642592" lon="-0.472916029">
        <ele>198.17</ele>
        <time>2013-12-15T13:15:59Z</time>
      </trkpt>
      <trkpt lat="39.656423321" lon="-0.472763395">
        <ele>197.21</ele>
        <time>2013-12-15T13:16:05Z</time>
      </trkpt>
      <trkpt lat="39.656296838" lon="-0.472774878">
        <ele>196.73</ele>
        <time>2013-12-15T13:16:09Z</time>
      </trkpt>
      <trkpt lat="39.656097014" lon="-0.472895494">
        <ele>196.25</ele>
        <time>2013-12-15T13:16:15Z</time>
      </trkpt>
      <trkpt lat="39.655901212" lon="-0.473124152">
        <ele>197.69</ele>
        <time>2013-12-15T13:16:22Z</time>
      </trkpt>
      <trkpt lat="39.655867936" lon="-0.473169414">
        <ele>196.73</ele>
        <time>2013-12-15T13:16:23Z</time>
      </trkpt>
      <trkpt lat="39.655635590" lon="-0.473511731">
        <ele>197.21</ele>
        <time>2013-12-15T13:16:30Z</time>
      </trkpt>
      <trkpt lat="39.655567110" lon="-0.473599993">
        <ele>197.21</ele>
        <time>2013-12-15T13:16:32Z</time>
      </trkpt>
      <trkpt lat="39.655351359" lon="-0.473636873">
        <ele>196.73</ele>
        <time>2013-12-15T13:16:37Z</time>
      </trkpt>
      <trkpt lat="39.654825479" lon="-0.473360522">
        <ele>194.80</ele>
        <time>2013-12-15T13:16:46Z</time>
      </trkpt>
      <trkpt lat="39.654142689" lon="-0.472995406">
        <ele>191.44</ele>
        <time>2013-12-15T13:16:56Z</time>
      </trkpt>
      <trkpt lat="39.653250687" lon="-0.472507998">
        <ele>190.00</ele>
        <time>2013-12-15T13:17:09Z</time>
      </trkpt>
      <trkpt lat="39.653045749" lon="-0.472436082">
        <ele>189.04</ele>
        <time>2013-12-15T13:17:12Z</time>
      </trkpt>
      <trkpt lat="39.652930750" lon="-0.472245645">
        <ele>187.59</ele>
        <time>2013-12-15T13:17:16Z</time>
      </trkpt>
      <trkpt lat="39.652932677" lon="-0.472123101">
        <ele>187.59</ele>
        <time>2013-12-15T13:17:18Z</time>
      </trkpt>
      <trkpt lat="39.652795298" lon="-0.471734349">
        <ele>188.08</ele>
        <time>2013-12-15T13:17:25Z</time>
      </trkpt>
      <trkpt lat="39.652713491" lon="-0.471637286">
        <ele>187.59</ele>
        <time>2013-12-15T13:17:27Z</time>
      </trkpt>
      <trkpt lat="39.652573178" lon="-0.471551539">
        <ele>187.59</ele>
        <time>2013-12-15T13:17:30Z</time>
      </trkpt>
      <trkpt lat="39.652447617" lon="-0.471469564">
        <ele>188.08</ele>
        <time>2013-12-15T13:17:33Z</time>
      </trkpt>
      <trkpt lat="39.652240835" lon="-0.471368814">
        <ele>186.63</ele>
        <time>2013-12-15T13:17:37Z</time>
      </trkpt>
      <trkpt lat="39.652171517" lon="-0.471190698">
        <ele>184.71</ele>
        <time>2013-12-15T13:17:41Z</time>
      </trkpt>
      <trkpt lat="39.652260281" lon="-0.470888447">
        <ele>184.71</ele>
        <time>2013-12-15T13:17:46Z</time>
      </trkpt>
      <trkpt lat="39.652260030" lon="-0.470834887">
        <ele>185.19</ele>
        <time>2013-12-15T13:17:47Z</time>
      </trkpt>
      <trkpt lat="39.652223904" lon="-0.470625423">
        <ele>186.63</ele>
        <time>2013-12-15T13:17:53Z</time>
      </trkpt>
      <trkpt lat="39.652245278" lon="-0.470481254">
        <ele>188.56</ele>
        <time>2013-12-15T13:17:59Z</time>
      </trkpt>
      <trkpt lat="39.652252067" lon="-0.470474800">
        <ele>188.56</ele>
        <time>2013-12-15T13:18:05Z</time>
      </trkpt>
      <trkpt lat="39.652253073" lon="-0.470383605">
        <ele>187.59</ele>
        <time>2013-12-15T13:18:08Z</time>
      </trkpt>
      <trkpt lat="39.652230190" lon="-0.470108930">
        <ele>186.15</ele>
        <time>2013-12-15T13:18:12Z</time>
      </trkpt>
      <trkpt lat="39.652228514" lon="-0.470024608">
        <ele>186.15</ele>
        <time>2013-12-15T13:18:13Z</time>
      </trkpt>
      <trkpt lat="39.652297748" lon="-0.469678603">
        <ele>188.56</ele>
        <time>2013-12-15T13:18:18Z</time>
      </trkpt>
      <trkpt lat="39.652310573" lon="-0.469633844">
        <ele>188.56</ele>
        <time>2013-12-15T13:18:19Z</time>
      </trkpt>
      <trkpt lat="39.652295988" lon="-0.469384314">
        <ele>190.96</ele>
        <time>2013-12-15T13:18:25Z</time>
      </trkpt>
      <trkpt lat="39.652141007" lon="-0.469398145">
        <ele>190.96</ele>
        <time>2013-12-15T13:18:31Z</time>
      </trkpt>
      <trkpt lat="39.652028522" lon="-0.469537117">
        <ele>190.96</ele>
        <time>2013-12-15T13:18:39Z</time>
      </trkpt>
      <trkpt lat="39.651905978" lon="-0.469726631">
        <ele>190.48</ele>
        <time>2013-12-15T13:18:45Z</time>
      </trkpt>
      <trkpt lat="39.651713278" lon="-0.469949925">
        <ele>189.52</ele>
        <time>2013-12-15T13:18:51Z</time>
      </trkpt>
      <trkpt lat="39.651678661" lon="-0.470094765">
        <ele>188.56</ele>
        <time>2013-12-15T13:18:53Z</time>
      </trkpt>
      <trkpt lat="39.651509263" lon="-0.470503047">
        <ele>188.08</ele>
        <time>2013-12-15T13:18:59Z</time>
      </trkpt>
      <trkpt lat="39.651212292" lon="-0.470694071">
        <ele>186.63</ele>
        <time>2013-12-15T13:19:04Z</time>
      </trkpt>
      <trkpt lat="39.651139872" lon="-0.470702955">
        <ele>185.19</ele>
        <time>2013-12-15T13:19:05Z</time>
      </trkpt>
      <trkpt lat="39.650472002" lon="-0.470763976">
        <ele>184.23</ele>
        <time>2013-12-15T13:19:13Z</time>
      </trkpt>
      <trkpt lat="39.649882838" lon="-0.470843855">
        <ele>182.79</ele>
        <time>2013-12-15T13:19:20Z</time>
      </trkpt>
      <trkpt lat="39.649715032" lon="-0.470841257">
        <ele>181.83</ele>
        <time>2013-12-15T13:19:22Z</time>
      </trkpt>
      <trkpt lat="39.649252603" lon="-0.470667668">
        <ele>180.38</ele>
        <time>2013-12-15T13:19:28Z</time>
      </trkpt>
      <trkpt lat="39.648778355" lon="-0.470348569">
        <ele>179.90</ele>
        <time>2013-12-15T13:19:35Z</time>
      </trkpt>
      <trkpt lat="39.648652039" lon="-0.470247902">
        <ele>179.90</ele>
        <time>2013-12-15T13:19:37Z</time>
      </trkpt>
      <trkpt lat="39.647989534" lon="-0.469801230">
        <ele>179.42</ele>
        <time>2013-12-15T13:19:47Z</time>
      </trkpt>
      <trkpt lat="39.647630872" lon="-0.469581708">
        <ele>178.94</ele>
        <time>2013-12-15T13:19:52Z</time>
      </trkpt>
      <trkpt lat="39.647353431" lon="-0.469361683">
        <ele>177.98</ele>
        <time>2013-12-15T13:19:56Z</time>
      </trkpt>
      <trkpt lat="39.647019831" lon="-0.469081225">
        <ele>177.98</ele>
        <time>2013-12-15T13:20:01Z</time>
      </trkpt>
      <trkpt lat="39.646749767" lon="-0.468889782">
        <ele>177.98</ele>
        <time>2013-12-15T13:20:05Z</time>
      </trkpt>
      <trkpt lat="39.646467548" lon="-0.468578897">
        <ele>177.50</ele>
        <time>2013-12-15T13:20:10Z</time>
      </trkpt>
      <trkpt lat="39.646227742" lon="-0.468364153">
        <ele>176.54</ele>
        <time>2013-12-15T13:20:14Z</time>
      </trkpt>
      <trkpt lat="39.646109724" lon="-0.468282346">
        <ele>176.06</ele>
        <time>2013-12-15T13:20:16Z</time>
      </trkpt>
      <trkpt lat="39.645652073" lon="-0.467873057">
        <ele>174.62</ele>
        <time>2013-12-15T13:20:24Z</time>
      </trkpt>
      <trkpt lat="39.645396005" lon="-0.467664935">
        <ele>173.17</ele>
        <time>2013-12-15T13:20:28Z</time>
      </trkpt>
      <trkpt lat="39.645092832" lon="-0.467340890">
        <ele>173.17</ele>
        <time>2013-12-15T13:20:33Z</time>
      </trkpt>
      <trkpt lat="39.644724028" lon="-0.467219437">
        <ele>172.21</ele>
        <time>2013-12-15T13:20:38Z</time>
      </trkpt>
      <trkpt lat="39.644047860" lon="-0.467206445">
        <ele>169.81</ele>
        <time>2013-12-15T13:20:47Z</time>
      </trkpt>
      <trkpt lat="39.643880138" lon="-0.467036627">
        <ele>168.85</ele>
        <time>2013-12-15T13:20:51Z</time>
      </trkpt>
      <trkpt lat="39.643848957" lon="-0.466875108">
        <ele>168.85</ele>
        <time>2013-12-15T13:20:53Z</time>
      </trkpt>
      <trkpt lat="39.643633123" lon="-0.466214865">
        <ele>168.85</ele>
        <time>2013-12-15T13:21:00Z</time>
      </trkpt>
      <trkpt lat="39.643486859" lon="-0.465784539">
        <ele>168.85</ele>
        <time>2013-12-15T13:21:05Z</time>
      </trkpt>
      <trkpt lat="39.643402873" lon="-0.465590414">
        <ele>169.33</ele>
        <time>2013-12-15T13:21:08Z</time>
      </trkpt>
      <trkpt lat="39.643283933" lon="-0.465389751">
        <ele>168.85</ele>
        <time>2013-12-15T13:21:11Z</time>
      </trkpt>
      <trkpt lat="39.643162144" lon="-0.465047518">
        <ele>169.33</ele>
        <time>2013-12-15T13:21:16Z</time>
      </trkpt>
      <trkpt lat="39.643126437" lon="-0.464993538">
        <ele>169.81</ele>
        <time>2013-12-15T13:21:17Z</time>
      </trkpt>
      <trkpt lat="39.642991992" lon="-0.464830762">
        <ele>169.33</ele>
        <time>2013-12-15T13:21:20Z</time>
      </trkpt>
      <trkpt lat="39.642830053" lon="-0.464676116">
        <ele>167.89</ele>
        <time>2013-12-15T13:21:23Z</time>
      </trkpt>
      <trkpt lat="39.642763669" lon="-0.464635380">
        <ele>167.41</ele>
        <time>2013-12-15T13:21:24Z</time>
      </trkpt>
      <trkpt lat="39.642148940" lon="-0.464360788">
        <ele>166.45</ele>
        <time>2013-12-15T13:21:33Z</time>
      </trkpt>
      <trkpt lat="39.641634962" lon="-0.464288453">
        <ele>165.48</ele>
        <time>2013-12-15T13:21:41Z</time>
      </trkpt>
      <trkpt lat="39.641176639" lon="-0.464186445">
        <ele>163.56</ele>
        <time>2013-12-15T13:21:48Z</time>
      </trkpt>
      <trkpt lat="39.640637264" lon="-0.464104973">
        <ele>161.64</ele>
        <time>2013-12-15T13:21:56Z</time>
      </trkpt>
      <trkpt lat="39.639937123" lon="-0.463935910">
        <ele>159.72</ele>
        <time>2013-12-15T13:22:06Z</time>
      </trkpt>
      <trkpt lat="39.639293058" lon="-0.463783024">
        <ele>158.27</ele>
        <time>2013-12-15T13:22:16Z</time>
      </trkpt>
      <trkpt lat="39.638701128" lon="-0.463566938">
        <ele>157.31</ele>
        <time>2013-12-15T13:22:25Z</time>
      </trkpt>
      <trkpt lat="39.638428465" lon="-0.463456046">
        <ele>156.35</ele>
        <time>2013-12-15T13:22:29Z</time>
      </trkpt>
      <trkpt lat="39.637997383" lon="-0.463116327">
        <ele>155.87</ele>
        <time>2013-12-15T13:22:36Z</time>
      </trkpt>
      <trkpt lat="39.637868637" lon="-0.463043824">
        <ele>155.39</ele>
        <time>2013-12-15T13:22:38Z</time>
      </trkpt>
      <trkpt lat="39.637578204" lon="-0.462787254">
        <ele>155.87</ele>
        <time>2013-12-15T13:22:43Z</time>
      </trkpt>
      <trkpt lat="39.637087947" lon="-0.462315185">
        <ele>154.91</ele>
        <time>2013-12-15T13:22:52Z</time>
      </trkpt>
      <trkpt lat="39.636764824" lon="-0.462026680">
        <ele>154.91</ele>
        <time>2013-12-15T13:22:58Z</time>
      </trkpt>
      <trkpt lat="39.636438601" lon="-0.461939257">
        <ele>153.95</ele>
        <time>2013-12-15T13:23:03Z</time>
      </trkpt>
      <trkpt lat="39.636372887" lon="-0.461948644">
        <ele>154.43</ele>
        <time>2013-12-15T13:23:04Z</time>
      </trkpt>
      <trkpt lat="39.636123106" lon="-0.462007821">
        <ele>154.43</ele>
        <time>2013-12-15T13:23:08Z</time>
      </trkpt>
      <trkpt lat="39.635930825" lon="-0.462125335">
        <ele>154.43</ele>
        <time>2013-12-15T13:23:12Z</time>
      </trkpt>
      <trkpt lat="39.635681631" lon="-0.462138327">
        <ele>152.99</ele>
        <time>2013-12-15T13:23:17Z</time>
      </trkpt>
      <trkpt lat="39.635058688" lon="-0.462174285">
        <ele>152.51</ele>
        <time>2013-12-15T13:23:27Z</time>
      </trkpt>
      <trkpt lat="39.634769848" lon="-0.462251399">
        <ele>152.03</ele>
        <time>2013-12-15T13:23:31Z</time>
      </trkpt>
      <trkpt lat="39.634142295" lon="-0.462565804">
        <ele>150.58</ele>
        <time>2013-12-15T13:23:40Z</time>
      </trkpt>
      <trkpt lat="39.633906428" lon="-0.462641576">
        <ele>148.18</ele>
        <time>2013-12-15T13:23:43Z</time>
      </trkpt>
      <trkpt lat="39.633435532" lon="-0.462730424">
        <ele>144.82</ele>
        <time>2013-12-15T13:23:48Z</time>
      </trkpt>
      <trkpt lat="39.633119032" lon="-0.462789014">
        <ele>141.45</ele>
        <time>2013-12-15T13:23:51Z</time>
      </trkpt>
      <trkpt lat="39.632703206" lon="-0.462915832">
        <ele>138.57</ele>
        <time>2013-12-15T13:23:55Z</time>
      </trkpt>
      <trkpt lat="39.632289642" lon="-0.462959083">
        <ele>137.13</ele>
        <time>2013-12-15T13:23:59Z</time>
      </trkpt>
      <trkpt lat="39.631950008" lon="-0.462811561">
        <ele>136.64</ele>
        <time>2013-12-15T13:24:03Z</time>
      </trkpt>
      <trkpt lat="39.631509287" lon="-0.462444853">
        <ele>137.13</ele>
        <time>2013-12-15T13:24:10Z</time>
      </trkpt>
      <trkpt lat="39.631085498" lon="-0.462120976">
        <ele>137.13</ele>
        <time>2013-12-15T13:24:17Z</time>
      </trkpt>
      <trkpt lat="39.630615944" lon="-0.461741863">
        <ele>135.68</ele>
        <time>2013-12-15T13:24:24Z</time>
      </trkpt>
      <trkpt lat="39.629999036" lon="-0.461401222">
        <ele>136.64</ele>
        <time>2013-12-15T13:24:33Z</time>
      </trkpt>
      <trkpt lat="39.629748501" lon="-0.461307094">
        <ele>138.09</ele>
        <time>2013-12-15T13:24:37Z</time>
      </trkpt>
      <trkpt lat="39.629236618" lon="-0.461169798">
        <ele>140.97</ele>
        <time>2013-12-15T13:24:46Z</time>
      </trkpt>
      <trkpt lat="39.628797406" lon="-0.461083632">
        <ele>141.93</ele>
        <time>2013-12-15T13:24:55Z</time>
      </trkpt>
      <trkpt lat="39.628322572" lon="-0.461100228">
        <ele>142.41</ele>
        <time>2013-12-15T13:25:05Z</time>
      </trkpt>
      <trkpt lat="39.628087878" lon="-0.461127553">
        <ele>141.45</ele>
        <time>2013-12-15T13:25:10Z</time>
      </trkpt>
      <trkpt lat="39.627897190" lon="-0.461085476">
        <ele>141.45</ele>
        <time>2013-12-15T13:25:14Z</time>
      </trkpt>
      <trkpt lat="39.627384385" lon="-0.460779285">
        <ele>140.97</ele>
        <time>2013-12-15T13:25:25Z</time>
      </trkpt>
      <trkpt lat="39.627033183" lon="-0.460597565">
        <ele>140.49</ele>
        <time>2013-12-15T13:25:32Z</time>
      </trkpt>
      <trkpt lat="39.626803268" lon="-0.460574767">
        <ele>140.01</ele>
        <time>2013-12-15T13:25:37Z</time>
      </trkpt>
      <trkpt lat="39.626485342" lon="-0.460708039">
        <ele>140.01</ele>
        <time>2013-12-15T13:25:46Z</time>
      </trkpt>
      <trkpt lat="39.626186443" lon="-0.460910629">
        <ele>139.05</ele>
        <time>2013-12-15T13:25:56Z</time>
      </trkpt>
      <trkpt lat="39.625949068" lon="-0.460978607">
        <ele>139.05</ele>
        <time>2013-12-15T13:26:03Z</time>
      </trkpt>
      <trkpt lat="39.625560483" lon="-0.460995119">
        <ele>138.57</ele>
        <time>2013-12-15T13:26:15Z</time>
      </trkpt>
      <trkpt lat="39.625243563" lon="-0.461015739">
        <ele>138.09</ele>
        <time>2013-12-15T13:26:25Z</time>
      </trkpt>
      <trkpt lat="39.625003589" lon="-0.461038286">
        <ele>137.61</ele>
        <time>2013-12-15T13:26:33Z</time>
      </trkpt>
      <trkpt lat="39.624763364" lon="-0.461093942">
        <ele>138.09</ele>
        <time>2013-12-15T13:26:42Z</time>
      </trkpt>
      <trkpt lat="39.624522720" lon="-0.461171390">
        <ele>137.61</ele>
        <time>2013-12-15T13:26:51Z</time>
      </trkpt>
      <trkpt lat="39.624280483" lon="-0.461260909">
        <ele>137.61</ele>
        <time>2013-12-15T13:26:59Z</time>
      </trkpt>
      <trkpt lat="39.623937914" lon="-0.461381609">
        <ele>136.64</ele>
        <time>2013-12-15T13:27:09Z</time>
      </trkpt>
      <trkpt lat="39.623682098" lon="-0.461464254">
        <ele>135.68</ele>
        <time>2013-12-15T13:27:16Z</time>
      </trkpt>
      <trkpt lat="39.623640357" lon="-0.461479090">
        <ele>136.16</ele>
        <time>2013-12-15T13:27:17Z</time>
      </trkpt>
      <trkpt lat="39.623267194" lon="-0.461550588">
        <ele>135.68</ele>
        <time>2013-12-15T13:27:26Z</time>
      </trkpt>
      <trkpt lat="39.623186979" lon="-0.461569866">
        <ele>135.68</ele>
        <time>2013-12-15T13:27:28Z</time>
      </trkpt>
      <trkpt lat="39.622901408" lon="-0.461714370">
        <ele>134.72</ele>
        <time>2013-12-15T13:27:35Z</time>
      </trkpt>
      <trkpt lat="39.622488767" lon="-0.461946465">
        <ele>134.24</ele>
        <time>2013-12-15T13:27:44Z</time>
      </trkpt>
      <trkpt lat="39.622120298" lon="-0.462173028">
        <ele>133.76</ele>
        <time>2013-12-15T13:27:53Z</time>
      </trkpt>
      <trkpt lat="39.621917205" lon="-0.462228265">
        <ele>133.28</ele>
        <time>2013-12-15T13:27:57Z</time>
      </trkpt>
      <trkpt lat="39.621362407" lon="-0.462305378">
        <ele>131.84</ele>
        <time>2013-12-15T13:28:07Z</time>
      </trkpt>
      <trkpt lat="39.621156799" lon="-0.462353155">
        <ele>131.84</ele>
        <time>2013-12-15T13:28:11Z</time>
      </trkpt>
      <trkpt lat="39.620763520" lon="-0.462502185">
        <ele>131.36</ele>
        <time>2013-12-15T13:28:20Z</time>
      </trkpt>
      <trkpt lat="39.620477278" lon="-0.462685246">
        <ele>131.36</ele>
        <time>2013-12-15T13:28:27Z</time>
      </trkpt>
      <trkpt lat="39.620364038" lon="-0.462740902">
        <ele>130.40</ele>
        <time>2013-12-15T13:28:30Z</time>
      </trkpt>
      <trkpt lat="39.620037396" lon="-0.462863529">
        <ele>130.40</ele>
        <time>2013-12-15T13:28:38Z</time>
      </trkpt>
      <trkpt lat="39.619594160" lon="-0.463135103">
        <ele>129.43</ele>
        <time>2013-12-15T13:28:48Z</time>
      </trkpt>
      <trkpt lat="39.619314456" lon="-0.463317577">
        <ele>129.43</ele>
        <time>2013-12-15T13:28:54Z</time>
      </trkpt>
      <trkpt lat="39.618885806" lon="-0.463455794">
        <ele>128.47</ele>
        <time>2013-12-15T13:29:03Z</time>
      </trkpt>
      <trkpt lat="39.618834676" lon="-0.463468032">
        <ele>128.95</ele>
        <time>2013-12-15T13:29:04Z</time>
      </trkpt>
      <trkpt lat="39.618689418" lon="-0.463628545">
        <ele>127.99</ele>
        <time>2013-12-15T13:29:08Z</time>
      </trkpt>
      <trkpt lat="39.618684808" lon="-0.463696187">
        <ele>128.95</ele>
        <time>2013-12-15T13:29:09Z</time>
      </trkpt>
      <trkpt lat="39.618537202" lon="-0.464084689">
        <ele>127.51</ele>
        <time>2013-12-15T13:29:16Z</time>
      </trkpt>
      <trkpt lat="39.618501328" lon="-0.464130705">
        <ele>127.51</ele>
        <time>2013-12-15T13:29:17Z</time>
      </trkpt>
      <trkpt lat="39.618178792" lon="-0.464333883">
        <ele>127.51</ele>
        <time>2013-12-15T13:29:24Z</time>
      </trkpt>
      <trkpt lat="39.617866985" lon="-0.464520212">
        <ele>126.55</ele>
        <time>2013-12-15T13:29:31Z</time>
      </trkpt>
      <trkpt lat="39.617767911" lon="-0.464578886">
        <ele>125.59</ele>
        <time>2013-12-15T13:29:33Z</time>
      </trkpt>
      <trkpt lat="39.617327023" lon="-0.464790193">
        <ele>124.15</ele>
        <time>2013-12-15T13:29:42Z</time>
      </trkpt>
      <trkpt lat="39.616882615" lon="-0.464928411">
        <ele>124.15</ele>
        <time>2013-12-15T13:29:51Z</time>
      </trkpt>
      <trkpt lat="39.616397638" lon="-0.465128655">
        <ele>122.71</ele>
        <time>2013-12-15T13:30:01Z</time>
      </trkpt>
      <trkpt lat="39.616072169" lon="-0.465300484">
        <ele>122.71</ele>
        <time>2013-12-15T13:30:09Z</time>
      </trkpt>
      <trkpt lat="39.615580989" lon="-0.465458147">
        <ele>122.22</ele>
        <time>2013-12-15T13:30:21Z</time>
      </trkpt>
      <trkpt lat="39.615499852" lon="-0.465469966">
        <ele>121.74</ele>
        <time>2013-12-15T13:30:23Z</time>
      </trkpt>
      <trkpt lat="39.615117805" lon="-0.465685464">
        <ele>120.30</ele>
        <time>2013-12-15T13:30:33Z</time>
      </trkpt>
      <trkpt lat="39.614694854" lon="-0.465984447">
        <ele>121.26</ele>
        <time>2013-12-15T13:30:44Z</time>
      </trkpt>
      <trkpt lat="39.614337366" lon="-0.466286279">
        <ele>121.26</ele>
        <time>2013-12-15T13:30:53Z</time>
      </trkpt>
      <trkpt lat="39.614266539" lon="-0.466363309">
        <ele>121.26</ele>
        <time>2013-12-15T13:30:55Z</time>
      </trkpt>
      <trkpt lat="39.614053387" lon="-0.466530863">
        <ele>119.82</ele>
        <time>2013-12-15T13:31:00Z</time>
      </trkpt>
      <trkpt lat="39.613558687" lon="-0.466623986">
        <ele>118.86</ele>
        <time>2013-12-15T13:31:09Z</time>
      </trkpt>
      <trkpt lat="39.612955693" lon="-0.466693891">
        <ele>117.90</ele>
        <time>2013-12-15T13:31:20Z</time>
      </trkpt>
      <trkpt lat="39.612515476" lon="-0.466711577">
        <ele>117.90</ele>
        <time>2013-12-15T13:31:28Z</time>
      </trkpt>
      <trkpt lat="39.612408606" lon="-0.466700681">
        <ele>117.90</ele>
        <time>2013-12-15T13:31:30Z</time>
      </trkpt>
      <trkpt lat="39.611829165" lon="-0.466504712">
        <ele>116.94</ele>
        <time>2013-12-15T13:31:41Z</time>
      </trkpt>
      <trkpt lat="39.611299094" lon="-0.466323830">
        <ele>115.98</ele>
        <time>2013-12-15T13:31:52Z</time>
      </trkpt>
      <trkpt lat="39.610791653" lon="-0.466168011">
        <ele>115.01</ele>
        <time>2013-12-15T13:32:02Z</time>
      </trkpt>
      <trkpt lat="39.610383287" lon="-0.466121994">
        <ele>114.53</ele>
        <time>2013-12-15T13:32:10Z</time>
      </trkpt>
      <trkpt lat="39.610282034" lon="-0.466117971">
        <ele>114.53</ele>
        <time>2013-12-15T13:32:12Z</time>
      </trkpt>
      <trkpt lat="39.609924713" lon="-0.466227774">
        <ele>115.01</ele>
        <time>2013-12-15T13:32:19Z</time>
      </trkpt>
      <trkpt lat="39.609618690" lon="-0.466372361">
        <ele>113.57</ele>
        <time>2013-12-15T13:32:25Z</time>
      </trkpt>
      <trkpt lat="39.609220549" lon="-0.466466239">
        <ele>113.57</ele>
        <time>2013-12-15T13:32:34Z</time>
      </trkpt>
      <trkpt lat="39.608740015" lon="-0.466434220">
        <ele>114.05</ele>
        <time>2013-12-15T13:32:44Z</time>
      </trkpt>
      <trkpt lat="39.608229222" lon="-0.466301283">
        <ele>112.61</ele>
        <time>2013-12-15T13:32:55Z</time>
      </trkpt>
      <trkpt lat="39.607882462" lon="-0.466198102">
        <ele>112.61</ele>
        <time>2013-12-15T13:33:04Z</time>
      </trkpt>
      <trkpt lat="39.607839631" lon="-0.466214363">
        <ele>112.61</ele>
        <time>2013-12-15T13:33:08Z</time>
      </trkpt>
      <trkpt lat="39.607813144" lon="-0.466200449">
        <ele>112.13</ele>
        <time>2013-12-15T13:33:18Z</time>
      </trkpt>
      <trkpt lat="39.607764361" lon="-0.466218051">
        <ele>112.13</ele>
        <time>2013-12-15T13:33:24Z</time>
      </trkpt>
      <trkpt lat="39.607727816" lon="-0.466208076">
        <ele>112.61</ele>
        <time>2013-12-15T13:33:30Z</time>
      </trkpt>
      <trkpt lat="39.607724296" lon="-0.466201287">
        <ele>112.13</ele>
        <time>2013-12-15T13:33:31Z</time>
      </trkpt>
      <trkpt lat="39.607619019" lon="-0.466056867">
        <ele>112.13</ele>
        <time>2013-12-15T13:33:37Z</time>
      </trkpt>
      <trkpt lat="39.607493626" lon="-0.465897694">
        <ele>111.65</ele>
        <time>2013-12-15T13:33:43Z</time>
      </trkpt>
      <trkpt lat="39.607284162" lon="-0.465656715">
        <ele>111.17</ele>
        <time>2013-12-15T13:33:52Z</time>
      </trkpt>
      <trkpt lat="39.607178215" lon="-0.465564849">
        <ele>110.69</ele>
        <time>2013-12-15T13:33:58Z</time>
      </trkpt>
      <trkpt lat="39.607162206" lon="-0.465580523">
        <ele>112.13</ele>
        <time>2013-12-15T13:34:05Z</time>
      </trkpt>
      <trkpt lat="39.607159607" lon="-0.465575075">
        <ele>111.65</ele>
        <time>2013-12-15T13:34:12Z</time>
      </trkpt>
      <trkpt lat="39.607011583" lon="-0.465515647">
        <ele>111.17</ele>
        <time>2013-12-15T13:34:18Z</time>
      </trkpt>
      <trkpt lat="39.606535491" lon="-0.464960095">
        <ele>110.21</ele>
        <time>2013-12-15T13:34:30Z</time>
      </trkpt>
      <trkpt lat="39.606165849" lon="-0.464531695">
        <ele>110.21</ele>
        <time>2013-12-15T13:34:38Z</time>
      </trkpt>
      <trkpt lat="39.606114719" lon="-0.464478303">
        <ele>109.73</ele>
        <time>2013-12-15T13:34:39Z</time>
      </trkpt>
      <trkpt lat="39.605824454" lon="-0.464304630">
        <ele>109.73</ele>
        <time>2013-12-15T13:34:44Z</time>
      </trkpt>
      <trkpt lat="39.605493117" lon="-0.464157024">
        <ele>108.77</ele>
        <time>2013-12-15T13:34:50Z</time>
      </trkpt>
      <trkpt lat="39.605387924" lon="-0.464157695">
        <ele>108.29</ele>
        <time>2013-12-15T13:34:52Z</time>
      </trkpt>
      <trkpt lat="39.605250210" lon="-0.464185355">
        <ele>108.29</ele>
        <time>2013-12-15T13:34:57Z</time>
      </trkpt>
      <trkpt lat="39.605200002" lon="-0.464199102">
        <ele>109.73</ele>
        <time>2013-12-15T13:45:23Z</time>
      </trkpt>
      <trkpt lat="39.605180304" lon="-0.464212932">
        <ele>110.21</ele>
        <time>2013-12-15T13:45:36Z</time>
      </trkpt>
      <trkpt lat="39.605052900" lon="-0.464283507">
        <ele>110.21</ele>
        <time>2013-12-15T13:45:42Z</time>
      </trkpt>
      <trkpt lat="39.604776381" lon="-0.464428682">
        <ele>109.25</ele>
        <time>2013-12-15T13:45:49Z</time>
      </trkpt>
      <trkpt lat="39.604304228" lon="-0.464611575">
        <ele>106.84</ele>
        <time>2013-12-15T13:45:57Z</time>
      </trkpt>
      <trkpt lat="39.603688996" lon="-0.464814166">
        <ele>106.36</ele>
        <time>2013-12-15T13:46:07Z</time>
      </trkpt>
      <trkpt lat="39.603452124" lon="-0.464929752">
        <ele>105.88</ele>
        <time>2013-12-15T13:46:11Z</time>
      </trkpt>
      <trkpt lat="39.603197146" lon="-0.465356139">
        <ele>104.92</ele>
        <time>2013-12-15T13:46:18Z</time>
      </trkpt>
      <trkpt lat="39.603134450" lon="-0.465478012">
        <ele>105.40</ele>
        <time>2013-12-15T13:46:20Z</time>
      </trkpt>
      <trkpt lat="39.603037303" lon="-0.465646237">
        <ele>104.44</ele>
        <time>2013-12-15T13:46:23Z</time>
      </trkpt>
      <trkpt lat="39.602727676" lon="-0.465894593">
        <ele>104.92</ele>
        <time>2013-12-15T13:46:30Z</time>
      </trkpt>
      <trkpt lat="39.602254350" lon="-0.466226684">
        <ele>103.48</ele>
        <time>2013-12-15T13:46:40Z</time>
      </trkpt>
      <trkpt lat="39.601754537" lon="-0.466558104">
        <ele>103.48</ele>
        <time>2013-12-15T13:46:51Z</time>
      </trkpt>
      <trkpt lat="39.601620175" lon="-0.466644103">
        <ele>103.48</ele>
        <time>2013-12-15T13:46:54Z</time>
      </trkpt>
      <trkpt lat="39.601479359" lon="-0.466714427">
        <ele>103.48</ele>
        <time>2013-12-15T13:46:57Z</time>
      </trkpt>
      <trkpt lat="39.601198398" lon="-0.466669081">
        <ele>102.52</ele>
        <time>2013-12-15T13:47:03Z</time>
      </trkpt>
      <trkpt lat="39.601061437" lon="-0.466510495">
        <ele>101.56</ele>
        <time>2013-12-15T13:47:07Z</time>
      </trkpt>
      <trkpt lat="39.600937720" lon="-0.466326009">
        <ele>101.56</ele>
        <time>2013-12-15T13:47:11Z</time>
      </trkpt>
      <trkpt lat="39.600480571" lon="-0.465852264">
        <ele>101.08</ele>
        <time>2013-12-15T13:47:22Z</time>
      </trkpt>
      <trkpt lat="39.600220984" lon="-0.465551522">
        <ele>100.60</ele>
        <time>2013-12-15T13:47:28Z</time>
      </trkpt>
      <trkpt lat="39.599971622" lon="-0.465164362">
        <ele>98.67</ele>
        <time>2013-12-15T13:47:34Z</time>
      </trkpt>
      <trkpt lat="39.599738941" lon="-0.464987671">
        <ele>98.67</ele>
        <time>2013-12-15T13:47:38Z</time>
      </trkpt>
      <trkpt lat="39.599668365" lon="-0.464979205">
        <ele>98.19</ele>
        <time>2013-12-15T13:47:39Z</time>
      </trkpt>
      <trkpt lat="39.599027485" lon="-0.464902679">
        <ele>97.23</ele>
        <time>2013-12-15T13:47:48Z</time>
      </trkpt>
      <trkpt lat="39.598725066" lon="-0.464789439">
        <ele>100.60</ele>
        <time>2013-12-15T13:47:54Z</time>
      </trkpt>
      <trkpt lat="39.598632362" lon="-0.464748619">
        <ele>100.60</ele>
        <time>2013-12-15T13:47:56Z</time>
      </trkpt>
      <trkpt lat="39.598338492" lon="-0.464781141">
        <ele>100.60</ele>
        <time>2013-12-15T13:48:02Z</time>
      </trkpt>
      <trkpt lat="39.597757040" lon="-0.465139467">
        <ele>101.56</ele>
        <time>2013-12-15T13:48:15Z</time>
      </trkpt>
      <trkpt lat="39.597560484" lon="-0.465294365">
        <ele>101.56</ele>
        <time>2013-12-15T13:48:20Z</time>
      </trkpt>
      <trkpt lat="39.597219424" lon="-0.465699295">
        <ele>102.52</ele>
        <time>2013-12-15T13:48:30Z</time>
      </trkpt>
      <trkpt lat="39.596824721" lon="-0.466073127">
        <ele>101.56</ele>
        <time>2013-12-15T13:48:39Z</time>
      </trkpt>
      <trkpt lat="39.596441584" lon="-0.466391724">
        <ele>102.52</ele>
        <time>2013-12-15T13:48:47Z</time>
      </trkpt>
      <trkpt lat="39.596036486" lon="-0.466608312">
        <ele>101.56</ele>
        <time>2013-12-15T13:48:55Z</time>
      </trkpt>
      <trkpt lat="39.595880080" lon="-0.466655418">
        <ele>101.56</ele>
        <time>2013-12-15T13:48:58Z</time>
      </trkpt>
      <trkpt lat="39.595767511" lon="-0.466872593">
        <ele>101.56</ele>
        <time>2013-12-15T13:49:02Z</time>
      </trkpt>
      <trkpt lat="39.595633065" lon="-0.467037633">
        <ele>101.08</ele>
        <time>2013-12-15T13:49:07Z</time>
      </trkpt>
      <trkpt lat="39.595466098" lon="-0.466914335">
        <ele>102.04</ele>
        <time>2013-12-15T13:49:12Z</time>
      </trkpt>
      <trkpt lat="39.595432738" lon="-0.466900589">
        <ele>102.04</ele>
        <time>2013-12-15T13:49:13Z</time>
      </trkpt>
      <trkpt lat="39.595219586" lon="-0.466840994">
        <ele>102.04</ele>
        <time>2013-12-15T13:49:19Z</time>
      </trkpt>
      <trkpt lat="39.595121015" lon="-0.466827834">
        <ele>101.08</ele>
        <time>2013-12-15T13:49:21Z</time>
      </trkpt>
      <trkpt lat="39.594851620" lon="-0.466948198">
        <ele>98.67</ele>
        <time>2013-12-15T13:49:26Z</time>
      </trkpt>
      <trkpt lat="39.594819685" lon="-0.467004357">
        <ele>99.63</ele>
        <time>2013-12-15T13:49:27Z</time>
      </trkpt>
      <trkpt lat="39.594742404" lon="-0.467159171">
        <ele>99.63</ele>
        <time>2013-12-15T13:49:30Z</time>
      </trkpt>
      <trkpt lat="39.594607372" lon="-0.467497883">
        <ele>100.11</ele>
        <time>2013-12-15T13:49:38Z</time>
      </trkpt>
      <trkpt lat="39.594483823" lon="-0.467599556">
        <ele>99.15</ele>
        <time>2013-12-15T13:49:42Z</time>
      </trkpt>
      <trkpt lat="39.594148714" lon="-0.467893509">
        <ele>99.15</ele>
        <time>2013-12-15T13:49:52Z</time>
      </trkpt>
      <trkpt lat="39.594030865" lon="-0.468038600">
        <ele>99.15</ele>
        <time>2013-12-15T13:49:58Z</time>
      </trkpt>
      <trkpt lat="39.594021058" lon="-0.468053855">
        <ele>99.63</ele>
        <time>2013-12-15T13:49:59Z</time>
      </trkpt>
      <trkpt lat="39.594064727" lon="-0.468209675">
        <ele>98.67</ele>
        <time>2013-12-15T13:50:07Z</time>
      </trkpt>
      <trkpt lat="39.594135135" lon="-0.468361219">
        <ele>99.63</ele>
        <time>2013-12-15T13:50:13Z</time>
      </trkpt>
      <trkpt lat="39.594142428" lon="-0.468395837">
        <ele>100.11</ele>
        <time>2013-12-15T13:50:21Z</time>
      </trkpt>
      <trkpt lat="39.594186097" lon="-0.468538329">
        <ele>100.60</ele>
        <time>2013-12-15T13:50:26Z</time>
      </trkpt>
      <trkpt lat="39.594302606" lon="-0.468802694">
        <ele>100.11</ele>
        <time>2013-12-15T13:50:33Z</time>
      </trkpt>
      <trkpt lat="39.594348203" lon="-0.468891794">
        <ele>99.63</ele>
        <time>2013-12-15T13:50:35Z</time>
      </trkpt>
      <trkpt lat="39.594385000" lon="-0.469222879">
        <ele>100.60</ele>
        <time>2013-12-15T13:50:41Z</time>
      </trkpt>
      <trkpt lat="39.594339570" lon="-0.469916062">
        <ele>99.63</ele>
        <time>2013-12-15T13:50:51Z</time>
      </trkpt>
      <trkpt lat="39.594379887" lon="-0.470486702">
        <ele>101.08</ele>
        <time>2013-12-15T13:51:00Z</time>
      </trkpt>
      <trkpt lat="39.594354657" lon="-0.470763221">
        <ele>102.52</ele>
        <time>2013-12-15T13:51:06Z</time>
      </trkpt>
      <trkpt lat="39.594345689" lon="-0.470813932">
        <ele>103.00</ele>
        <time>2013-12-15T13:51:07Z</time>
      </trkpt>
      <trkpt lat="39.594232617" lon="-0.471290024">
        <ele>102.52</ele>
        <time>2013-12-15T13:51:16Z</time>
      </trkpt>
      <trkpt lat="39.594210405" lon="-0.471678190">
        <ele>100.60</ele>
        <time>2013-12-15T13:51:22Z</time>
      </trkpt>
      <trkpt lat="39.594144356" lon="-0.472159982">
        <ele>101.08</ele>
        <time>2013-12-15T13:51:29Z</time>
      </trkpt>
      <trkpt lat="39.594057770" lon="-0.472922148">
        <ele>102.52</ele>
        <time>2013-12-15T13:51:41Z</time>
      </trkpt>
      <trkpt lat="39.593981327" lon="-0.473615248">
        <ele>102.52</ele>
        <time>2013-12-15T13:51:53Z</time>
      </trkpt>
      <trkpt lat="39.593891893" lon="-0.474346653">
        <ele>103.48</ele>
        <time>2013-12-15T13:52:06Z</time>
      </trkpt>
      <trkpt lat="39.593698187" lon="-0.474997004">
        <ele>103.48</ele>
        <time>2013-12-15T13:52:18Z</time>
      </trkpt>
      <trkpt lat="39.593648063" lon="-0.475097252">
        <ele>103.96</ele>
        <time>2013-12-15T13:52:20Z</time>
      </trkpt>
      <trkpt lat="39.593293089" lon="-0.475461027">
        <ele>104.92</ele>
        <time>2013-12-15T13:52:30Z</time>
      </trkpt>
      <trkpt lat="39.592753630" lon="-0.475866459">
        <ele>104.44</ele>
        <time>2013-12-15T13:52:43Z</time>
      </trkpt>
      <trkpt lat="39.592670230" lon="-0.475929575">
        <ele>105.40</ele>
        <time>2013-12-15T13:52:45Z</time>
      </trkpt>
      <trkpt lat="39.592318023" lon="-0.476140715">
        <ele>105.40</ele>
        <time>2013-12-15T13:52:53Z</time>
      </trkpt>
      <trkpt lat="39.592235461" lon="-0.476183882">
        <ele>107.81</ele>
        <time>2013-12-15T13:52:55Z</time>
      </trkpt>
      <trkpt lat="39.592145523" lon="-0.476227636">
        <ele>105.88</ele>
        <time>2013-12-15T13:52:57Z</time>
      </trkpt>
      <trkpt lat="39.591688709" lon="-0.476472974">
        <ele>105.88</ele>
        <time>2013-12-15T13:53:08Z</time>
      </trkpt>
      <trkpt lat="39.591596927" lon="-0.476522762">
        <ele>105.88</ele>
        <time>2013-12-15T13:53:11Z</time>
      </trkpt>
      <trkpt lat="39.591596927" lon="-0.476721246">
        <ele>106.84</ele>
        <time>2013-12-15T13:53:17Z</time>
      </trkpt>
      <trkpt lat="39.591576643" lon="-0.477092732">
        <ele>107.32</ele>
        <time>2013-12-15T13:53:25Z</time>
      </trkpt>
      <trkpt lat="39.591497015" lon="-0.477595981">
        <ele>107.32</ele>
        <time>2013-12-15T13:53:35Z</time>
      </trkpt>
      <trkpt lat="39.591338513" lon="-0.478081377">
        <ele>107.32</ele>
        <time>2013-12-15T13:53:44Z</time>
      </trkpt>
      <trkpt lat="39.591157297" lon="-0.478683449">
        <ele>108.29</ele>
        <time>2013-12-15T13:53:55Z</time>
      </trkpt>
      <trkpt lat="39.591140281" lon="-0.478736507">
        <ele>108.29</ele>
        <time>2013-12-15T13:53:56Z</time>
      </trkpt>
      <trkpt lat="39.590842808" lon="-0.479346961">
        <ele>107.81</ele>
        <time>2013-12-15T13:54:08Z</time>
      </trkpt>
      <trkpt lat="39.590654802" lon="-0.479957834">
        <ele>108.77</ele>
        <time>2013-12-15T13:54:19Z</time>
      </trkpt>
      <trkpt lat="39.590660669" lon="-0.480186744">
        <ele>108.77</ele>
        <time>2013-12-15T13:54:23Z</time>
      </trkpt>
      <trkpt lat="39.590799054" lon="-0.480686473">
        <ele>109.25</ele>
        <time>2013-12-15T13:54:32Z</time>
      </trkpt>
      <trkpt lat="39.590854626" lon="-0.481356019">
        <ele>109.25</ele>
        <time>2013-12-15T13:54:43Z</time>
      </trkpt>
      <trkpt lat="39.590901816" lon="-0.482154563">
        <ele>109.25</ele>
        <time>2013-12-15T13:54:56Z</time>
      </trkpt>
      <trkpt lat="39.590922436" lon="-0.482574664">
        <ele>110.21</ele>
        <time>2013-12-15T13:55:03Z</time>
      </trkpt>
      <trkpt lat="39.590810286" lon="-0.482785385">
        <ele>110.69</ele>
        <time>2013-12-15T13:55:08Z</time>
      </trkpt>
      <trkpt lat="39.590766113" lon="-0.482797287">
        <ele>110.21</ele>
        <time>2013-12-15T13:55:09Z</time>
      </trkpt>
      <trkpt lat="39.590632087" lon="-0.482814219">
        <ele>110.69</ele>
        <time>2013-12-15T13:55:12Z</time>
      </trkpt>
      <trkpt lat="39.590313826" lon="-0.482986383">
        <ele>112.13</ele>
        <time>2013-12-15T13:55:20Z</time>
      </trkpt>
      <trkpt lat="39.590038983" lon="-0.483329706">
        <ele>111.65</ele>
        <time>2013-12-15T13:55:29Z</time>
      </trkpt>
      <trkpt lat="39.589982070" lon="-0.483576301">
        <ele>113.09</ele>
        <time>2013-12-15T13:55:34Z</time>
      </trkpt>
      <trkpt lat="39.590003109" lon="-0.483904537">
        <ele>113.57</ele>
        <time>2013-12-15T13:55:40Z</time>
      </trkpt>
      <trkpt lat="39.589876290" lon="-0.484186755">
        <ele>114.05</ele>
        <time>2013-12-15T13:55:46Z</time>
      </trkpt>
      <trkpt lat="39.589814181" lon="-0.484267306">
        <ele>113.57</ele>
        <time>2013-12-15T13:55:48Z</time>
      </trkpt>
      <trkpt lat="39.589711167" lon="-0.484451121">
        <ele>114.05</ele>
        <time>2013-12-15T13:55:52Z</time>
      </trkpt>
      <trkpt lat="39.589514527" lon="-0.484637115">
        <ele>115.01</ele>
        <time>2013-12-15T13:55:58Z</time>
      </trkpt>
      <trkpt lat="39.589352673" lon="-0.484877843">
        <ele>115.50</ele>
        <time>2013-12-15T13:56:04Z</time>
      </trkpt>
      <trkpt lat="39.589285869" lon="-0.485083787">
        <ele>115.01</ele>
        <time>2013-12-15T13:56:08Z</time>
      </trkpt>
      <trkpt lat="39.589137929" lon="-0.485725421">
        <ele>116.46</ele>
        <time>2013-12-15T13:56:20Z</time>
      </trkpt>
      <trkpt lat="39.589066599" lon="-0.485873111">
        <ele>116.46</ele>
        <time>2013-12-15T13:56:23Z</time>
      </trkpt>
      <trkpt lat="39.588931147" lon="-0.486002611">
        <ele>116.94</ele>
        <time>2013-12-15T13:56:27Z</time>
      </trkpt>
      <trkpt lat="39.588816902" lon="-0.486076539">
        <ele>116.94</ele>
        <time>2013-12-15T13:56:30Z</time>
      </trkpt>
      <trkpt lat="39.588609785" lon="-0.486138314">
        <ele>117.90</ele>
        <time>2013-12-15T13:56:35Z</time>
      </trkpt>
      <trkpt lat="39.588451786" lon="-0.486289272">
        <ele>117.90</ele>
        <time>2013-12-15T13:56:40Z</time>
      </trkpt>
      <trkpt lat="39.588258332" lon="-0.486921184">
        <ele>118.86</ele>
        <time>2013-12-15T13:56:52Z</time>
      </trkpt>
      <trkpt lat="39.588033445" lon="-0.487514203">
        <ele>120.78</ele>
        <time>2013-12-15T13:57:04Z</time>
      </trkpt>
      <trkpt lat="39.587846277" lon="-0.488059614">
        <ele>121.26</ele>
        <time>2013-12-15T13:57:15Z</time>
      </trkpt>
      <trkpt lat="39.587649135" lon="-0.488723377">
        <ele>123.19</ele>
        <time>2013-12-15T13:57:28Z</time>
      </trkpt>
      <trkpt lat="39.587489543" lon="-0.489275577">
        <ele>124.63</ele>
        <time>2013-12-15T13:57:39Z</time>
      </trkpt>
      <trkpt lat="39.587318553" lon="-0.489921821">
        <ele>125.59</ele>
        <time>2013-12-15T13:57:52Z</time>
      </trkpt>
      <trkpt lat="39.587236997" lon="-0.490544681">
        <ele>127.51</ele>
        <time>2013-12-15T13:58:04Z</time>
      </trkpt>
      <trkpt lat="39.587060809" lon="-0.490918094">
        <ele>128.47</ele>
        <time>2013-12-15T13:58:12Z</time>
      </trkpt>
      <trkpt lat="39.586840197" lon="-0.491350181">
        <ele>129.43</ele>
        <time>2013-12-15T13:58:22Z</time>
      </trkpt>
      <trkpt lat="39.586805915" lon="-0.491541876">
        <ele>130.88</ele>
        <time>2013-12-15T13:58:26Z</time>
      </trkpt>
      <trkpt lat="39.586839778" lon="-0.492033307">
        <ele>131.84</ele>
        <time>2013-12-15T13:58:35Z</time>
      </trkpt>
      <trkpt lat="39.586921837" lon="-0.492649293">
        <ele>132.32</ele>
        <time>2013-12-15T13:58:46Z</time>
      </trkpt>
      <trkpt lat="39.587024096" lon="-0.493194787">
        <ele>132.80</ele>
        <time>2013-12-15T13:58:56Z</time>
      </trkpt>
      <trkpt lat="39.587000376" lon="-0.493716141">
        <ele>135.68</ele>
        <time>2013-12-15T13:59:06Z</time>
      </trkpt>
      <trkpt lat="39.586933907" lon="-0.494119730">
        <ele>137.13</ele>
        <time>2013-12-15T13:59:14Z</time>
      </trkpt>
      <trkpt lat="39.586972548" lon="-0.494415611">
        <ele>138.09</ele>
        <time>2013-12-15T13:59:20Z</time>
      </trkpt>
      <trkpt lat="39.587048236" lon="-0.494748624">
        <ele>140.49</ele>
        <time>2013-12-15T13:59:27Z</time>
      </trkpt>
      <trkpt lat="39.587079417" lon="-0.495127402">
        <ele>140.97</ele>
        <time>2013-12-15T13:59:35Z</time>
      </trkpt>
      <trkpt lat="39.587099953" lon="-0.495421272">
        <ele>142.41</ele>
        <time>2013-12-15T13:59:41Z</time>
      </trkpt>
      <trkpt lat="39.587066174" lon="-0.495641381">
        <ele>142.41</ele>
        <time>2013-12-15T13:59:45Z</time>
      </trkpt>
      <trkpt lat="39.587017475" lon="-0.495748837">
        <ele>142.89</ele>
        <time>2013-12-15T13:59:47Z</time>
      </trkpt>
      <trkpt lat="39.586682282" lon="-0.496226940">
        <ele>142.89</ele>
        <time>2013-12-15T13:59:57Z</time>
      </trkpt>
      <trkpt lat="39.586578179" lon="-0.496393070">
        <ele>143.37</ele>
        <time>2013-12-15T14:00:01Z</time>
      </trkpt>
      <trkpt lat="39.586468125" lon="-0.496731447">
        <ele>145.30</ele>
        <time>2013-12-15T14:00:09Z</time>
      </trkpt>
      <trkpt lat="39.586404255" lon="-0.497233691">
        <ele>148.18</ele>
        <time>2013-12-15T14:00:19Z</time>
      </trkpt>
      <trkpt lat="39.586392688" lon="-0.497336285">
        <ele>147.70</ele>
        <time>2013-12-15T14:00:21Z</time>
      </trkpt>
      <trkpt lat="39.586372990" lon="-0.497496631">
        <ele>148.18</ele>
        <time>2013-12-15T14:00:24Z</time>
      </trkpt>
      <trkpt lat="39.586376762" lon="-0.497659575">
        <ele>149.14</ele>
        <time>2013-12-15T14:00:27Z</time>
      </trkpt>
      <trkpt lat="39.586419510" lon="-0.498097949">
        <ele>150.58</ele>
        <time>2013-12-15T14:00:36Z</time>
      </trkpt>
      <trkpt lat="39.586521266" lon="-0.498394752">
        <ele>152.99</ele>
        <time>2013-12-15T14:00:43Z</time>
      </trkpt>
      <trkpt lat="39.586542472" lon="-0.498712175">
        <ele>154.91</ele>
        <time>2013-12-15T14:00:50Z</time>
      </trkpt>
      <trkpt lat="39.586428814" lon="-0.498883836">
        <ele>156.35</ele>
        <time>2013-12-15T14:00:55Z</time>
      </trkpt>
      <trkpt lat="39.586299313" lon="-0.499099335">
        <ele>157.31</ele>
        <time>2013-12-15T14:01:01Z</time>
      </trkpt>
      <trkpt lat="39.586241562" lon="-0.499456739">
        <ele>159.72</ele>
        <time>2013-12-15T14:01:08Z</time>
      </trkpt>
      <trkpt lat="39.586162269" lon="-0.500065684">
        <ele>158.75</ele>
        <time>2013-12-15T14:01:18Z</time>
      </trkpt>
      <trkpt lat="39.586057579" lon="-0.500652669">
        <ele>155.39</ele>
        <time>2013-12-15T14:01:25Z</time>
      </trkpt>
      <trkpt lat="39.585983902" lon="-0.501196152">
        <ele>152.51</ele>
        <time>2013-12-15T14:01:30Z</time>
      </trkpt>
      <trkpt lat="39.586044000" lon="-0.501879025">
        <ele>150.58</ele>
        <time>2013-12-15T14:01:36Z</time>
      </trkpt>
      <trkpt lat="39.586137291" lon="-0.502952663">
        <ele>148.66</ele>
        <time>2013-12-15T14:01:46Z</time>
      </trkpt>
      <trkpt lat="39.586258577" lon="-0.503789429">
        <ele>148.18</ele>
        <time>2013-12-15T14:01:55Z</time>
      </trkpt>
      <trkpt lat="39.586270815" lon="-0.503873415">
        <ele>148.18</ele>
        <time>2013-12-15T14:01:56Z</time>
      </trkpt>
      <trkpt lat="39.586268552" lon="-0.504195951">
        <ele>148.66</ele>
        <time>2013-12-15T14:02:00Z</time>
      </trkpt>
      <trkpt lat="39.586236617" lon="-0.504433243">
        <ele>148.18</ele>
        <time>2013-12-15T14:02:03Z</time>
      </trkpt>
      <trkpt lat="39.586056406" lon="-0.505168084">
        <ele>148.66</ele>
        <time>2013-12-15T14:02:13Z</time>
      </trkpt>
      <trkpt lat="39.586022375" lon="-0.505772838">
        <ele>148.18</ele>
        <time>2013-12-15T14:02:21Z</time>
      </trkpt>
      <trkpt lat="39.585978286" lon="-0.506291846">
        <ele>146.26</ele>
        <time>2013-12-15T14:02:27Z</time>
      </trkpt>
      <trkpt lat="39.585912405" lon="-0.506711444">
        <ele>144.34</ele>
        <time>2013-12-15T14:02:31Z</time>
      </trkpt>
      <trkpt lat="39.585845852" lon="-0.507035488">
        <ele>142.89</ele>
        <time>2013-12-15T14:02:34Z</time>
      </trkpt>
      <trkpt lat="39.585713837" lon="-0.507575115">
        <ele>141.45</ele>
        <time>2013-12-15T14:02:39Z</time>
      </trkpt>
      <trkpt lat="39.585709563" lon="-0.507920114">
        <ele>138.57</ele>
        <time>2013-12-15T14:02:42Z</time>
      </trkpt>
      <trkpt lat="39.585634042" lon="-0.508448509">
        <ele>136.16</ele>
        <time>2013-12-15T14:02:47Z</time>
      </trkpt>
      <trkpt lat="39.585614931" lon="-0.508691585">
        <ele>135.20</ele>
        <time>2013-12-15T14:02:50Z</time>
      </trkpt>
      <trkpt lat="39.585677963" lon="-0.508839190">
        <ele>134.24</ele>
        <time>2013-12-15T14:02:52Z</time>
      </trkpt>
      <trkpt lat="39.585944926" lon="-0.509378565">
        <ele>132.32</ele>
        <time>2013-12-15T14:02:59Z</time>
      </trkpt>
      <trkpt lat="39.585886169" lon="-0.509675620">
        <ele>131.84</ele>
        <time>2013-12-15T14:03:03Z</time>
      </trkpt>
      <trkpt lat="39.585458525" lon="-0.510101588">
        <ele>131.36</ele>
        <time>2013-12-15T14:03:11Z</time>
      </trkpt>
      <trkpt lat="39.585201954" lon="-0.510589415">
        <ele>129.92</ele>
        <time>2013-12-15T14:03:18Z</time>
      </trkpt>
      <trkpt lat="39.585129954" lon="-0.510728806">
        <ele>129.43</ele>
        <time>2013-12-15T14:03:20Z</time>
      </trkpt>
      <trkpt lat="39.584843125" lon="-0.511065340">
        <ele>129.43</ele>
        <time>2013-12-15T14:03:26Z</time>
      </trkpt>
      <trkpt lat="39.584769281" lon="-0.511335488">
        <ele>128.47</ele>
        <time>2013-12-15T14:03:30Z</time>
      </trkpt>
      <trkpt lat="39.584855363" lon="-0.511478567">
        <ele>127.99</ele>
        <time>2013-12-15T14:03:32Z</time>
      </trkpt>
      <trkpt lat="39.584952090" lon="-0.511612762">
        <ele>127.51</ele>
        <time>2013-12-15T14:03:34Z</time>
      </trkpt>
      <trkpt lat="39.585138168" lon="-0.512188347">
        <ele>125.59</ele>
        <time>2013-12-15T14:03:41Z</time>
      </trkpt>
      <trkpt lat="39.585435810" lon="-0.513461055">
        <ele>124.15</ele>
        <time>2013-12-15T14:03:55Z</time>
      </trkpt>
      <trkpt lat="39.585582241" lon="-0.514042424">
        <ele>123.67</ele>
        <time>2013-12-15T14:04:02Z</time>
      </trkpt>
      <trkpt lat="39.585664384" lon="-0.514628738">
        <ele>124.63</ele>
        <time>2013-12-15T14:04:09Z</time>
      </trkpt>
      <trkpt lat="39.585555587" lon="-0.515270792">
        <ele>124.15</ele>
        <time>2013-12-15T14:04:17Z</time>
      </trkpt>
      <trkpt lat="39.585502613" lon="-0.515578073">
        <ele>124.63</ele>
        <time>2013-12-15T14:04:21Z</time>
      </trkpt>
      <trkpt lat="39.585298514" lon="-0.516257426">
        <ele>125.11</ele>
        <time>2013-12-15T14:04:31Z</time>
      </trkpt>
      <trkpt lat="39.585239505" lon="-0.516458340">
        <ele>125.11</ele>
        <time>2013-12-15T14:04:34Z</time>
      </trkpt>
      <trkpt lat="39.585143700" lon="-0.517157475">
        <ele>123.67</ele>
        <time>2013-12-15T14:04:44Z</time>
      </trkpt>
      <trkpt lat="39.585126769" lon="-0.517281191">
        <ele>122.71</ele>
        <time>2013-12-15T14:04:48Z</time>
      </trkpt>
      <trkpt lat="39.585133977" lon="-0.517285550">
        <ele>123.67</ele>
        <time>2013-12-15T14:04:55Z</time>
      </trkpt>
    </trkseg>
  </trk>
</gpx>
